<?xml version='1.0' encoding='UTF-8'?><gpx version="1.1" creator="JPX - https://github.com/jenetics/jpx" xmlns="http://www.topografix.com/GPX/1/1"><trk><trkseg><trkpt lat="46.0814367" lon="13.1002083"><ele>114.0</ele><time>2026-04-07T15:24:43.389Z</time></trkpt><trkpt lat="46.0815117" lon="13.1001967"><ele>114.0</ele><time>2026-04-07T15:24:44.389Z</time></trkpt><trkpt lat="46.0816" lon="13.10018"><ele>114.0</ele><time>2026-04-07T15:24:45.39Z</time></trkpt><trkpt lat="46.0817033" lon="13.1001517"><ele>114.0</ele><time>2026-04-07T15:24:46.389Z</time></trkpt><trkpt lat="46.081815" lon="13.10012"><ele>114.0</ele><time>2026-04-07T15:24:47.389Z</time></trkpt><trkpt lat="46.0819267" lon="13.1000883"><ele>114.6</ele><time>2026-04-07T15:24:48.389Z</time></trkpt><trkpt lat="46.0820367" lon="13.1000667"><ele>115.2</ele><time>2026-04-07T15:24:49.39Z</time></trkpt><trkpt lat="46.0821417" lon="13.1000433"><ele>115.79999999999998</ele><time>2026-04-07T15:24:50.389Z</time></trkpt><trkpt lat="46.0822367" lon="13.1000167"><ele>116.39999999999999</ele><time>2026-04-07T15:24:51.389Z</time></trkpt><trkpt lat="46.08232" lon="13.0999867"><ele>117.0</ele><time>2026-04-07T15:24:52.388Z</time></trkpt><trkpt lat="46.0823983" lon="13.0999517"><ele>117.0</ele><time>2026-04-07T15:24:53.39Z</time></trkpt><trkpt lat="46.0824767" lon="13.0999083"><ele>117.0</ele><time>2026-04-07T15:24:54.389Z</time></trkpt><trkpt lat="46.0825483" lon="13.0998583"><ele>117.0</ele><time>2026-04-07T15:24:55.39Z</time></trkpt><trkpt lat="46.08262" lon="13.099795"><ele>117.0</ele><time>2026-04-07T15:24:56.389Z</time></trkpt><trkpt lat="46.0826917" lon="13.0997283"><ele>117.0</ele><time>2026-04-07T15:24:57.39Z</time></trkpt><trkpt lat="46.0827633" lon="13.0996533"><ele>117.0</ele><time>2026-04-07T15:24:58.388Z</time></trkpt><trkpt lat="46.082835" lon="13.0995867"><ele>117.0</ele><time>2026-04-07T15:24:59.389Z</time></trkpt><trkpt lat="46.0828983" lon="13.0995283"><ele>117.0</ele><time>2026-04-07T15:25:00.389Z</time></trkpt><trkpt lat="46.08299" lon="13.0994467"><ele>117.0</ele><time>2026-04-07T15:25:02.39Z</time></trkpt><trkpt lat="46.083085" lon="13.09935"><ele>117.0</ele><time>2026-04-07T15:25:11.389Z</time></trkpt><trkpt lat="46.0832133" lon="13.0992267"><ele>117.25</ele><time>2026-04-07T15:25:13.391Z</time></trkpt><trkpt lat="46.0832967" lon="13.0991333"><ele>117.5</ele><time>2026-04-07T15:25:14.391Z</time></trkpt><trkpt lat="46.0833983" lon="13.0990467"><ele>117.75</ele><time>2026-04-07T15:25:15.389Z</time></trkpt><trkpt lat="46.08351" lon="13.098965"><ele>118.0</ele><time>2026-04-07T15:25:16.389Z</time></trkpt><trkpt lat="46.0836367" lon="13.09889"><ele>118.0</ele><time>2026-04-07T15:25:17.389Z</time></trkpt><trkpt lat="46.0837667" lon="13.09882"><ele>118.0</ele><time>2026-04-07T15:25:18.389Z</time></trkpt><trkpt lat="46.0838917" lon="13.0987567"><ele>118.0</ele><time>2026-04-07T15:25:19.391Z</time></trkpt><trkpt lat="46.08402" lon="13.0986833"><ele>118.0</ele><time>2026-04-07T15:25:20.389Z</time></trkpt><trkpt lat="46.0841483" lon="13.09861"><ele>118.0</ele><time>2026-04-07T15:25:21.389Z</time></trkpt><trkpt lat="46.08427" lon="13.0985283"><ele>118.0</ele><time>2026-04-07T15:25:22.389Z</time></trkpt><trkpt lat="46.084395" lon="13.0984433"><ele>118.0</ele><time>2026-04-07T15:25:23.39Z</time></trkpt><trkpt lat="46.08452" lon="13.0983583"><ele>118.0</ele><time>2026-04-07T15:25:24.389Z</time></trkpt><trkpt lat="46.084645" lon="13.098285"><ele>118.0</ele><time>2026-04-07T15:25:25.39Z</time></trkpt><trkpt lat="46.0847717" lon="13.0982067"><ele>118.0</ele><time>2026-04-07T15:25:26.388Z</time></trkpt><trkpt lat="46.0849033" lon="13.098145"><ele>118.0</ele><time>2026-04-07T15:25:27.389Z</time></trkpt><trkpt lat="46.0850383" lon="13.0980917"><ele>118.0</ele><time>2026-04-07T15:25:28.39Z</time></trkpt><trkpt lat="46.085175" lon="13.09804"><ele>118.75</ele><time>2026-04-07T15:25:29.39Z</time></trkpt><trkpt lat="46.08531" lon="13.09799"><ele>119.5</ele><time>2026-04-07T15:25:30.39Z</time></trkpt><trkpt lat="46.08545" lon="13.0979333"><ele>120.25</ele><time>2026-04-07T15:25:31.389Z</time></trkpt><trkpt lat="46.0855867" lon="13.0978667"><ele>121.0</ele><time>2026-04-07T15:25:32.388Z</time></trkpt><trkpt lat="46.0857333" lon="13.09781"><ele>121.0</ele><time>2026-04-07T15:25:33.392Z</time></trkpt><trkpt lat="46.085875" lon="13.097755"><ele>121.0</ele><time>2026-04-07T15:25:34.39Z</time></trkpt><trkpt lat="46.0860167" lon="13.0977017"><ele>121.0</ele><time>2026-04-07T15:25:35.39Z</time></trkpt><trkpt lat="46.0861533" lon="13.0976333"><ele>121.0</ele><time>2026-04-07T15:25:36.392Z</time></trkpt><trkpt lat="46.0862983" lon="13.0975683"><ele>121.0</ele><time>2026-04-07T15:25:37.392Z</time></trkpt><trkpt lat="46.0864383" lon="13.09751"><ele>121.0</ele><time>2026-04-07T15:25:38.391Z</time></trkpt><trkpt lat="46.0865783" lon="13.0974567"><ele>121.0</ele><time>2026-04-07T15:25:39.391Z</time></trkpt><trkpt lat="46.086715" lon="13.0974"><ele>121.0</ele><time>2026-04-07T15:25:40.39Z</time></trkpt><trkpt lat="46.0868517" lon="13.0973433"><ele>121.0</ele><time>2026-04-07T15:25:41.392Z</time></trkpt><trkpt lat="46.0869833" lon="13.097285"><ele>121.0</ele><time>2026-04-07T15:25:42.391Z</time></trkpt><trkpt lat="46.0871083" lon="13.0972283"><ele>121.0</ele><time>2026-04-07T15:25:43.391Z</time></trkpt><trkpt lat="46.0872233" lon="13.097175"><ele>121.0</ele><time>2026-04-07T15:25:44.392Z</time></trkpt><trkpt lat="46.08733" lon="13.097125"><ele>121.00000000000001</ele><time>2026-04-07T15:25:45.392Z</time></trkpt><trkpt lat="46.0874267" lon="13.0970833"><ele>121.0</ele><time>2026-04-07T15:25:46.39Z</time></trkpt><trkpt lat="46.08751" lon="13.0970517"><ele>121.0</ele><time>2026-04-07T15:25:47.391Z</time></trkpt><trkpt lat="46.08758" lon="13.0970133"><ele>121.0</ele><time>2026-04-07T15:25:48.392Z</time></trkpt><trkpt lat="46.08766" lon="13.096935"><ele>121.00000000000001</ele><time>2026-04-07T15:25:50.392Z</time></trkpt><trkpt lat="46.087645" lon="13.096825"><ele>121.0</ele><time>2026-04-07T15:25:52.391Z</time></trkpt><trkpt lat="46.087505" lon="13.0967267"><ele>121.0</ele><time>2026-04-07T15:25:54.391Z</time></trkpt><trkpt lat="46.0874317" lon="13.0967083"><ele>121.0</ele><time>2026-04-07T15:25:55.392Z</time></trkpt><trkpt lat="46.0873117" lon="13.09669"><ele>121.0</ele><time>2026-04-07T15:25:56.391Z</time></trkpt><trkpt lat="46.0872133" lon="13.096675"><ele>121.0</ele><time>2026-04-07T15:25:57.392Z</time></trkpt><trkpt lat="46.0871217" lon="13.09664"><ele>121.0</ele><time>2026-04-07T15:25:58.392Z</time></trkpt><trkpt lat="46.0870433" lon="13.09658"><ele>120.8</ele><time>2026-04-07T15:25:59.392Z</time></trkpt><trkpt lat="46.08693" lon="13.0965617"><ele>120.6</ele><time>2026-04-07T15:26:00.392Z</time></trkpt><trkpt lat="46.0868483" lon="13.0965367"><ele>120.4</ele><time>2026-04-07T15:26:01.39Z</time></trkpt><trkpt lat="46.0867667" lon="13.09645"><ele>120.2</ele><time>2026-04-07T15:26:03.391Z</time></trkpt><trkpt lat="46.0867017" lon="13.0963317"><ele>120.0</ele><time>2026-04-07T15:26:05.389Z</time></trkpt><trkpt lat="46.086655" lon="13.09621"><ele>120.0</ele><time>2026-04-07T15:26:07.39Z</time></trkpt><trkpt lat="46.086615" lon="13.0960967"><ele>120.0</ele><time>2026-04-07T15:26:09.39Z</time></trkpt><trkpt lat="46.0865883" lon="13.095995"><ele>120.0</ele><time>2026-04-07T15:26:11.39Z</time></trkpt><trkpt lat="46.086565" lon="13.0958783"><ele>120.0</ele><time>2026-04-07T15:26:14.39Z</time></trkpt><trkpt lat="46.0865283" lon="13.095785"><ele>120.0</ele><time>2026-04-07T15:26:16.39Z</time></trkpt><trkpt lat="46.08649" lon="13.0957017"><ele>120.0</ele><time>2026-04-07T15:26:17.39Z</time></trkpt><trkpt lat="46.08646" lon="13.0955767"><ele>120.0</ele><time>2026-04-07T15:26:18.391Z</time></trkpt><trkpt lat="46.0864117" lon="13.0954417"><ele>120.0</ele><time>2026-04-07T15:26:19.391Z</time></trkpt><trkpt lat="46.0863717" lon="13.0952783"><ele>120.0</ele><time>2026-04-07T15:26:20.391Z</time></trkpt><trkpt lat="46.0863317" lon="13.0950917"><ele>120.0</ele><time>2026-04-07T15:26:21.391Z</time></trkpt><trkpt lat="46.0862717" lon="13.0949067"><ele>120.33333333333334</ele><time>2026-04-07T15:26:22.391Z</time></trkpt><trkpt lat="46.0861967" lon="13.0947233"><ele>120.66666666666667</ele><time>2026-04-07T15:26:23.391Z</time></trkpt><trkpt lat="46.0860967" lon="13.0945467"><ele>121.0</ele><time>2026-04-07T15:26:24.392Z</time></trkpt><trkpt lat="46.086015" lon="13.0943433"><ele>121.0</ele><time>2026-04-07T15:26:25.392Z</time></trkpt><trkpt lat="46.085915" lon="13.0941383"><ele>121.0</ele><time>2026-04-07T15:26:26.392Z</time></trkpt><trkpt lat="46.085795" lon="13.09394"><ele>121.0</ele><time>2026-04-07T15:26:27.392Z</time></trkpt><trkpt lat="46.0856933" lon="13.0937467"><ele>120.33333333333334</ele><time>2026-04-07T15:26:28.392Z</time></trkpt><trkpt lat="46.085625" lon="13.093555"><ele>119.66666666666666</ele><time>2026-04-07T15:26:29.392Z</time></trkpt><trkpt lat="46.0855333" lon="13.0933617"><ele>119.0</ele><time>2026-04-07T15:26:30.391Z</time></trkpt><trkpt lat="46.0854317" lon="13.0932"><ele>119.0</ele><time>2026-04-07T15:26:31.389Z</time></trkpt><trkpt lat="46.08533" lon="13.0930383"><ele>119.0</ele><time>2026-04-07T15:26:32.389Z</time></trkpt><trkpt lat="46.0852267" lon="13.09288"><ele>119.0</ele><time>2026-04-07T15:26:33.39Z</time></trkpt><trkpt lat="46.0851317" lon="13.0927"><ele>119.0</ele><time>2026-04-07T15:26:34.389Z</time></trkpt><trkpt lat="46.0850383" lon="13.09254"><ele>119.0</ele><time>2026-04-07T15:26:35.389Z</time></trkpt><trkpt lat="46.0849667" lon="13.092355"><ele>119.0</ele><time>2026-04-07T15:26:36.39Z</time></trkpt><trkpt lat="46.0848767" lon="13.0922"><ele>119.0</ele><time>2026-04-07T15:26:37.389Z</time></trkpt><trkpt lat="46.0848117" lon="13.0920117"><ele>119.0</ele><time>2026-04-07T15:26:38.39Z</time></trkpt><trkpt lat="46.0847483" lon="13.09182"><ele>119.0</ele><time>2026-04-07T15:26:39.391Z</time></trkpt><trkpt lat="46.0846933" lon="13.0916167"><ele>119.0</ele><time>2026-04-07T15:26:40.391Z</time></trkpt><trkpt lat="46.0846167" lon="13.0914333"><ele>119.0</ele><time>2026-04-07T15:26:41.389Z</time></trkpt><trkpt lat="46.08455" lon="13.09124"><ele>118.66666666666666</ele><time>2026-04-07T15:26:42.39Z</time></trkpt><trkpt lat="46.0844733" lon="13.0910517"><ele>118.33333333333334</ele><time>2026-04-07T15:26:43.389Z</time></trkpt><trkpt lat="46.0843833" lon="13.0908767"><ele>118.0</ele><time>2026-04-07T15:26:44.39Z</time></trkpt><trkpt lat="46.084315" lon="13.0906883"><ele>118.0</ele><time>2026-04-07T15:26:45.39Z</time></trkpt><trkpt lat="46.084235" lon="13.0905483"><ele>118.00000000000001</ele><time>2026-04-07T15:26:46.391Z</time></trkpt><trkpt lat="46.0841733" lon="13.0904183"><ele>118.00000000000001</ele><time>2026-04-07T15:26:47.393Z</time></trkpt><trkpt lat="46.0841283" lon="13.0903033"><ele>118.0</ele><time>2026-04-07T15:26:48.389Z</time></trkpt><trkpt lat="46.0841" lon="13.0901983"><ele>118.0</ele><time>2026-04-07T15:26:49.39Z</time></trkpt><trkpt lat="46.0840917" lon="13.0900983"><ele>118.00000000000001</ele><time>2026-04-07T15:26:50.389Z</time></trkpt><trkpt lat="46.0841283" lon="13.0900183"><ele>118.0</ele><time>2026-04-07T15:26:51.392Z</time></trkpt><trkpt lat="46.0841717" lon="13.0899483"><ele>118.0</ele><time>2026-04-07T15:26:52.391Z</time></trkpt><trkpt lat="46.0842267" lon="13.0898633"><ele>118.0</ele><time>2026-04-07T15:26:53.391Z</time></trkpt><trkpt lat="46.084295" lon="13.0897833"><ele>118.00000000000001</ele><time>2026-04-07T15:26:54.392Z</time></trkpt><trkpt lat="46.0844067" lon="13.089715"><ele>118.0</ele><time>2026-04-07T15:26:55.39Z</time></trkpt><trkpt lat="46.0845" lon="13.0896433"><ele>118.4</ele><time>2026-04-07T15:26:56.39Z</time></trkpt><trkpt lat="46.0845817" lon="13.0895383"><ele>118.80000000000001</ele><time>2026-04-07T15:26:57.389Z</time></trkpt><trkpt lat="46.0846317" lon="13.0894"><ele>119.2</ele><time>2026-04-07T15:26:58.391Z</time></trkpt><trkpt lat="46.0846733" lon="13.089245"><ele>119.6</ele><time>2026-04-07T15:26:59.391Z</time></trkpt><trkpt lat="46.0847267" lon="13.0891167"><ele>120.0</ele><time>2026-04-07T15:27:00.391Z</time></trkpt><trkpt lat="46.0847717" lon="13.0889867"><ele>120.2</ele><time>2026-04-07T15:27:01.389Z</time></trkpt><trkpt lat="46.08484" lon="13.088885"><ele>120.4</ele><time>2026-04-07T15:27:02.388Z</time></trkpt><trkpt lat="46.0849233" lon="13.0888183"><ele>120.6</ele><time>2026-04-07T15:27:03.389Z</time></trkpt><trkpt lat="46.08502" lon="13.0887667"><ele>120.8</ele><time>2026-04-07T15:27:04.388Z</time></trkpt><trkpt lat="46.0851017" lon="13.0887117"><ele>121.0</ele><time>2026-04-07T15:27:05.391Z</time></trkpt><trkpt lat="46.0851767" lon="13.0886583"><ele>121.16666666666667</ele><time>2026-04-07T15:27:06.39Z</time></trkpt><trkpt lat="46.0852333" lon="13.088605"><ele>121.33333333333334</ele><time>2026-04-07T15:27:07.39Z</time></trkpt><trkpt lat="46.08531" lon="13.0885667"><ele>121.5</ele><time>2026-04-07T15:27:09.39Z</time></trkpt><trkpt lat="46.08539" lon="13.08861"><ele>121.66666666666666</ele><time>2026-04-07T15:27:11.391Z</time></trkpt><trkpt lat="46.0854833" lon="13.0885933"><ele>121.83333333333333</ele><time>2026-04-07T15:27:13.388Z</time></trkpt><trkpt lat="46.08554" lon="13.0885417"><ele>122.0</ele><time>2026-04-07T15:27:14.388Z</time></trkpt><trkpt lat="46.085595" lon="13.0884617"><ele>121.99999999999999</ele><time>2026-04-07T15:27:15.389Z</time></trkpt><trkpt lat="46.08566" lon="13.088385"><ele>122.0</ele><time>2026-04-07T15:27:16.39Z</time></trkpt><trkpt lat="46.0857333" lon="13.0883033"><ele>122.0</ele><time>2026-04-07T15:27:17.388Z</time></trkpt><trkpt lat="46.0857967" lon="13.0882017"><ele>122.0</ele><time>2026-04-07T15:27:18.389Z</time></trkpt><trkpt lat="46.0858567" lon="13.0881033"><ele>121.99999999999999</ele><time>2026-04-07T15:27:19.389Z</time></trkpt><trkpt lat="46.08593" lon="13.0880433"><ele>122.0</ele><time>2026-04-07T15:27:20.391Z</time></trkpt><trkpt lat="46.0859567" lon="13.0879383"><ele>122.0</ele><time>2026-04-07T15:27:21.392Z</time></trkpt><trkpt lat="46.08599" lon="13.087835"><ele>121.99999999999999</ele><time>2026-04-07T15:27:22.39Z</time></trkpt><trkpt lat="46.0860433" lon="13.0877517"><ele>121.99999999999999</ele><time>2026-04-07T15:27:23.39Z</time></trkpt><trkpt lat="46.086125" lon="13.0876933"><ele>122.0</ele><time>2026-04-07T15:27:24.389Z</time></trkpt><trkpt lat="46.0862233" lon="13.0876433"><ele>122.0</ele><time>2026-04-07T15:27:25.391Z</time></trkpt><trkpt lat="46.0863267" lon="13.0876033"><ele>122.0</ele><time>2026-04-07T15:27:26.391Z</time></trkpt><trkpt lat="46.0864433" lon="13.0875733"><ele>121.99999999999999</ele><time>2026-04-07T15:27:27.391Z</time></trkpt><trkpt lat="46.086555" lon="13.08754"><ele>121.99999999999999</ele><time>2026-04-07T15:27:28.39Z</time></trkpt><trkpt lat="46.08666" lon="13.0875133"><ele>122.0</ele><time>2026-04-07T15:27:29.39Z</time></trkpt><trkpt lat="46.08675" lon="13.0874917"><ele>122.0</ele><time>2026-04-07T15:27:30.39Z</time></trkpt><trkpt lat="46.086835" lon="13.0874717"><ele>122.33333333333333</ele><time>2026-04-07T15:27:31.392Z</time></trkpt><trkpt lat="46.0869183" lon="13.0874517"><ele>122.66666666666666</ele><time>2026-04-07T15:27:32.391Z</time></trkpt><trkpt lat="46.086995" lon="13.08744"><ele>123.0</ele><time>2026-04-07T15:27:33.389Z</time></trkpt><trkpt lat="46.08706" lon="13.0874317"><ele>123.33333333333334</ele><time>2026-04-07T15:27:34.389Z</time></trkpt><trkpt lat="46.0871483" lon="13.0874217"><ele>123.66666666666667</ele><time>2026-04-07T15:27:36.39Z</time></trkpt><trkpt lat="46.08725" lon="13.08739"><ele>124.0</ele><time>2026-04-07T15:28:04.392Z</time></trkpt><trkpt lat="46.0873317" lon="13.08737"><ele>124.00000000000001</ele><time>2026-04-07T15:28:07.392Z</time></trkpt><trkpt lat="46.0874417" lon="13.0873133"><ele>124.0</ele><time>2026-04-07T15:28:17.391Z</time></trkpt><trkpt lat="46.0875067" lon="13.0872817"><ele>124.0</ele><time>2026-04-07T15:28:18.392Z</time></trkpt><trkpt lat="46.08758" lon="13.0872533"><ele>124.0</ele><time>2026-04-07T15:28:19.392Z</time></trkpt><trkpt lat="46.087655" lon="13.0872117"><ele>124.00000000000001</ele><time>2026-04-07T15:28:20.392Z</time></trkpt><trkpt lat="46.087735" lon="13.08717"><ele>124.0</ele><time>2026-04-07T15:28:21.391Z</time></trkpt><trkpt lat="46.0878167" lon="13.087125"><ele>124.0</ele><time>2026-04-07T15:28:22.391Z</time></trkpt><trkpt lat="46.0879017" lon="13.0870817"><ele>124.0</ele><time>2026-04-07T15:28:23.39Z</time></trkpt><trkpt lat="46.0879883" lon="13.0870383"><ele>124.0</ele><time>2026-04-07T15:28:24.391Z</time></trkpt><trkpt lat="46.0880783" lon="13.0869933"><ele>124.0</ele><time>2026-04-07T15:28:25.391Z</time></trkpt><trkpt lat="46.0881717" lon="13.0869567"><ele>124.0</ele><time>2026-04-07T15:28:26.392Z</time></trkpt><trkpt lat="46.088265" lon="13.086905"><ele>124.0</ele><time>2026-04-07T15:28:27.391Z</time></trkpt><trkpt lat="46.0883617" lon="13.08684"><ele>124.0</ele><time>2026-04-07T15:28:28.39Z</time></trkpt><trkpt lat="46.0884683" lon="13.0868133"><ele>124.0</ele><time>2026-04-07T15:28:29.392Z</time></trkpt><trkpt lat="46.0885683" lon="13.0867617"><ele>124.0</ele><time>2026-04-07T15:28:30.391Z</time></trkpt><trkpt lat="46.0886733" lon="13.0867217"><ele>124.0</ele><time>2026-04-07T15:28:31.389Z</time></trkpt><trkpt lat="46.088775" lon="13.08666"><ele>124.0</ele><time>2026-04-07T15:28:32.392Z</time></trkpt><trkpt lat="46.0888783" lon="13.086615"><ele>124.0</ele><time>2026-04-07T15:28:33.392Z</time></trkpt><trkpt lat="46.0889883" lon="13.0865883"><ele>124.0</ele><time>2026-04-07T15:28:34.391Z</time></trkpt><trkpt lat="46.0890933" lon="13.0865433"><ele>124.0</ele><time>2026-04-07T15:28:35.392Z</time></trkpt><trkpt lat="46.0892033" lon="13.0865017"><ele>124.0</ele><time>2026-04-07T15:28:36.391Z</time></trkpt><trkpt lat="46.0893183" lon="13.08647"><ele>124.6</ele><time>2026-04-07T15:28:37.392Z</time></trkpt><trkpt lat="46.08943" lon="13.08642"><ele>125.2</ele><time>2026-04-07T15:28:38.391Z</time></trkpt><trkpt lat="46.0895467" lon="13.086395"><ele>125.79999999999998</ele><time>2026-04-07T15:28:39.391Z</time></trkpt><trkpt lat="46.08965" lon="13.0863483"><ele>126.39999999999999</ele><time>2026-04-07T15:28:40.391Z</time></trkpt><trkpt lat="46.0897483" lon="13.0863283"><ele>127.0</ele><time>2026-04-07T15:28:41.392Z</time></trkpt><trkpt lat="46.0898317" lon="13.0862933"><ele>127.0</ele><time>2026-04-07T15:28:42.389Z</time></trkpt><trkpt lat="46.0899033" lon="13.0862733"><ele>127.0</ele><time>2026-04-07T15:28:43.391Z</time></trkpt><trkpt lat="46.0899683" lon="13.0862733"><ele>127.0</ele><time>2026-04-07T15:28:44.389Z</time></trkpt><trkpt lat="46.0900183" lon="13.0862"><ele>127.0</ele><time>2026-04-07T15:28:46.389Z</time></trkpt><trkpt lat="46.0900183" lon="13.0860833"><ele>127.0</ele><time>2026-04-07T15:28:48.391Z</time></trkpt><trkpt lat="46.0900033" lon="13.085995"><ele>127.0</ele><time>2026-04-07T15:28:49.389Z</time></trkpt><trkpt lat="46.0899833" lon="13.0858717"><ele>127.0</ele><time>2026-04-07T15:28:50.393Z</time></trkpt><trkpt lat="46.0899617" lon="13.0857333"><ele>127.0</ele><time>2026-04-07T15:28:51.39Z</time></trkpt><trkpt lat="46.0899433" lon="13.0855783"><ele>127.0</ele><time>2026-04-07T15:28:52.389Z</time></trkpt><trkpt lat="46.0899183" lon="13.085425"><ele>127.0</ele><time>2026-04-07T15:28:53.39Z</time></trkpt><trkpt lat="46.0898833" lon="13.085265"><ele>127.0</ele><time>2026-04-07T15:28:54.392Z</time></trkpt><trkpt lat="46.0898583" lon="13.0850967"><ele>126.75</ele><time>2026-04-07T15:28:55.39Z</time></trkpt><trkpt lat="46.0898333" lon="13.084925"><ele>126.5</ele><time>2026-04-07T15:28:56.391Z</time></trkpt><trkpt lat="46.0898017" lon="13.0847567"><ele>126.25</ele><time>2026-04-07T15:28:57.39Z</time></trkpt><trkpt lat="46.08978" lon="13.0845817"><ele>126.0</ele><time>2026-04-07T15:28:58.389Z</time></trkpt><trkpt lat="46.0897483" lon="13.084405"><ele>126.0</ele><time>2026-04-07T15:28:59.392Z</time></trkpt><trkpt lat="46.089705" lon="13.0842233"><ele>126.0</ele><time>2026-04-07T15:29:00.392Z</time></trkpt><trkpt lat="46.08968" lon="13.0840433"><ele>126.0</ele><time>2026-04-07T15:29:01.39Z</time></trkpt><trkpt lat="46.0896433" lon="13.083865"><ele>126.0</ele><time>2026-04-07T15:29:02.39Z</time></trkpt><trkpt lat="46.0896083" lon="13.0836783"><ele>126.0</ele><time>2026-04-07T15:29:03.392Z</time></trkpt><trkpt lat="46.0895833" lon="13.0834867"><ele>126.0</ele><time>2026-04-07T15:29:04.39Z</time></trkpt><trkpt lat="46.089555" lon="13.0832983"><ele>126.0</ele><time>2026-04-07T15:29:05.389Z</time></trkpt><trkpt lat="46.0895217" lon="13.0831083"><ele>126.0</ele><time>2026-04-07T15:29:06.39Z</time></trkpt><trkpt lat="46.0895" lon="13.082925"><ele>126.0</ele><time>2026-04-07T15:29:07.39Z</time></trkpt><trkpt lat="46.089465" lon="13.0827367"><ele>126.0</ele><time>2026-04-07T15:29:08.389Z</time></trkpt><trkpt lat="46.08943" lon="13.0825467"><ele>126.0</ele><time>2026-04-07T15:29:09.392Z</time></trkpt><trkpt lat="46.0893933" lon="13.0823583"><ele>126.0</ele><time>2026-04-07T15:29:10.389Z</time></trkpt><trkpt lat="46.08937" lon="13.0821717"><ele>126.25</ele><time>2026-04-07T15:29:11.391Z</time></trkpt><trkpt lat="46.0893383" lon="13.08199"><ele>126.5</ele><time>2026-04-07T15:29:12.39Z</time></trkpt><trkpt lat="46.0893133" lon="13.0818033"><ele>126.75</ele><time>2026-04-07T15:29:13.389Z</time></trkpt><trkpt lat="46.0892783" lon="13.0816167"><ele>127.0</ele><time>2026-04-07T15:29:14.388Z</time></trkpt><trkpt lat="46.08924" lon="13.0814283"><ele>127.0</ele><time>2026-04-07T15:29:15.389Z</time></trkpt><trkpt lat="46.0892167" lon="13.08124"><ele>127.0</ele><time>2026-04-07T15:29:16.392Z</time></trkpt><trkpt lat="46.0891883" lon="13.0810517"><ele>127.0</ele><time>2026-04-07T15:29:17.391Z</time></trkpt><trkpt lat="46.0891667" lon="13.080865"><ele>127.0</ele><time>2026-04-07T15:29:18.39Z</time></trkpt><trkpt lat="46.0891583" lon="13.0806833"><ele>127.25</ele><time>2026-04-07T15:29:19.389Z</time></trkpt><trkpt lat="46.0891717" lon="13.0804983"><ele>127.5</ele><time>2026-04-07T15:29:20.389Z</time></trkpt><trkpt lat="46.0891767" lon="13.0803233"><ele>127.75</ele><time>2026-04-07T15:29:21.391Z</time></trkpt><trkpt lat="46.089185" lon="13.0801567"><ele>128.0</ele><time>2026-04-07T15:29:22.39Z</time></trkpt><trkpt lat="46.0892083" lon="13.0800017"><ele>128.0</ele><time>2026-04-07T15:29:23.39Z</time></trkpt><trkpt lat="46.0892117" lon="13.0798483"><ele>128.0</ele><time>2026-04-07T15:29:24.392Z</time></trkpt><trkpt lat="46.089225" lon="13.0796983"><ele>128.0</ele><time>2026-04-07T15:29:25.392Z</time></trkpt><trkpt lat="46.0892517" lon="13.0795483"><ele>128.0</ele><time>2026-04-07T15:29:26.393Z</time></trkpt><trkpt lat="46.0892417" lon="13.07941"><ele>128.0</ele><time>2026-04-07T15:29:27.392Z</time></trkpt><trkpt lat="46.0892367" lon="13.0792967"><ele>128.0</ele><time>2026-04-07T15:29:28.391Z</time></trkpt><trkpt lat="46.089235" lon="13.0792"><ele>128.0</ele><time>2026-04-07T15:29:29.389Z</time></trkpt><trkpt lat="46.08929" lon="13.0790883"><ele>128.0</ele><time>2026-04-07T15:29:31.392Z</time></trkpt><trkpt lat="46.0894167" lon="13.0790767"><ele>128.0</ele><time>2026-04-07T15:29:33.389Z</time></trkpt><trkpt lat="46.0894983" lon="13.07905"><ele>128.0</ele><time>2026-04-07T15:29:34.392Z</time></trkpt><trkpt lat="46.08959" lon="13.0789967"><ele>128.0</ele><time>2026-04-07T15:29:35.39Z</time></trkpt><trkpt lat="46.0896983" lon="13.0789467"><ele>128.0</ele><time>2026-04-07T15:29:36.391Z</time></trkpt><trkpt lat="46.0898117" lon="13.078895"><ele>128.0</ele><time>2026-04-07T15:29:37.392Z</time></trkpt><trkpt lat="46.089925" lon="13.07884"><ele>128.0</ele><time>2026-04-07T15:29:38.391Z</time></trkpt><trkpt lat="46.09004" lon="13.0787633"><ele>128.0</ele><time>2026-04-07T15:29:39.39Z</time></trkpt><trkpt lat="46.0901583" lon="13.078695"><ele>128.0</ele><time>2026-04-07T15:29:40.391Z</time></trkpt><trkpt lat="46.090285" lon="13.078635"><ele>128.0</ele><time>2026-04-07T15:29:41.39Z</time></trkpt><trkpt lat="46.0904133" lon="13.0785583"><ele>128.0</ele><time>2026-04-07T15:29:42.391Z</time></trkpt><trkpt lat="46.090545" lon="13.0784867"><ele>128.0</ele><time>2026-04-07T15:29:43.389Z</time></trkpt><trkpt lat="46.0906717" lon="13.0784133"><ele>128.0</ele><time>2026-04-07T15:29:44.391Z</time></trkpt><trkpt lat="46.0907983" lon="13.0783367"><ele>128.0</ele><time>2026-04-07T15:29:45.392Z</time></trkpt><trkpt lat="46.0909267" lon="13.07825"><ele>128.0</ele><time>2026-04-07T15:29:46.392Z</time></trkpt><trkpt lat="46.0910583" lon="13.0782133"><ele>128.0</ele><time>2026-04-07T15:29:47.389Z</time></trkpt><trkpt lat="46.09119" lon="13.0782033"><ele>128.0</ele><time>2026-04-07T15:29:48.389Z</time></trkpt><trkpt lat="46.0913233" lon="13.0782133"><ele>128.0</ele><time>2026-04-07T15:29:49.389Z</time></trkpt><trkpt lat="46.09145" lon="13.0782483"><ele>128.0</ele><time>2026-04-07T15:29:50.389Z</time></trkpt><trkpt lat="46.0915817" lon="13.0783033"><ele>128.75</ele><time>2026-04-07T15:29:51.39Z</time></trkpt><trkpt lat="46.0917183" lon="13.0783133"><ele>129.5</ele><time>2026-04-07T15:29:52.389Z</time></trkpt><trkpt lat="46.09185" lon="13.0783017"><ele>130.25</ele><time>2026-04-07T15:29:53.39Z</time></trkpt><trkpt lat="46.091975" lon="13.0783233"><ele>131.0</ele><time>2026-04-07T15:29:54.393Z</time></trkpt><trkpt lat="46.0921017" lon="13.0783617"><ele>131.0</ele><time>2026-04-07T15:29:55.392Z</time></trkpt><trkpt lat="46.09223" lon="13.0784033"><ele>131.0</ele><time>2026-04-07T15:29:56.392Z</time></trkpt><trkpt lat="46.0923567" lon="13.0784467"><ele>131.0</ele><time>2026-04-07T15:29:57.39Z</time></trkpt><trkpt lat="46.09248" lon="13.078505"><ele>131.0</ele><time>2026-04-07T15:29:58.393Z</time></trkpt><trkpt lat="46.0926017" lon="13.0785783"><ele>131.25</ele><time>2026-04-07T15:29:59.392Z</time></trkpt><trkpt lat="46.09272" lon="13.07867"><ele>131.5</ele><time>2026-04-07T15:30:00.392Z</time></trkpt><trkpt lat="46.0928467" lon="13.0787333"><ele>131.75</ele><time>2026-04-07T15:30:01.394Z</time></trkpt><trkpt lat="46.092965" lon="13.07881"><ele>132.0</ele><time>2026-04-07T15:30:02.393Z</time></trkpt><trkpt lat="46.0930767" lon="13.078915"><ele>132.0</ele><time>2026-04-07T15:30:03.389Z</time></trkpt><trkpt lat="46.0931917" lon="13.0789883"><ele>132.0</ele><time>2026-04-07T15:30:04.39Z</time></trkpt><trkpt lat="46.0933033" lon="13.07907"><ele>132.0</ele><time>2026-04-07T15:30:05.39Z</time></trkpt><trkpt lat="46.09342" lon="13.07913"><ele>132.0</ele><time>2026-04-07T15:30:06.389Z</time></trkpt><trkpt lat="46.0935417" lon="13.0791633"><ele>132.2</ele><time>2026-04-07T15:30:07.389Z</time></trkpt><trkpt lat="46.0936583" lon="13.079215"><ele>132.39999999999998</ele><time>2026-04-07T15:30:08.39Z</time></trkpt><trkpt lat="46.0937783" lon="13.0792683"><ele>132.60000000000002</ele><time>2026-04-07T15:30:09.39Z</time></trkpt><trkpt lat="46.0938833" lon="13.0793"><ele>132.8</ele><time>2026-04-07T15:30:10.388Z</time></trkpt><trkpt lat="46.0939667" lon="13.07933"><ele>133.0</ele><time>2026-04-07T15:30:11.39Z</time></trkpt><trkpt lat="46.094075" lon="13.0793267"><ele>133.0</ele><time>2026-04-07T15:30:13.391Z</time></trkpt><trkpt lat="46.0941417" lon="13.0793267"><ele>133.0</ele><time>2026-04-07T15:30:38.39Z</time></trkpt><trkpt lat="46.0942483" lon="13.0793517"><ele>133.0</ele><time>2026-04-07T15:30:40.389Z</time></trkpt><trkpt lat="46.0943233" lon="13.0793583"><ele>133.0</ele><time>2026-04-07T15:30:41.391Z</time></trkpt><trkpt lat="46.0944067" lon="13.0793667"><ele>133.0</ele><time>2026-04-07T15:30:42.393Z</time></trkpt><trkpt lat="46.09453" lon="13.079365"><ele>133.0</ele><time>2026-04-07T15:30:43.392Z</time></trkpt><trkpt lat="46.0946333" lon="13.07942"><ele>133.0</ele><time>2026-04-07T15:30:44.389Z</time></trkpt><trkpt lat="46.0947333" lon="13.0794167"><ele>133.0</ele><time>2026-04-07T15:30:45.39Z</time></trkpt><trkpt lat="46.0948433" lon="13.0794183"><ele>133.0</ele><time>2026-04-07T15:30:46.392Z</time></trkpt><trkpt lat="46.09494" lon="13.0794433"><ele>133.0</ele><time>2026-04-07T15:30:47.39Z</time></trkpt><trkpt lat="46.0950183" lon="13.0795217"><ele>133.16666666666669</ele><time>2026-04-07T15:30:48.389Z</time></trkpt><trkpt lat="46.0951217" lon="13.079545"><ele>133.33333333333334</ele><time>2026-04-07T15:30:49.392Z</time></trkpt><trkpt lat="46.0951967" lon="13.07959"><ele>133.5</ele><time>2026-04-07T15:30:50.39Z</time></trkpt><trkpt lat="46.095265" lon="13.0796433"><ele>133.66666666666666</ele><time>2026-04-07T15:30:51.39Z</time></trkpt><trkpt lat="46.0953317" lon="13.0796783"><ele>133.83333333333331</ele><time>2026-04-07T15:30:52.39Z</time></trkpt><trkpt lat="46.0954017" lon="13.0797083"><ele>134.0</ele><time>2026-04-07T15:30:53.392Z</time></trkpt><trkpt lat="46.095475" lon="13.07974"><ele>134.0</ele><time>2026-04-07T15:30:54.39Z</time></trkpt><trkpt lat="46.095545" lon="13.07979"><ele>134.0</ele><time>2026-04-07T15:30:55.392Z</time></trkpt><trkpt lat="46.0956233" lon="13.0798233"><ele>134.0</ele><time>2026-04-07T15:30:56.389Z</time></trkpt><trkpt lat="46.095705" lon="13.0798683"><ele>134.0</ele><time>2026-04-07T15:30:57.389Z</time></trkpt><trkpt lat="46.095785" lon="13.0799417"><ele>134.0</ele><time>2026-04-07T15:30:58.389Z</time></trkpt><trkpt lat="46.0958717" lon="13.0799783"><ele>134.0</ele><time>2026-04-07T15:30:59.39Z</time></trkpt><trkpt lat="46.095965" lon="13.080015"><ele>134.4</ele><time>2026-04-07T15:31:00.389Z</time></trkpt><trkpt lat="46.09606" lon="13.0800483"><ele>134.8</ele><time>2026-04-07T15:31:01.39Z</time></trkpt><trkpt lat="46.0961583" lon="13.0801"><ele>135.2</ele><time>2026-04-07T15:31:02.389Z</time></trkpt><trkpt lat="46.0962617" lon="13.0801367"><ele>135.6</ele><time>2026-04-07T15:31:03.389Z</time></trkpt><trkpt lat="46.0963683" lon="13.0801617"><ele>136.0</ele><time>2026-04-07T15:31:04.388Z</time></trkpt><trkpt lat="46.0964767" lon="13.0802017"><ele>136.0</ele><time>2026-04-07T15:31:05.39Z</time></trkpt><trkpt lat="46.0965817" lon="13.08024"><ele>136.0</ele><time>2026-04-07T15:31:06.388Z</time></trkpt><trkpt lat="46.0966917" lon="13.0802817"><ele>136.0</ele><time>2026-04-07T15:31:07.389Z</time></trkpt><trkpt lat="46.0968017" lon="13.080315"><ele>136.0</ele><time>2026-04-07T15:31:08.389Z</time></trkpt><trkpt lat="46.096915" lon="13.0803483"><ele>136.25</ele><time>2026-04-07T15:31:09.39Z</time></trkpt><trkpt lat="46.0970283" lon="13.0803817"><ele>136.5</ele><time>2026-04-07T15:31:10.389Z</time></trkpt><trkpt lat="46.09714" lon="13.080415"><ele>136.75</ele><time>2026-04-07T15:31:11.389Z</time></trkpt><trkpt lat="46.0972517" lon="13.08045"><ele>137.0</ele><time>2026-04-07T15:31:12.39Z</time></trkpt><trkpt lat="46.0973633" lon="13.0804767"><ele>137.25</ele><time>2026-04-07T15:31:13.39Z</time></trkpt><trkpt lat="46.0974767" lon="13.0804983"><ele>137.5</ele><time>2026-04-07T15:31:14.388Z</time></trkpt><trkpt lat="46.0975917" lon="13.080525"><ele>137.75</ele><time>2026-04-07T15:31:15.389Z</time></trkpt><trkpt lat="46.0977067" lon="13.0805567"><ele>138.0</ele><time>2026-04-07T15:31:16.389Z</time></trkpt><trkpt lat="46.0978167" lon="13.0805817"><ele>138.0</ele><time>2026-04-07T15:31:17.392Z</time></trkpt><trkpt lat="46.09793" lon="13.080605"><ele>138.0</ele><time>2026-04-07T15:31:18.389Z</time></trkpt><trkpt lat="46.0980383" lon="13.08061"><ele>138.0</ele><time>2026-04-07T15:31:19.388Z</time></trkpt><trkpt lat="46.0981467" lon="13.0806133"><ele>138.0</ele><time>2026-04-07T15:31:20.39Z</time></trkpt><trkpt lat="46.0982517" lon="13.08061"><ele>138.0</ele><time>2026-04-07T15:31:21.391Z</time></trkpt><trkpt lat="46.0983533" lon="13.0806"><ele>137.8</ele><time>2026-04-07T15:31:22.39Z</time></trkpt><trkpt lat="46.0984533" lon="13.0806"><ele>137.60000000000002</ele><time>2026-04-07T15:31:23.39Z</time></trkpt><trkpt lat="46.0985533" lon="13.0805933"><ele>137.39999999999998</ele><time>2026-04-07T15:31:24.391Z</time></trkpt><trkpt lat="46.098655" lon="13.08058"><ele>137.2</ele><time>2026-04-07T15:31:25.388Z</time></trkpt><trkpt lat="46.09876" lon="13.0805517"><ele>137.0</ele><time>2026-04-07T15:31:26.39Z</time></trkpt><trkpt lat="46.09888" lon="13.0805067"><ele>137.0</ele><time>2026-04-07T15:31:27.394Z</time></trkpt><trkpt lat="46.0989983" lon="13.0804867"><ele>137.0</ele><time>2026-04-07T15:31:28.392Z</time></trkpt><trkpt lat="46.09911" lon="13.0804467"><ele>137.0</ele><time>2026-04-07T15:31:29.391Z</time></trkpt><trkpt lat="46.0992217" lon="13.080405"><ele>137.0</ele><time>2026-04-07T15:31:30.393Z</time></trkpt><trkpt lat="46.0993267" lon="13.0803783"><ele>137.33333333333331</ele><time>2026-04-07T15:31:31.391Z</time></trkpt><trkpt lat="46.0994233" lon="13.08037"><ele>137.66666666666666</ele><time>2026-04-07T15:31:32.388Z</time></trkpt><trkpt lat="46.099505" lon="13.0803467"><ele>138.0</ele><time>2026-04-07T15:31:33.389Z</time></trkpt><trkpt lat="46.0995683" lon="13.0803317"><ele>138.33333333333334</ele><time>2026-04-07T15:31:34.388Z</time></trkpt><trkpt lat="46.0996433" lon="13.0802917"><ele>138.66666666666669</ele><time>2026-04-07T15:31:36.391Z</time></trkpt><trkpt lat="46.0995817" lon="13.0801783"><ele>139.0</ele><time>2026-04-07T15:31:39.389Z</time></trkpt><trkpt lat="46.0994467" lon="13.0801183"><ele>139.0</ele><time>2026-04-07T15:31:41.389Z</time></trkpt><trkpt lat="46.0993817" lon="13.0800583"><ele>139.0</ele><time>2026-04-07T15:31:42.391Z</time></trkpt><trkpt lat="46.09932" lon="13.0799667"><ele>139.0</ele><time>2026-04-07T15:31:43.392Z</time></trkpt><trkpt lat="46.0992583" lon="13.0798767"><ele>139.0</ele><time>2026-04-07T15:31:44.395Z</time></trkpt><trkpt lat="46.0992333" lon="13.07975"><ele>139.0</ele><time>2026-04-07T15:31:45.389Z</time></trkpt><trkpt lat="46.099205" lon="13.0796"><ele>139.0</ele><time>2026-04-07T15:31:46.389Z</time></trkpt><trkpt lat="46.0991633" lon="13.079425"><ele>139.0</ele><time>2026-04-07T15:31:47.389Z</time></trkpt><trkpt lat="46.099145" lon="13.0792383"><ele>139.0</ele><time>2026-04-07T15:31:48.389Z</time></trkpt><trkpt lat="46.09912" lon="13.0790833"><ele>139.0</ele><time>2026-04-07T15:31:49.391Z</time></trkpt><trkpt lat="46.0990467" lon="13.07892"><ele>139.0</ele><time>2026-04-07T15:31:50.391Z</time></trkpt><trkpt lat="46.099015" lon="13.0787533"><ele>139.0</ele><time>2026-04-07T15:31:51.393Z</time></trkpt><trkpt lat="46.0989633" lon="13.0785833"><ele>139.0</ele><time>2026-04-07T15:31:52.392Z</time></trkpt><trkpt lat="46.0989183" lon="13.0784133"><ele>139.0</ele><time>2026-04-07T15:31:53.39Z</time></trkpt><trkpt lat="46.0988717" lon="13.0782417"><ele>139.25</ele><time>2026-04-07T15:31:54.391Z</time></trkpt><trkpt lat="46.0988233" lon="13.078075"><ele>139.5</ele><time>2026-04-07T15:31:55.388Z</time></trkpt><trkpt lat="46.0987917" lon="13.0779067"><ele>139.75</ele><time>2026-04-07T15:31:56.39Z</time></trkpt><trkpt lat="46.09876" lon="13.0777383"><ele>140.0</ele><time>2026-04-07T15:31:57.388Z</time></trkpt><trkpt lat="46.0987233" lon="13.07758"><ele>139.8</ele><time>2026-04-07T15:31:58.389Z</time></trkpt><trkpt lat="46.09869" lon="13.0774267"><ele>139.6</ele><time>2026-04-07T15:31:59.388Z</time></trkpt><trkpt lat="46.0986617" lon="13.0772767"><ele>139.4</ele><time>2026-04-07T15:32:00.389Z</time></trkpt><trkpt lat="46.09863" lon="13.0771267"><ele>139.2</ele><time>2026-04-07T15:32:01.391Z</time></trkpt><trkpt lat="46.0986" lon="13.0769733"><ele>139.0</ele><time>2026-04-07T15:32:02.39Z</time></trkpt><trkpt lat="46.0985683" lon="13.076815"><ele>139.0</ele><time>2026-04-07T15:32:03.388Z</time></trkpt><trkpt lat="46.0985367" lon="13.0766483"><ele>139.0</ele><time>2026-04-07T15:32:04.388Z</time></trkpt><trkpt lat="46.098525" lon="13.0764667"><ele>139.0</ele><time>2026-04-07T15:32:05.389Z</time></trkpt><trkpt lat="46.0985133" lon="13.0762817"><ele>139.0</ele><time>2026-04-07T15:32:06.391Z</time></trkpt><trkpt lat="46.0984833" lon="13.0760983"><ele>139.0</ele><time>2026-04-07T15:32:07.389Z</time></trkpt><trkpt lat="46.09845" lon="13.0759217"><ele>139.0</ele><time>2026-04-07T15:32:08.39Z</time></trkpt><trkpt lat="46.0984033" lon="13.0757467"><ele>139.0</ele><time>2026-04-07T15:32:09.389Z</time></trkpt><trkpt lat="46.0983717" lon="13.0755817"><ele>139.0</ele><time>2026-04-07T15:32:10.389Z</time></trkpt><trkpt lat="46.09835" lon="13.0754217"><ele>139.2</ele><time>2026-04-07T15:32:11.388Z</time></trkpt><trkpt lat="46.0983383" lon="13.075265"><ele>139.4</ele><time>2026-04-07T15:32:12.389Z</time></trkpt><trkpt lat="46.098305" lon="13.0751283"><ele>139.6</ele><time>2026-04-07T15:32:13.388Z</time></trkpt><trkpt lat="46.0982633" lon="13.075"><ele>139.8</ele><time>2026-04-07T15:32:14.389Z</time></trkpt><trkpt lat="46.098225" lon="13.0749017"><ele>140.0</ele><time>2026-04-07T15:32:15.389Z</time></trkpt><trkpt lat="46.098195" lon="13.07482"><ele>140.2</ele><time>2026-04-07T15:32:16.388Z</time></trkpt><trkpt lat="46.098215" lon="13.07469"><ele>140.4</ele><time>2026-04-07T15:32:18.388Z</time></trkpt><trkpt lat="46.098295" lon="13.0746917"><ele>140.6</ele><time>2026-04-07T15:32:20.391Z</time></trkpt><trkpt lat="46.0983667" lon="13.0747517"><ele>140.8</ele><time>2026-04-07T15:32:21.39Z</time></trkpt><trkpt lat="46.098455" lon="13.0748083"><ele>141.0</ele><time>2026-04-07T15:32:22.389Z</time></trkpt><trkpt lat="46.0985533" lon="13.0748317"><ele>141.25</ele><time>2026-04-07T15:32:23.389Z</time></trkpt><trkpt lat="46.09867" lon="13.074835"><ele>141.5</ele><time>2026-04-07T15:32:24.389Z</time></trkpt><trkpt lat="46.0988033" lon="13.0748083"><ele>141.75</ele><time>2026-04-07T15:32:25.388Z</time></trkpt><trkpt lat="46.0988883" lon="13.0747233"><ele>142.0</ele><time>2026-04-07T15:32:26.39Z</time></trkpt><trkpt lat="46.0990167" lon="13.074715"><ele>142.0</ele><time>2026-04-07T15:32:27.391Z</time></trkpt><trkpt lat="46.0990917" lon="13.0746317"><ele>142.0</ele><time>2026-04-07T15:32:28.389Z</time></trkpt><trkpt lat="46.09925" lon="13.0746233"><ele>142.0</ele><time>2026-04-07T15:32:29.388Z</time></trkpt><trkpt lat="46.0993683" lon="13.07461"><ele>142.0</ele><time>2026-04-07T15:32:30.392Z</time></trkpt><trkpt lat="46.0994767" lon="13.0746"><ele>142.0</ele><time>2026-04-07T15:32:31.391Z</time></trkpt><trkpt lat="46.09958" lon="13.074595"><ele>142.0</ele><time>2026-04-07T15:32:32.391Z</time></trkpt><trkpt lat="46.0996583" lon="13.0745683"><ele>142.0</ele><time>2026-04-07T15:32:33.391Z</time></trkpt><trkpt lat="46.0997367" lon="13.0745567"><ele>142.0</ele><time>2026-04-07T15:32:34.39Z</time></trkpt><trkpt lat="46.0998183" lon="13.074475"><ele>142.0</ele><time>2026-04-07T15:32:36.388Z</time></trkpt><trkpt lat="46.0998267" lon="13.07435"><ele>142.0</ele><time>2026-04-07T15:32:38.389Z</time></trkpt><trkpt lat="46.0997617" lon="13.0742583"><ele>142.0</ele><time>2026-04-07T15:32:39.39Z</time></trkpt><trkpt lat="46.0997317" lon="13.0741567"><ele>142.0</ele><time>2026-04-07T15:32:40.388Z</time></trkpt><trkpt lat="46.0996833" lon="13.07404"><ele>142.0</ele><time>2026-04-07T15:32:41.39Z</time></trkpt><trkpt lat="46.09964" lon="13.0738967"><ele>142.0</ele><time>2026-04-07T15:32:42.39Z</time></trkpt><trkpt lat="46.0996133" lon="13.0737383"><ele>142.0</ele><time>2026-04-07T15:32:43.389Z</time></trkpt><trkpt lat="46.0995767" lon="13.0735833"><ele>141.79999999999998</ele><time>2026-04-07T15:32:44.389Z</time></trkpt><trkpt lat="46.099545" lon="13.0734333"><ele>141.6</ele><time>2026-04-07T15:32:45.389Z</time></trkpt><trkpt lat="46.0995083" lon="13.0732867"><ele>141.39999999999998</ele><time>2026-04-07T15:32:46.388Z</time></trkpt><trkpt lat="46.099465" lon="13.0731467"><ele>141.2</ele><time>2026-04-07T15:32:47.389Z</time></trkpt><trkpt lat="46.099405" lon="13.073015"><ele>141.0</ele><time>2026-04-07T15:32:48.389Z</time></trkpt><trkpt lat="46.0993567" lon="13.0728817"><ele>141.0</ele><time>2026-04-07T15:32:49.39Z</time></trkpt><trkpt lat="46.0993133" lon="13.0727483"><ele>141.0</ele><time>2026-04-07T15:32:50.389Z</time></trkpt><trkpt lat="46.0992617" lon="13.0726233"><ele>141.0</ele><time>2026-04-07T15:32:51.39Z</time></trkpt><trkpt lat="46.0992067" lon="13.0725017"><ele>141.0</ele><time>2026-04-07T15:32:52.388Z</time></trkpt><trkpt lat="46.0991467" lon="13.0723833"><ele>141.0</ele><time>2026-04-07T15:32:53.392Z</time></trkpt><trkpt lat="46.0990933" lon="13.0722583"><ele>141.0</ele><time>2026-04-07T15:32:54.392Z</time></trkpt><trkpt lat="46.099045" lon="13.0721267"><ele>141.0</ele><time>2026-04-07T15:32:55.391Z</time></trkpt><trkpt lat="46.0989767" lon="13.0720133"><ele>141.0</ele><time>2026-04-07T15:32:56.392Z</time></trkpt><trkpt lat="46.0989083" lon="13.07189"><ele>141.0</ele><time>2026-04-07T15:32:57.392Z</time></trkpt><trkpt lat="46.0988533" lon="13.0717683"><ele>141.0</ele><time>2026-04-07T15:32:58.39Z</time></trkpt><trkpt lat="46.0988017" lon="13.0716533"><ele>141.2</ele><time>2026-04-07T15:32:59.391Z</time></trkpt><trkpt lat="46.0987317" lon="13.0715467"><ele>141.39999999999998</ele><time>2026-04-07T15:33:00.388Z</time></trkpt><trkpt lat="46.098695" lon="13.07141"><ele>141.6</ele><time>2026-04-07T15:33:01.39Z</time></trkpt><trkpt lat="46.098655" lon="13.0712717"><ele>141.79999999999998</ele><time>2026-04-07T15:33:02.39Z</time></trkpt><trkpt lat="46.0986183" lon="13.0711317"><ele>142.0</ele><time>2026-04-07T15:33:03.392Z</time></trkpt><trkpt lat="46.0985767" lon="13.070995"><ele>142.0</ele><time>2026-04-07T15:33:04.39Z</time></trkpt><trkpt lat="46.0985483" lon="13.0708567"><ele>142.0</ele><time>2026-04-07T15:33:05.39Z</time></trkpt><trkpt lat="46.098505" lon="13.0707267"><ele>142.0</ele><time>2026-04-07T15:33:06.39Z</time></trkpt><trkpt lat="46.0984667" lon="13.0706"><ele>142.0</ele><time>2026-04-07T15:33:07.389Z</time></trkpt><trkpt lat="46.0984317" lon="13.0704767"><ele>142.0</ele><time>2026-04-07T15:33:08.389Z</time></trkpt><trkpt lat="46.0983867" lon="13.07035"><ele>141.79999999999998</ele><time>2026-04-07T15:33:09.39Z</time></trkpt><trkpt lat="46.0983333" lon="13.0702317"><ele>141.6</ele><time>2026-04-07T15:33:10.389Z</time></trkpt><trkpt lat="46.0983033" lon="13.0700967"><ele>141.39999999999998</ele><time>2026-04-07T15:33:11.392Z</time></trkpt><trkpt lat="46.098285" lon="13.0699567"><ele>141.2</ele><time>2026-04-07T15:33:12.392Z</time></trkpt><trkpt lat="46.0982567" lon="13.069815"><ele>141.0</ele><time>2026-04-07T15:33:13.389Z</time></trkpt><trkpt lat="46.0982217" lon="13.0696733"><ele>141.0</ele><time>2026-04-07T15:33:14.392Z</time></trkpt><trkpt lat="46.098195" lon="13.0695267"><ele>141.0</ele><time>2026-04-07T15:33:15.39Z</time></trkpt><trkpt lat="46.0981667" lon="13.0693767"><ele>141.0</ele><time>2026-04-07T15:33:16.388Z</time></trkpt><trkpt lat="46.098125" lon="13.0692333"><ele>141.0</ele><time>2026-04-07T15:33:17.389Z</time></trkpt><trkpt lat="46.0981183" lon="13.0690783"><ele>141.0</ele><time>2026-04-07T15:33:18.39Z</time></trkpt><trkpt lat="46.0980967" lon="13.0689317"><ele>141.0</ele><time>2026-04-07T15:33:19.392Z</time></trkpt><trkpt lat="46.0980567" lon="13.0687917"><ele>141.0</ele><time>2026-04-07T15:33:20.389Z</time></trkpt><trkpt lat="46.09803" lon="13.0686633"><ele>141.0</ele><time>2026-04-07T15:33:21.389Z</time></trkpt><trkpt lat="46.0980033" lon="13.068565"><ele>141.0</ele><time>2026-04-07T15:33:22.389Z</time></trkpt><trkpt lat="46.0979617" lon="13.0684133"><ele>141.0</ele><time>2026-04-07T15:33:24.393Z</time></trkpt><trkpt lat="46.09796" lon="13.0682983"><ele>141.0</ele><time>2026-04-07T15:33:26.389Z</time></trkpt><trkpt lat="46.0980567" lon="13.0682517"><ele>141.0</ele><time>2026-04-07T15:33:29.391Z</time></trkpt><trkpt lat="46.0981767" lon="13.068185"><ele>141.0</ele><time>2026-04-07T15:33:31.39Z</time></trkpt><trkpt lat="46.0982967" lon="13.0681483"><ele>141.0</ele><time>2026-04-07T15:33:32.391Z</time></trkpt><trkpt lat="46.0983983" lon="13.0680783"><ele>142.0</ele><time>2026-04-07T15:33:33.389Z</time></trkpt><trkpt lat="46.0984983" lon="13.06802"><ele>143.0</ele><time>2026-04-07T15:33:34.391Z</time></trkpt><trkpt lat="46.0986233" lon="13.0679883"><ele>144.0</ele><time>2026-04-07T15:33:35.391Z</time></trkpt><trkpt lat="46.0987417" lon="13.067955"><ele>145.0</ele><time>2026-04-07T15:33:36.388Z</time></trkpt><trkpt lat="46.09886" lon="13.0679083"><ele>145.0</ele><time>2026-04-07T15:33:37.392Z</time></trkpt><trkpt lat="46.098975" lon="13.0678467"><ele>145.0</ele><time>2026-04-07T15:33:38.389Z</time></trkpt><trkpt lat="46.0990917" lon="13.0678033"><ele>145.0</ele><time>2026-04-07T15:33:39.392Z</time></trkpt><trkpt lat="46.0992117" lon="13.06773"><ele>145.0</ele><time>2026-04-07T15:33:40.392Z</time></trkpt><trkpt lat="46.0993483" lon="13.0676567"><ele>144.8</ele><time>2026-04-07T15:33:41.39Z</time></trkpt><trkpt lat="46.099445" lon="13.0676317"><ele>144.6</ele><time>2026-04-07T15:33:42.39Z</time></trkpt><trkpt lat="46.0995533" lon="13.06757"><ele>144.4</ele><time>2026-04-07T15:33:43.392Z</time></trkpt><trkpt lat="46.0996833" lon="13.0674933"><ele>144.2</ele><time>2026-04-07T15:33:44.392Z</time></trkpt><trkpt lat="46.0997617" lon="13.06748"><ele>144.0</ele><time>2026-04-07T15:33:45.39Z</time></trkpt><trkpt lat="46.0998517" lon="13.0674633"><ele>144.0</ele><time>2026-04-07T15:33:46.392Z</time></trkpt><trkpt lat="46.0999567" lon="13.0673833"><ele>144.0</ele><time>2026-04-07T15:33:47.389Z</time></trkpt><trkpt lat="46.100055" lon="13.0673233"><ele>144.0</ele><time>2026-04-07T15:33:48.389Z</time></trkpt><trkpt lat="46.1001567" lon="13.067315"><ele>144.0</ele><time>2026-04-07T15:33:49.39Z</time></trkpt><trkpt lat="46.1002633" lon="13.0672433"><ele>144.0</ele><time>2026-04-07T15:33:50.389Z</time></trkpt><trkpt lat="46.1003733" lon="13.0671917"><ele>144.0</ele><time>2026-04-07T15:33:51.389Z</time></trkpt><trkpt lat="46.1004933" lon="13.067145"><ele>144.0</ele><time>2026-04-07T15:33:52.389Z</time></trkpt><trkpt lat="46.100605" lon="13.0670617"><ele>144.0</ele><time>2026-04-07T15:33:53.39Z</time></trkpt><trkpt lat="46.10072" lon="13.0670183"><ele>144.0</ele><time>2026-04-07T15:33:54.39Z</time></trkpt><trkpt lat="46.100835" lon="13.0669683"><ele>144.25</ele><time>2026-04-07T15:33:55.391Z</time></trkpt><trkpt lat="46.10095" lon="13.0669083"><ele>144.5</ele><time>2026-04-07T15:33:56.389Z</time></trkpt><trkpt lat="46.10106" lon="13.066845"><ele>144.75</ele><time>2026-04-07T15:33:57.392Z</time></trkpt><trkpt lat="46.10117" lon="13.066795"><ele>145.0</ele><time>2026-04-07T15:33:58.39Z</time></trkpt><trkpt lat="46.1012867" lon="13.0667583"><ele>145.0</ele><time>2026-04-07T15:33:59.391Z</time></trkpt><trkpt lat="46.101425" lon="13.0667067"><ele>145.0</ele><time>2026-04-07T15:34:00.391Z</time></trkpt><trkpt lat="46.1015267" lon="13.066685"><ele>145.0</ele><time>2026-04-07T15:34:01.392Z</time></trkpt><trkpt lat="46.1016583" lon="13.0665933"><ele>145.0</ele><time>2026-04-07T15:34:02.392Z</time></trkpt><trkpt lat="46.10179" lon="13.0665233"><ele>145.5</ele><time>2026-04-07T15:34:03.39Z</time></trkpt><trkpt lat="46.1019467" lon="13.0665017"><ele>146.0</ele><time>2026-04-07T15:34:04.389Z</time></trkpt><trkpt lat="46.1020633" lon="13.0664367"><ele>146.5</ele><time>2026-04-07T15:34:05.392Z</time></trkpt><trkpt lat="46.1021767" lon="13.066385"><ele>147.0</ele><time>2026-04-07T15:34:06.393Z</time></trkpt><trkpt lat="46.1022883" lon="13.0663383"><ele>146.75</ele><time>2026-04-07T15:34:07.392Z</time></trkpt><trkpt lat="46.10243" lon="13.0662717"><ele>146.5</ele><time>2026-04-07T15:34:08.392Z</time></trkpt><trkpt lat="46.102505" lon="13.0662417"><ele>146.25</ele><time>2026-04-07T15:34:09.391Z</time></trkpt><trkpt lat="46.1026433" lon="13.0661967"><ele>146.0</ele><time>2026-04-07T15:34:10.388Z</time></trkpt><trkpt lat="46.10277" lon="13.066155"><ele>146.0</ele><time>2026-04-07T15:34:11.389Z</time></trkpt><trkpt lat="46.1029" lon="13.0661183"><ele>146.0</ele><time>2026-04-07T15:34:12.39Z</time></trkpt><trkpt lat="46.10302" lon="13.0660867"><ele>146.0</ele><time>2026-04-07T15:34:13.39Z</time></trkpt><trkpt lat="46.1031433" lon="13.0660383"><ele>146.0</ele><time>2026-04-07T15:34:14.389Z</time></trkpt><trkpt lat="46.10326" lon="13.0659817"><ele>146.0</ele><time>2026-04-07T15:34:15.389Z</time></trkpt><trkpt lat="46.1033783" lon="13.0659333"><ele>146.0</ele><time>2026-04-07T15:34:16.389Z</time></trkpt><trkpt lat="46.1034883" lon="13.0658733"><ele>146.0</ele><time>2026-04-07T15:34:17.389Z</time></trkpt><trkpt lat="46.1035883" lon="13.0658467"><ele>146.0</ele><time>2026-04-07T15:34:18.389Z</time></trkpt><trkpt lat="46.1036867" lon="13.065785"><ele>146.5</ele><time>2026-04-07T15:34:19.39Z</time></trkpt><trkpt lat="46.103795" lon="13.0657283"><ele>147.0</ele><time>2026-04-07T15:34:20.389Z</time></trkpt><trkpt lat="46.1039383" lon="13.06564"><ele>147.5</ele><time>2026-04-07T15:34:21.39Z</time></trkpt><trkpt lat="46.1040817" lon="13.0655283"><ele>148.0</ele><time>2026-04-07T15:34:22.39Z</time></trkpt><trkpt lat="46.1042317" lon="13.0654633"><ele>149.0</ele><time>2026-04-07T15:34:23.39Z</time></trkpt><trkpt lat="46.1043767" lon="13.0653633"><ele>150.0</ele><time>2026-04-07T15:34:24.39Z</time></trkpt><trkpt lat="46.10452" lon="13.06528"><ele>151.0</ele><time>2026-04-07T15:34:25.39Z</time></trkpt><trkpt lat="46.1046567" lon="13.06522"><ele>151.0</ele><time>2026-04-07T15:34:26.393Z</time></trkpt><trkpt lat="46.10479" lon="13.0651333"><ele>151.0</ele><time>2026-04-07T15:34:27.39Z</time></trkpt><trkpt lat="46.1049383" lon="13.0650767"><ele>151.0</ele><time>2026-04-07T15:34:28.392Z</time></trkpt><trkpt lat="46.105085" lon="13.065005"><ele>151.33333333333334</ele><time>2026-04-07T15:34:29.39Z</time></trkpt><trkpt lat="46.1052383" lon="13.0649533"><ele>151.66666666666666</ele><time>2026-04-07T15:34:30.392Z</time></trkpt><trkpt lat="46.1053817" lon="13.0648817"><ele>152.0</ele><time>2026-04-07T15:34:31.391Z</time></trkpt><trkpt lat="46.1055233" lon="13.064805"><ele>152.0</ele><time>2026-04-07T15:34:32.391Z</time></trkpt><trkpt lat="46.10567" lon="13.0647683"><ele>152.0</ele><time>2026-04-07T15:34:33.39Z</time></trkpt><trkpt lat="46.1058117" lon="13.0647133"><ele>152.0</ele><time>2026-04-07T15:34:34.393Z</time></trkpt><trkpt lat="46.1059467" lon="13.0646867"><ele>152.0</ele><time>2026-04-07T15:34:35.392Z</time></trkpt><trkpt lat="46.1060717" lon="13.0646533"><ele>152.0</ele><time>2026-04-07T15:34:36.392Z</time></trkpt><trkpt lat="46.106185" lon="13.0645833"><ele>152.0</ele><time>2026-04-07T15:34:37.389Z</time></trkpt><trkpt lat="46.10631" lon="13.0644783"><ele>152.0</ele><time>2026-04-07T15:34:38.39Z</time></trkpt><trkpt lat="46.1064467" lon="13.0644533"><ele>152.0</ele><time>2026-04-07T15:34:39.39Z</time></trkpt><trkpt lat="46.106575" lon="13.0643867"><ele>152.25</ele><time>2026-04-07T15:34:40.391Z</time></trkpt><trkpt lat="46.106705" lon="13.06433"><ele>152.5</ele><time>2026-04-07T15:34:41.39Z</time></trkpt><trkpt lat="46.10684" lon="13.06432"><ele>152.75</ele><time>2026-04-07T15:34:42.39Z</time></trkpt><trkpt lat="46.1069733" lon="13.0643233"><ele>153.0</ele><time>2026-04-07T15:34:43.389Z</time></trkpt><trkpt lat="46.1071067" lon="13.0643317"><ele>153.0</ele><time>2026-04-07T15:34:44.389Z</time></trkpt><trkpt lat="46.1072383" lon="13.0643817"><ele>153.0</ele><time>2026-04-07T15:34:45.39Z</time></trkpt><trkpt lat="46.107365" lon="13.06442"><ele>153.0</ele><time>2026-04-07T15:34:46.394Z</time></trkpt><trkpt lat="46.107495" lon="13.0643867"><ele>153.0</ele><time>2026-04-07T15:34:47.39Z</time></trkpt><trkpt lat="46.107625" lon="13.0643333"><ele>153.25</ele><time>2026-04-07T15:34:48.391Z</time></trkpt><trkpt lat="46.107745" lon="13.064245"><ele>153.5</ele><time>2026-04-07T15:34:49.391Z</time></trkpt><trkpt lat="46.1078583" lon="13.0642333"><ele>153.75</ele><time>2026-04-07T15:34:50.389Z</time></trkpt><trkpt lat="46.1079533" lon="13.064165"><ele>154.0</ele><time>2026-04-07T15:34:51.39Z</time></trkpt><trkpt lat="46.1080567" lon="13.064125"><ele>153.8</ele><time>2026-04-07T15:34:52.39Z</time></trkpt><trkpt lat="46.1081267" lon="13.0640433"><ele>153.60000000000002</ele><time>2026-04-07T15:34:53.39Z</time></trkpt><trkpt lat="46.1081933" lon="13.063995"><ele>153.4</ele><time>2026-04-07T15:34:54.392Z</time></trkpt><trkpt lat="46.1082767" lon="13.0639133"><ele>153.20000000000002</ele><time>2026-04-07T15:34:56.389Z</time></trkpt><trkpt lat="46.1083433" lon="13.064045"><ele>153.0</ele><time>2026-04-07T15:35:14.392Z</time></trkpt><trkpt lat="46.1083383" lon="13.0641717"><ele>153.75</ele><time>2026-04-07T15:35:15.392Z</time></trkpt><trkpt lat="46.1083417" lon="13.0643217"><ele>154.5</ele><time>2026-04-07T15:35:16.391Z</time></trkpt><trkpt lat="46.108355" lon="13.064495"><ele>155.25</ele><time>2026-04-07T15:35:17.389Z</time></trkpt><trkpt lat="46.1083683" lon="13.0646883"><ele>156.0</ele><time>2026-04-07T15:35:18.389Z</time></trkpt><trkpt lat="46.1083833" lon="13.0648917"><ele>155.75</ele><time>2026-04-07T15:35:19.39Z</time></trkpt><trkpt lat="46.108405" lon="13.065105"><ele>155.5</ele><time>2026-04-07T15:35:20.388Z</time></trkpt><trkpt lat="46.1084217" lon="13.0653183"><ele>155.25</ele><time>2026-04-07T15:35:21.389Z</time></trkpt><trkpt lat="46.108445" lon="13.065525"><ele>155.0</ele><time>2026-04-07T15:35:22.388Z</time></trkpt><trkpt lat="46.108485" lon="13.06571"><ele>155.4</ele><time>2026-04-07T15:35:23.389Z</time></trkpt><trkpt lat="46.1084967" lon="13.065875"><ele>155.8</ele><time>2026-04-07T15:35:24.392Z</time></trkpt><trkpt lat="46.1085083" lon="13.0660033"><ele>156.2</ele><time>2026-04-07T15:35:25.39Z</time></trkpt><trkpt lat="46.1085333" lon="13.066095"><ele>156.6</ele><time>2026-04-07T15:35:26.39Z</time></trkpt><trkpt lat="46.108625" lon="13.0661483"><ele>157.0</ele><time>2026-04-07T15:35:28.391Z</time></trkpt><trkpt lat="46.108695" lon="13.0660983"><ele>157.0</ele><time>2026-04-07T15:35:29.392Z</time></trkpt><trkpt lat="46.10879" lon="13.0660067"><ele>157.0</ele><time>2026-04-07T15:35:30.389Z</time></trkpt><trkpt lat="46.1088883" lon="13.0659533"><ele>157.0</ele><time>2026-04-07T15:35:31.392Z</time></trkpt><trkpt lat="46.1090167" lon="13.0659033"><ele>157.0</ele><time>2026-04-07T15:35:32.391Z</time></trkpt><trkpt lat="46.1091667" lon="13.0658583"><ele>157.0</ele><time>2026-04-07T15:35:33.391Z</time></trkpt><trkpt lat="46.109325" lon="13.06582"><ele>157.0</ele><time>2026-04-07T15:35:34.39Z</time></trkpt><trkpt lat="46.109485" lon="13.0657583"><ele>157.0</ele><time>2026-04-07T15:35:35.391Z</time></trkpt><trkpt lat="46.1096467" lon="13.06572"><ele>157.0</ele><time>2026-04-07T15:35:36.39Z</time></trkpt><trkpt lat="46.1098167" lon="13.0656833"><ele>157.0</ele><time>2026-04-07T15:35:37.391Z</time></trkpt><trkpt lat="46.11" lon="13.0656133"><ele>157.0</ele><time>2026-04-07T15:35:38.391Z</time></trkpt><trkpt lat="46.110185" lon="13.0655"><ele>157.33333333333334</ele><time>2026-04-07T15:35:39.392Z</time></trkpt><trkpt lat="46.110385" lon="13.0654267"><ele>157.66666666666666</ele><time>2026-04-07T15:35:40.39Z</time></trkpt><trkpt lat="46.11058" lon="13.0653467"><ele>158.0</ele><time>2026-04-07T15:35:41.392Z</time></trkpt><trkpt lat="46.1107667" lon="13.0652467"><ele>158.0</ele><time>2026-04-07T15:35:42.392Z</time></trkpt><trkpt lat="46.1109517" lon="13.0651717"><ele>158.0</ele><time>2026-04-07T15:35:43.392Z</time></trkpt><trkpt lat="46.1111283" lon="13.0650667"><ele>158.0</ele><time>2026-04-07T15:35:44.391Z</time></trkpt><trkpt lat="46.111305" lon="13.0649867"><ele>158.0</ele><time>2026-04-07T15:35:45.391Z</time></trkpt><trkpt lat="46.1114833" lon="13.0649083"><ele>158.0</ele><time>2026-04-07T15:35:46.391Z</time></trkpt><trkpt lat="46.1116583" lon="13.0648317"><ele>158.0</ele><time>2026-04-07T15:35:47.392Z</time></trkpt><trkpt lat="46.1118317" lon="13.06476"><ele>158.66666666666666</ele><time>2026-04-07T15:35:48.392Z</time></trkpt><trkpt lat="46.1120117" lon="13.0647033"><ele>159.33333333333334</ele><time>2026-04-07T15:35:49.391Z</time></trkpt><trkpt lat="46.1121883" lon="13.064655"><ele>160.0</ele><time>2026-04-07T15:35:50.39Z</time></trkpt><trkpt lat="46.1123517" lon="13.06461"><ele>160.0</ele><time>2026-04-07T15:35:51.392Z</time></trkpt><trkpt lat="46.1125" lon="13.0645817"><ele>160.0</ele><time>2026-04-07T15:35:52.392Z</time></trkpt><trkpt lat="46.1126383" lon="13.0645967"><ele>160.0</ele><time>2026-04-07T15:35:53.391Z</time></trkpt><trkpt lat="46.112765" lon="13.0646083"><ele>160.0</ele><time>2026-04-07T15:35:54.391Z</time></trkpt><trkpt lat="46.1128833" lon="13.0646333"><ele>160.0</ele><time>2026-04-07T15:35:55.391Z</time></trkpt><trkpt lat="46.1129867" lon="13.0646267"><ele>160.0</ele><time>2026-04-07T15:35:56.392Z</time></trkpt><trkpt lat="46.1130767" lon="13.0645833"><ele>160.0</ele><time>2026-04-07T15:35:57.391Z</time></trkpt><trkpt lat="46.1131517" lon="13.0645033"><ele>160.0</ele><time>2026-04-07T15:35:58.391Z</time></trkpt><trkpt lat="46.113205" lon="13.0643933"><ele>160.0</ele><time>2026-04-07T15:35:59.392Z</time></trkpt><trkpt lat="46.1132483" lon="13.0642833"><ele>160.4</ele><time>2026-04-07T15:36:00.389Z</time></trkpt><trkpt lat="46.1133183" lon="13.06416"><ele>160.8</ele><time>2026-04-07T15:36:02.389Z</time></trkpt><trkpt lat="46.11328" lon="13.06401"><ele>161.2</ele><time>2026-04-07T15:36:04.392Z</time></trkpt><trkpt lat="46.1132283" lon="13.063905"><ele>161.6</ele><time>2026-04-07T15:36:05.388Z</time></trkpt><trkpt lat="46.113215" lon="13.0637617"><ele>162.0</ele><time>2026-04-07T15:36:06.392Z</time></trkpt><trkpt lat="46.11317" lon="13.0636117"><ele>161.0</ele><time>2026-04-07T15:36:07.391Z</time></trkpt><trkpt lat="46.1130983" lon="13.06348"><ele>160.0</ele><time>2026-04-07T15:36:08.391Z</time></trkpt><trkpt lat="46.113015" lon="13.063345"><ele>159.0</ele><time>2026-04-07T15:36:09.392Z</time></trkpt><trkpt lat="46.112915" lon="13.06324"><ele>158.0</ele><time>2026-04-07T15:36:10.392Z</time></trkpt><trkpt lat="46.1128467" lon="13.0631283"><ele>158.0</ele><time>2026-04-07T15:36:11.392Z</time></trkpt><trkpt lat="46.1128" lon="13.062985"><ele>158.0</ele><time>2026-04-07T15:36:12.392Z</time></trkpt><trkpt lat="46.1127683" lon="13.0628467"><ele>158.0</ele><time>2026-04-07T15:36:13.391Z</time></trkpt><trkpt lat="46.112735" lon="13.06271"><ele>158.0</ele><time>2026-04-07T15:36:14.391Z</time></trkpt><trkpt lat="46.1127283" lon="13.0625633"><ele>158.0</ele><time>2026-04-07T15:36:15.391Z</time></trkpt><trkpt lat="46.1126617" lon="13.062525"><ele>158.0</ele><time>2026-04-07T15:36:16.392Z</time></trkpt><trkpt lat="46.1126917" lon="13.0623617"><ele>158.0</ele><time>2026-04-07T15:36:17.391Z</time></trkpt><trkpt lat="46.1126767" lon="13.0622017"><ele>158.0</ele><time>2026-04-07T15:36:18.391Z</time></trkpt><trkpt lat="46.1126583" lon="13.062055"><ele>158.0</ele><time>2026-04-07T15:36:19.39Z</time></trkpt><trkpt lat="46.112585" lon="13.061955"><ele>158.0</ele><time>2026-04-07T15:36:20.391Z</time></trkpt><trkpt lat="46.1125667" lon="13.061845"><ele>158.0</ele><time>2026-04-07T15:36:21.388Z</time></trkpt><trkpt lat="46.1125417" lon="13.0617417"><ele>158.0</ele><time>2026-04-07T15:36:22.389Z</time></trkpt><trkpt lat="46.112495" lon="13.0616717"><ele>158.0</ele><time>2026-04-07T15:36:23.392Z</time></trkpt><trkpt lat="46.112425" lon="13.061625"><ele>158.0</ele><time>2026-04-07T15:36:25.393Z</time></trkpt><trkpt lat="46.1123617" lon="13.0616283"><ele>158.0</ele><time>2026-04-07T15:36:26.392Z</time></trkpt><trkpt lat="46.1122783" lon="13.0616533"><ele>158.0</ele><time>2026-04-07T15:36:27.39Z</time></trkpt><trkpt lat="46.1121933" lon="13.0616817"><ele>158.0</ele><time>2026-04-07T15:36:28.391Z</time></trkpt><trkpt lat="46.1120983" lon="13.0617383"><ele>158.0</ele><time>2026-04-07T15:36:29.39Z</time></trkpt><trkpt lat="46.1120033" lon="13.0617967"><ele>158.0</ele><time>2026-04-07T15:36:30.392Z</time></trkpt><trkpt lat="46.1119133" lon="13.0618417"><ele>158.0</ele><time>2026-04-07T15:36:31.391Z</time></trkpt><trkpt lat="46.1118367" lon="13.06189"><ele>158.0</ele><time>2026-04-07T15:36:32.391Z</time></trkpt><trkpt lat="46.1117733" lon="13.0618967"><ele>158.0</ele><time>2026-04-07T15:36:33.391Z</time></trkpt><trkpt lat="46.111715" lon="13.06185"><ele>158.0</ele><time>2026-04-07T15:36:34.391Z</time></trkpt><trkpt lat="46.1116683" lon="13.06176"><ele>158.0</ele><time>2026-04-07T15:36:35.391Z</time></trkpt><trkpt lat="46.11162" lon="13.0616783"><ele>158.0</ele><time>2026-04-07T15:36:36.391Z</time></trkpt><trkpt lat="46.111555" lon="13.0615767"><ele>158.0</ele><time>2026-04-07T15:36:37.391Z</time></trkpt><trkpt lat="46.1114917" lon="13.0614567"><ele>158.0</ele><time>2026-04-07T15:36:38.391Z</time></trkpt><trkpt lat="46.1114283" lon="13.0613417"><ele>157.75</ele><time>2026-04-07T15:36:39.39Z</time></trkpt><trkpt lat="46.1113533" lon="13.0612367"><ele>157.5</ele><time>2026-04-07T15:36:40.391Z</time></trkpt><trkpt lat="46.111275" lon="13.06112"><ele>157.25</ele><time>2026-04-07T15:36:41.391Z</time></trkpt><trkpt lat="46.111215" lon="13.060975"><ele>157.0</ele><time>2026-04-07T15:36:42.392Z</time></trkpt><trkpt lat="46.1111517" lon="13.0608317"><ele>156.5</ele><time>2026-04-07T15:36:43.392Z</time></trkpt><trkpt lat="46.11106" lon="13.0607217"><ele>156.0</ele><time>2026-04-07T15:36:44.391Z</time></trkpt><trkpt lat="46.1109667" lon="13.060615"><ele>155.5</ele><time>2026-04-07T15:36:45.391Z</time></trkpt><trkpt lat="46.1108817" lon="13.0604917"><ele>155.0</ele><time>2026-04-07T15:36:46.392Z</time></trkpt><trkpt lat="46.1108017" lon="13.0603817"><ele>155.0</ele><time>2026-04-07T15:36:47.391Z</time></trkpt><trkpt lat="46.1107383" lon="13.0602567"><ele>155.0</ele><time>2026-04-07T15:36:48.391Z</time></trkpt><trkpt lat="46.1107067" lon="13.0601067"><ele>155.0</ele><time>2026-04-07T15:36:49.392Z</time></trkpt><trkpt lat="46.110685" lon="13.0599383"><ele>155.0</ele><time>2026-04-07T15:36:50.392Z</time></trkpt><trkpt lat="46.1106533" lon="13.0597683"><ele>154.75</ele><time>2026-04-07T15:36:51.392Z</time></trkpt><trkpt lat="46.1106317" lon="13.05959"><ele>154.5</ele><time>2026-04-07T15:36:52.388Z</time></trkpt><trkpt lat="46.1106033" lon="13.0594183"><ele>154.25</ele><time>2026-04-07T15:36:53.39Z</time></trkpt><trkpt lat="46.1105783" lon="13.059255"><ele>154.0</ele><time>2026-04-07T15:36:54.392Z</time></trkpt><trkpt lat="46.1105367" lon="13.059105"><ele>153.66666666666669</ele><time>2026-04-07T15:36:55.391Z</time></trkpt><trkpt lat="46.1104817" lon="13.05897"><ele>153.33333333333334</ele><time>2026-04-07T15:36:56.391Z</time></trkpt><trkpt lat="46.1104683" lon="13.0588383"><ele>153.0</ele><time>2026-04-07T15:36:57.392Z</time></trkpt><trkpt lat="46.1104667" lon="13.05872"><ele>152.66666666666666</ele><time>2026-04-07T15:36:58.392Z</time></trkpt><trkpt lat="46.1104783" lon="13.0586083"><ele>152.33333333333331</ele><time>2026-04-07T15:36:59.392Z</time></trkpt><trkpt lat="46.1104983" lon="13.0585033"><ele>152.0</ele><time>2026-04-07T15:37:00.391Z</time></trkpt><trkpt lat="46.1105367" lon="13.058405"><ele>152.0</ele><time>2026-04-07T15:37:01.391Z</time></trkpt><trkpt lat="46.1106017" lon="13.0583133"><ele>152.0</ele><time>2026-04-07T15:37:02.391Z</time></trkpt><trkpt lat="46.1106567" lon="13.0582033"><ele>152.0</ele><time>2026-04-07T15:37:03.393Z</time></trkpt><trkpt lat="46.1107117" lon="13.0580867"><ele>152.0</ele><time>2026-04-07T15:37:04.392Z</time></trkpt><trkpt lat="46.1107867" lon="13.058015"><ele>152.0</ele><time>2026-04-07T15:37:05.391Z</time></trkpt><trkpt lat="46.11089" lon="13.0579783"><ele>152.0</ele><time>2026-04-07T15:37:06.392Z</time></trkpt><trkpt lat="46.1110033" lon="13.0579567"><ele>152.0</ele><time>2026-04-07T15:37:07.392Z</time></trkpt><trkpt lat="46.1111067" lon="13.0578867"><ele>152.0</ele><time>2026-04-07T15:37:08.392Z</time></trkpt><trkpt lat="46.1112533" lon="13.0578417"><ele>152.0</ele><time>2026-04-07T15:37:09.392Z</time></trkpt><trkpt lat="46.1113667" lon="13.057785"><ele>152.0</ele><time>2026-04-07T15:37:10.392Z</time></trkpt><trkpt lat="46.1114983" lon="13.05774"><ele>152.0</ele><time>2026-04-07T15:37:11.392Z</time></trkpt><trkpt lat="46.111635" lon="13.05767"><ele>152.0</ele><time>2026-04-07T15:37:12.392Z</time></trkpt><trkpt lat="46.11176" lon="13.0576083"><ele>152.0</ele><time>2026-04-07T15:37:13.391Z</time></trkpt><trkpt lat="46.11188" lon="13.0575533"><ele>152.0</ele><time>2026-04-07T15:37:14.392Z</time></trkpt><trkpt lat="46.1119833" lon="13.057525"><ele>152.0</ele><time>2026-04-07T15:37:15.392Z</time></trkpt><trkpt lat="46.112025" lon="13.0573867"><ele>152.0</ele><time>2026-04-07T15:37:17.39Z</time></trkpt><trkpt lat="46.1119767" lon="13.0573183"><ele>152.0</ele><time>2026-04-07T15:37:19.39Z</time></trkpt><trkpt lat="46.1119383" lon="13.0572117"><ele>152.0</ele><time>2026-04-07T15:37:20.39Z</time></trkpt><trkpt lat="46.1119017" lon="13.0570917"><ele>152.0</ele><time>2026-04-07T15:37:21.389Z</time></trkpt><trkpt lat="46.1118783" lon="13.0569583"><ele>152.0</ele><time>2026-04-07T15:37:22.389Z</time></trkpt><trkpt lat="46.1118317" lon="13.056805"><ele>152.0</ele><time>2026-04-07T15:37:23.389Z</time></trkpt><trkpt lat="46.1117967" lon="13.0566533"><ele>152.0</ele><time>2026-04-07T15:37:24.392Z</time></trkpt><trkpt lat="46.111745" lon="13.0565"><ele>152.0</ele><time>2026-04-07T15:37:25.391Z</time></trkpt><trkpt lat="46.1116933" lon="13.05634"><ele>152.25</ele><time>2026-04-07T15:37:26.391Z</time></trkpt><trkpt lat="46.1116417" lon="13.0561717"><ele>152.5</ele><time>2026-04-07T15:37:27.392Z</time></trkpt><trkpt lat="46.1115967" lon="13.0560117"><ele>152.75</ele><time>2026-04-07T15:37:28.392Z</time></trkpt><trkpt lat="46.1115517" lon="13.0558517"><ele>153.0</ele><time>2026-04-07T15:37:29.392Z</time></trkpt><trkpt lat="46.11151" lon="13.0557083"><ele>153.16666666666666</ele><time>2026-04-07T15:37:30.391Z</time></trkpt><trkpt lat="46.1114733" lon="13.055585"><ele>153.33333333333334</ele><time>2026-04-07T15:37:31.391Z</time></trkpt><trkpt lat="46.1114433" lon="13.05548"><ele>153.5</ele><time>2026-04-07T15:37:32.391Z</time></trkpt><trkpt lat="46.111425" lon="13.0553633"><ele>153.66666666666669</ele><time>2026-04-07T15:37:34.392Z</time></trkpt><trkpt lat="46.1114967" lon="13.055325"><ele>153.83333333333334</ele><time>2026-04-07T15:37:36.391Z</time></trkpt><trkpt lat="46.1115867" lon="13.055305"><ele>154.0</ele><time>2026-04-07T15:37:37.392Z</time></trkpt><trkpt lat="46.1116583" lon="13.05524"><ele>154.2</ele><time>2026-04-07T15:37:38.391Z</time></trkpt><trkpt lat="46.11175" lon="13.0552067"><ele>154.4</ele><time>2026-04-07T15:37:39.389Z</time></trkpt><trkpt lat="46.1118583" lon="13.0551783"><ele>154.6</ele><time>2026-04-07T15:37:40.391Z</time></trkpt><trkpt lat="46.11196" lon="13.0551183"><ele>154.8</ele><time>2026-04-07T15:37:41.392Z</time></trkpt><trkpt lat="46.11207" lon="13.0550933"><ele>155.0</ele><time>2026-04-07T15:37:42.391Z</time></trkpt><trkpt lat="46.112175" lon="13.05504"><ele>155.0</ele><time>2026-04-07T15:37:43.391Z</time></trkpt><trkpt lat="46.1122833" lon="13.0549933"><ele>155.0</ele><time>2026-04-07T15:37:44.392Z</time></trkpt><trkpt lat="46.11239" lon="13.0549433"><ele>155.0</ele><time>2026-04-07T15:37:45.391Z</time></trkpt><trkpt lat="46.1125017" lon="13.0549033"><ele>155.0</ele><time>2026-04-07T15:37:46.391Z</time></trkpt><trkpt lat="46.1126133" lon="13.05485"><ele>154.8</ele><time>2026-04-07T15:37:47.392Z</time></trkpt><trkpt lat="46.1127233" lon="13.05481"><ele>154.6</ele><time>2026-04-07T15:37:48.391Z</time></trkpt><trkpt lat="46.1128283" lon="13.0547717"><ele>154.4</ele><time>2026-04-07T15:37:49.391Z</time></trkpt><trkpt lat="46.11293" lon="13.05473"><ele>154.2</ele><time>2026-04-07T15:37:50.393Z</time></trkpt><trkpt lat="46.1130233" lon="13.0546917"><ele>154.0</ele><time>2026-04-07T15:37:51.392Z</time></trkpt><trkpt lat="46.113105" lon="13.0546633"><ele>154.0</ele><time>2026-04-07T15:37:52.393Z</time></trkpt><trkpt lat="46.1131817" lon="13.0546533"><ele>154.0</ele><time>2026-04-07T15:37:53.391Z</time></trkpt><trkpt lat="46.113255" lon="13.0546267"><ele>154.0</ele><time>2026-04-07T15:37:54.392Z</time></trkpt><trkpt lat="46.113325" lon="13.0546167"><ele>154.0</ele><time>2026-04-07T15:37:55.391Z</time></trkpt><trkpt lat="46.1133917" lon="13.0546133"><ele>154.0</ele><time>2026-04-07T15:37:56.392Z</time></trkpt><trkpt lat="46.1134567" lon="13.0546383"><ele>154.0</ele><time>2026-04-07T15:37:57.389Z</time></trkpt><trkpt lat="46.1135517" lon="13.0547283"><ele>154.6</ele><time>2026-04-07T15:37:59.391Z</time></trkpt><trkpt lat="46.1136217" lon="13.0548317"><ele>155.2</ele><time>2026-04-07T15:38:01.391Z</time></trkpt><trkpt lat="46.11366" lon="13.054755"><ele>155.79999999999998</ele><time>2026-04-07T15:38:05.389Z</time></trkpt><trkpt lat="46.1136067" lon="13.054535"><ele>156.4</ele><time>2026-04-07T15:38:07.39Z</time></trkpt><trkpt lat="46.1135717" lon="13.0543933"><ele>157.0</ele><time>2026-04-07T15:38:08.392Z</time></trkpt><trkpt lat="46.1135317" lon="13.05423"><ele>156.75</ele><time>2026-04-07T15:38:09.391Z</time></trkpt><trkpt lat="46.1134883" lon="13.0540483"><ele>156.5</ele><time>2026-04-07T15:38:10.392Z</time></trkpt><trkpt lat="46.1134517" lon="13.053855"><ele>156.25</ele><time>2026-04-07T15:38:11.392Z</time></trkpt><trkpt lat="46.1134183" lon="13.053665"><ele>156.0</ele><time>2026-04-07T15:38:12.393Z</time></trkpt><trkpt lat="46.1133867" lon="13.0534833"><ele>156.0</ele><time>2026-04-07T15:38:13.389Z</time></trkpt><trkpt lat="46.1133583" lon="13.0533017"><ele>156.0</ele><time>2026-04-07T15:38:14.39Z</time></trkpt><trkpt lat="46.1133467" lon="13.0531183"><ele>156.0</ele><time>2026-04-07T15:38:15.39Z</time></trkpt><trkpt lat="46.1133533" lon="13.052935"><ele>156.0</ele><time>2026-04-07T15:38:16.391Z</time></trkpt><trkpt lat="46.1133767" lon="13.0527483"><ele>155.75</ele><time>2026-04-07T15:38:17.392Z</time></trkpt><trkpt lat="46.11341" lon="13.0525633"><ele>155.5</ele><time>2026-04-07T15:38:18.389Z</time></trkpt><trkpt lat="46.1134517" lon="13.0523833"><ele>155.25</ele><time>2026-04-07T15:38:19.392Z</time></trkpt><trkpt lat="46.113505" lon="13.0522033"><ele>155.0</ele><time>2026-04-07T15:38:20.392Z</time></trkpt><trkpt lat="46.1135617" lon="13.052035"><ele>155.0</ele><time>2026-04-07T15:38:21.393Z</time></trkpt><trkpt lat="46.1136233" lon="13.051885"><ele>155.0</ele><time>2026-04-07T15:38:22.39Z</time></trkpt><trkpt lat="46.1136867" lon="13.051755"><ele>155.0</ele><time>2026-04-07T15:38:23.392Z</time></trkpt><trkpt lat="46.1137567" lon="13.0516517"><ele>155.0</ele><time>2026-04-07T15:38:24.393Z</time></trkpt><trkpt lat="46.1138383" lon="13.05157"><ele>155.0</ele><time>2026-04-07T15:38:25.393Z</time></trkpt><trkpt lat="46.1139367" lon="13.0515"><ele>155.0</ele><time>2026-04-07T15:38:26.393Z</time></trkpt><trkpt lat="46.1140433" lon="13.051435"><ele>155.0</ele><time>2026-04-07T15:38:27.389Z</time></trkpt><trkpt lat="46.11416" lon="13.0513717"><ele>155.0</ele><time>2026-04-07T15:38:28.391Z</time></trkpt><trkpt lat="46.1142817" lon="13.0513183"><ele>155.0</ele><time>2026-04-07T15:38:29.393Z</time></trkpt><trkpt lat="46.1144067" lon="13.05126"><ele>155.75</ele><time>2026-04-07T15:38:30.393Z</time></trkpt><trkpt lat="46.1145267" lon="13.0511833"><ele>156.5</ele><time>2026-04-07T15:38:31.392Z</time></trkpt><trkpt lat="46.1146567" lon="13.0511217"><ele>157.25</ele><time>2026-04-07T15:38:32.39Z</time></trkpt><trkpt lat="46.11478" lon="13.0510467"><ele>158.0</ele><time>2026-04-07T15:38:33.392Z</time></trkpt><trkpt lat="46.114915" lon="13.0509733"><ele>158.0</ele><time>2026-04-07T15:38:34.394Z</time></trkpt><trkpt lat="46.1150483" lon="13.0509033"><ele>158.0</ele><time>2026-04-07T15:38:35.389Z</time></trkpt><trkpt lat="46.1151833" lon="13.0508283"><ele>158.0</ele><time>2026-04-07T15:38:36.389Z</time></trkpt><trkpt lat="46.1153217" lon="13.0507533"><ele>158.0</ele><time>2026-04-07T15:38:37.392Z</time></trkpt><trkpt lat="46.1154583" lon="13.0506717"><ele>158.0</ele><time>2026-04-07T15:38:38.394Z</time></trkpt><trkpt lat="46.1156067" lon="13.0506217"><ele>158.0</ele><time>2026-04-07T15:38:39.392Z</time></trkpt><trkpt lat="46.1157467" lon="13.05054"><ele>158.0</ele><time>2026-04-07T15:38:40.391Z</time></trkpt><trkpt lat="46.1158933" lon="13.0504583"><ele>159.0</ele><time>2026-04-07T15:38:41.392Z</time></trkpt><trkpt lat="46.116045" lon="13.050355"><ele>160.0</ele><time>2026-04-07T15:38:42.393Z</time></trkpt><trkpt lat="46.1162067" lon="13.0502567"><ele>161.0</ele><time>2026-04-07T15:38:43.393Z</time></trkpt><trkpt lat="46.1163733" lon="13.0501833"><ele>161.0</ele><time>2026-04-07T15:38:44.392Z</time></trkpt><trkpt lat="46.1165467" lon="13.050135"><ele>161.0</ele><time>2026-04-07T15:38:45.393Z</time></trkpt><trkpt lat="46.1167233" lon="13.0501167"><ele>161.0</ele><time>2026-04-07T15:38:46.393Z</time></trkpt><trkpt lat="46.1169" lon="13.0500917"><ele>161.66666666666666</ele><time>2026-04-07T15:38:47.391Z</time></trkpt><trkpt lat="46.1170683" lon="13.0500633"><ele>162.33333333333334</ele><time>2026-04-07T15:38:48.391Z</time></trkpt><trkpt lat="46.11723" lon="13.0500233"><ele>163.0</ele><time>2026-04-07T15:38:49.391Z</time></trkpt><trkpt lat="46.1173917" lon="13.0499683"><ele>163.66666666666669</ele><time>2026-04-07T15:38:50.392Z</time></trkpt><trkpt lat="46.117555" lon="13.0498967"><ele>164.33333333333334</ele><time>2026-04-07T15:38:51.391Z</time></trkpt><trkpt lat="46.11771" lon="13.0498133"><ele>165.0</ele><time>2026-04-07T15:38:52.392Z</time></trkpt><trkpt lat="46.1178567" lon="13.0497283"><ele>165.0</ele><time>2026-04-07T15:38:53.392Z</time></trkpt><trkpt lat="46.1179983" lon="13.04965"><ele>165.0</ele><time>2026-04-07T15:38:54.391Z</time></trkpt><trkpt lat="46.11814" lon="13.0495733"><ele>165.0</ele><time>2026-04-07T15:38:55.392Z</time></trkpt><trkpt lat="46.1182833" lon="13.0494817"><ele>165.75</ele><time>2026-04-07T15:38:56.392Z</time></trkpt><trkpt lat="46.11842" lon="13.04942"><ele>166.5</ele><time>2026-04-07T15:38:57.389Z</time></trkpt><trkpt lat="46.1185567" lon="13.0493783"><ele>167.25</ele><time>2026-04-07T15:38:58.392Z</time></trkpt><trkpt lat="46.1186933" lon="13.0493067"><ele>168.0</ele><time>2026-04-07T15:38:59.393Z</time></trkpt><trkpt lat="46.118825" lon="13.049285"><ele>168.0</ele><time>2026-04-07T15:39:00.39Z</time></trkpt><trkpt lat="46.1189533" lon="13.0492567"><ele>168.0</ele><time>2026-04-07T15:39:01.393Z</time></trkpt><trkpt lat="46.1190817" lon="13.0492317"><ele>168.0</ele><time>2026-04-07T15:39:02.39Z</time></trkpt><trkpt lat="46.1191717" lon="13.0492983"><ele>168.0</ele><time>2026-04-07T15:39:03.391Z</time></trkpt><trkpt lat="46.1192417" lon="13.0494083"><ele>168.5</ele><time>2026-04-07T15:39:04.392Z</time></trkpt><trkpt lat="46.1192867" lon="13.0495783"><ele>169.0</ele><time>2026-04-07T15:39:05.391Z</time></trkpt><trkpt lat="46.1193317" lon="13.0497567"><ele>169.5</ele><time>2026-04-07T15:39:06.393Z</time></trkpt><trkpt lat="46.1193983" lon="13.0499283"><ele>170.0</ele><time>2026-04-07T15:39:07.393Z</time></trkpt><trkpt lat="46.1194833" lon="13.0500833"><ele>170.0</ele><time>2026-04-07T15:39:08.393Z</time></trkpt><trkpt lat="46.1195867" lon="13.05022"><ele>170.0</ele><time>2026-04-07T15:39:09.393Z</time></trkpt><trkpt lat="46.119705" lon="13.05033"><ele>170.0</ele><time>2026-04-07T15:39:10.393Z</time></trkpt><trkpt lat="46.1198283" lon="13.0504017"><ele>170.0</ele><time>2026-04-07T15:39:11.391Z</time></trkpt><trkpt lat="46.1199533" lon="13.0504483"><ele>171.0</ele><time>2026-04-07T15:39:12.391Z</time></trkpt><trkpt lat="46.1200683" lon="13.0504483"><ele>172.0</ele><time>2026-04-07T15:39:13.392Z</time></trkpt><trkpt lat="46.12017" lon="13.0503833"><ele>173.0</ele><time>2026-04-07T15:39:14.39Z</time></trkpt><trkpt lat="46.1202617" lon="13.050285"><ele>174.0</ele><time>2026-04-07T15:39:15.39Z</time></trkpt><trkpt lat="46.1203483" lon="13.05018"><ele>174.0</ele><time>2026-04-07T15:39:16.392Z</time></trkpt><trkpt lat="46.120425" lon="13.0500883"><ele>174.0</ele><time>2026-04-07T15:39:17.391Z</time></trkpt><trkpt lat="46.1205" lon="13.050065"><ele>174.0</ele><time>2026-04-07T15:39:18.391Z</time></trkpt><trkpt lat="46.1205617" lon="13.0500367"><ele>174.0</ele><time>2026-04-07T15:39:20.389Z</time></trkpt><trkpt lat="46.12066" lon="13.0499367"><ele>174.0</ele><time>2026-04-07T15:39:27.389Z</time></trkpt><trkpt lat="46.1207267" lon="13.0498467"><ele>174.75</ele><time>2026-04-07T15:39:28.389Z</time></trkpt><trkpt lat="46.1208183" lon="13.0497467"><ele>175.5</ele><time>2026-04-07T15:39:29.392Z</time></trkpt><trkpt lat="46.12092" lon="13.0496833"><ele>176.25</ele><time>2026-04-07T15:39:30.391Z</time></trkpt><trkpt lat="46.121025" lon="13.0496233"><ele>177.0</ele><time>2026-04-07T15:39:31.389Z</time></trkpt><trkpt lat="46.1211483" lon="13.0495767"><ele>177.0</ele><time>2026-04-07T15:39:32.391Z</time></trkpt><trkpt lat="46.1212783" lon="13.04953"><ele>177.0</ele><time>2026-04-07T15:39:33.391Z</time></trkpt><trkpt lat="46.1214133" lon="13.04947"><ele>177.0</ele><time>2026-04-07T15:39:34.39Z</time></trkpt><trkpt lat="46.1215433" lon="13.0493833"><ele>177.0</ele><time>2026-04-07T15:39:35.392Z</time></trkpt><trkpt lat="46.12167" lon="13.0493033"><ele>177.5</ele><time>2026-04-07T15:39:36.391Z</time></trkpt><trkpt lat="46.121795" lon="13.0492267"><ele>178.0</ele><time>2026-04-07T15:39:37.39Z</time></trkpt><trkpt lat="46.12192" lon="13.0491517"><ele>178.5</ele><time>2026-04-07T15:39:38.391Z</time></trkpt><trkpt lat="46.12204" lon="13.0490833"><ele>179.0</ele><time>2026-04-07T15:39:39.389Z</time></trkpt><trkpt lat="46.1221567" lon="13.049025"><ele>179.0</ele><time>2026-04-07T15:39:40.39Z</time></trkpt><trkpt lat="46.1222667" lon="13.0489667"><ele>179.0</ele><time>2026-04-07T15:39:41.391Z</time></trkpt><trkpt lat="46.1223733" lon="13.0489"><ele>179.0</ele><time>2026-04-07T15:39:42.39Z</time></trkpt><trkpt lat="46.1224683" lon="13.0488333"><ele>179.0</ele><time>2026-04-07T15:39:43.391Z</time></trkpt><trkpt lat="46.1225617" lon="13.04876"><ele>179.0</ele><time>2026-04-07T15:39:44.39Z</time></trkpt><trkpt lat="46.1226467" lon="13.0486833"><ele>179.0</ele><time>2026-04-07T15:39:45.389Z</time></trkpt><trkpt lat="46.12273" lon="13.0486117"><ele>179.0</ele><time>2026-04-07T15:39:46.389Z</time></trkpt><trkpt lat="46.1228083" lon="13.0485417"><ele>179.0</ele><time>2026-04-07T15:39:47.389Z</time></trkpt><trkpt lat="46.1228783" lon="13.0484767"><ele>179.0</ele><time>2026-04-07T15:39:48.389Z</time></trkpt><trkpt lat="46.122935" lon="13.0484033"><ele>179.0</ele><time>2026-04-07T15:39:49.389Z</time></trkpt><trkpt lat="46.1229917" lon="13.048335"><ele>179.0</ele><time>2026-04-07T15:39:50.389Z</time></trkpt><trkpt lat="46.12306" lon="13.0482717"><ele>179.0</ele><time>2026-04-07T15:39:51.388Z</time></trkpt><trkpt lat="46.1231517" lon="13.0482183"><ele>179.0</ele><time>2026-04-07T15:39:52.39Z</time></trkpt><trkpt lat="46.1232467" lon="13.0481417"><ele>179.0</ele><time>2026-04-07T15:39:53.39Z</time></trkpt><trkpt lat="46.12335" lon="13.048065"><ele>179.0</ele><time>2026-04-07T15:39:54.392Z</time></trkpt><trkpt lat="46.12346" lon="13.0479783"><ele>179.0</ele><time>2026-04-07T15:39:55.389Z</time></trkpt><trkpt lat="46.1235733" lon="13.0478767"><ele>180.75</ele><time>2026-04-07T15:39:56.388Z</time></trkpt><trkpt lat="46.1236833" lon="13.0477817"><ele>182.5</ele><time>2026-04-07T15:39:57.389Z</time></trkpt><trkpt lat="46.1238033" lon="13.0476933"><ele>184.25</ele><time>2026-04-07T15:39:58.388Z</time></trkpt><trkpt lat="46.1239133" lon="13.0476067"><ele>186.0</ele><time>2026-04-07T15:39:59.391Z</time></trkpt><trkpt lat="46.1240067" lon="13.04751"><ele>186.4</ele><time>2026-04-07T15:40:00.389Z</time></trkpt><trkpt lat="46.124085" lon="13.047395"><ele>186.8</ele><time>2026-04-07T15:40:01.389Z</time></trkpt><trkpt lat="46.124155" lon="13.04727"><ele>187.20000000000002</ele><time>2026-04-07T15:40:02.388Z</time></trkpt><trkpt lat="46.1242283" lon="13.0471583"><ele>187.60000000000002</ele><time>2026-04-07T15:40:03.389Z</time></trkpt><trkpt lat="46.124295" lon="13.04704"><ele>188.0</ele><time>2026-04-07T15:40:04.39Z</time></trkpt><trkpt lat="46.1243667" lon="13.0469333"><ele>188.0</ele><time>2026-04-07T15:40:05.391Z</time></trkpt><trkpt lat="46.1244317" lon="13.0468217"><ele>188.0</ele><time>2026-04-07T15:40:06.389Z</time></trkpt><trkpt lat="46.1245" lon="13.04671"><ele>188.0</ele><time>2026-04-07T15:40:07.391Z</time></trkpt><trkpt lat="46.1245717" lon="13.0466"><ele>188.0</ele><time>2026-04-07T15:40:08.389Z</time></trkpt><trkpt lat="46.1246517" lon="13.0464967"><ele>188.0</ele><time>2026-04-07T15:40:09.388Z</time></trkpt><trkpt lat="46.1247267" lon="13.0464117"><ele>187.66666666666666</ele><time>2026-04-07T15:40:10.389Z</time></trkpt><trkpt lat="46.1248" lon="13.0463517"><ele>187.33333333333331</ele><time>2026-04-07T15:40:11.388Z</time></trkpt><trkpt lat="46.1248583" lon="13.046295"><ele>187.0</ele><time>2026-04-07T15:40:12.389Z</time></trkpt><trkpt lat="46.1249267" lon="13.0462617"><ele>186.66666666666666</ele><time>2026-04-07T15:40:13.389Z</time></trkpt><trkpt lat="46.1250217" lon="13.0462667"><ele>186.33333333333334</ele><time>2026-04-07T15:40:14.39Z</time></trkpt><trkpt lat="46.125105" lon="13.0462267"><ele>186.0</ele><time>2026-04-07T15:40:15.389Z</time></trkpt><trkpt lat="46.1251883" lon="13.0462017"><ele>186.83333333333334</ele><time>2026-04-07T15:40:16.389Z</time></trkpt><trkpt lat="46.1252667" lon="13.046175"><ele>187.66666666666666</ele><time>2026-04-07T15:40:17.388Z</time></trkpt><trkpt lat="46.12535" lon="13.0461383"><ele>188.5</ele><time>2026-04-07T15:40:18.39Z</time></trkpt><trkpt lat="46.125425" lon="13.0461183"><ele>189.33333333333331</ele><time>2026-04-07T15:40:19.388Z</time></trkpt><trkpt lat="46.12549" lon="13.0460883"><ele>190.16666666666666</ele><time>2026-04-07T15:40:20.39Z</time></trkpt><trkpt lat="46.12559" lon="13.0461217"><ele>191.0</ele><time>2026-04-07T15:40:22.388Z</time></trkpt><trkpt lat="46.1256667" lon="13.04624"><ele>191.0</ele><time>2026-04-07T15:40:24.388Z</time></trkpt><trkpt lat="46.125695" lon="13.04634"><ele>191.0</ele><time>2026-04-07T15:40:25.391Z</time></trkpt><trkpt lat="46.125725" lon="13.04646"><ele>191.0</ele><time>2026-04-07T15:40:26.389Z</time></trkpt><trkpt lat="46.1257583" lon="13.0465717"><ele>191.0</ele><time>2026-04-07T15:40:27.391Z</time></trkpt><trkpt lat="46.125795" lon="13.04669"><ele>191.0</ele><time>2026-04-07T15:40:28.391Z</time></trkpt><trkpt lat="46.12584" lon="13.04681"><ele>191.0</ele><time>2026-04-07T15:40:29.389Z</time></trkpt><trkpt lat="46.1258817" lon="13.04692"><ele>191.0</ele><time>2026-04-07T15:40:30.389Z</time></trkpt><trkpt lat="46.125925" lon="13.0470233"><ele>191.0</ele><time>2026-04-07T15:40:31.391Z</time></trkpt><trkpt lat="46.1259733" lon="13.0470967"><ele>191.0</ele><time>2026-04-07T15:40:32.389Z</time></trkpt><trkpt lat="46.126035" lon="13.047125"><ele>191.0</ele><time>2026-04-07T15:40:33.389Z</time></trkpt><trkpt lat="46.1261017" lon="13.047125"><ele>191.0</ele><time>2026-04-07T15:40:34.393Z</time></trkpt><trkpt lat="46.126225" lon="13.04708"><ele>191.0</ele><time>2026-04-07T15:40:36.392Z</time></trkpt><trkpt lat="46.1262933" lon="13.0470567"><ele>191.0</ele><time>2026-04-07T15:40:37.392Z</time></trkpt><trkpt lat="46.126365" lon="13.04702"><ele>191.0</ele><time>2026-04-07T15:40:38.389Z</time></trkpt><trkpt lat="46.1264383" lon="13.0469817"><ele>191.0</ele><time>2026-04-07T15:40:39.391Z</time></trkpt><trkpt lat="46.1265017" lon="13.0469333"><ele>191.0</ele><time>2026-04-07T15:40:40.391Z</time></trkpt><trkpt lat="46.1265567" lon="13.0468583"><ele>191.0</ele><time>2026-04-07T15:40:41.388Z</time></trkpt><trkpt lat="46.1266233" lon="13.0468083"><ele>191.0</ele><time>2026-04-07T15:40:42.39Z</time></trkpt><trkpt lat="46.1266883" lon="13.04676"><ele>190.83333333333331</ele><time>2026-04-07T15:40:43.391Z</time></trkpt><trkpt lat="46.1267617" lon="13.046725"><ele>190.66666666666666</ele><time>2026-04-07T15:40:44.389Z</time></trkpt><trkpt lat="46.1268383" lon="13.0466767"><ele>190.5</ele><time>2026-04-07T15:40:45.39Z</time></trkpt><trkpt lat="46.1269267" lon="13.04667"><ele>190.33333333333334</ele><time>2026-04-07T15:40:46.391Z</time></trkpt><trkpt lat="46.127015" lon="13.0466917"><ele>190.16666666666669</ele><time>2026-04-07T15:40:47.389Z</time></trkpt><trkpt lat="46.1271067" lon="13.0467433"><ele>190.0</ele><time>2026-04-07T15:40:48.39Z</time></trkpt><trkpt lat="46.1272067" lon="13.0467867"><ele>190.0</ele><time>2026-04-07T15:40:49.39Z</time></trkpt><trkpt lat="46.1273033" lon="13.04685"><ele>190.0</ele><time>2026-04-07T15:40:50.389Z</time></trkpt><trkpt lat="46.1273833" lon="13.0469083"><ele>190.0</ele><time>2026-04-07T15:40:51.39Z</time></trkpt><trkpt lat="46.127465" lon="13.04696"><ele>190.0</ele><time>2026-04-07T15:40:52.39Z</time></trkpt><trkpt lat="46.12754" lon="13.047"><ele>190.0</ele><time>2026-04-07T15:40:53.39Z</time></trkpt><trkpt lat="46.12763" lon="13.0470667"><ele>190.4</ele><time>2026-04-07T15:40:55.39Z</time></trkpt><trkpt lat="46.12759" lon="13.0471683"><ele>190.8</ele><time>2026-04-07T15:40:58.389Z</time></trkpt><trkpt lat="46.127545" lon="13.047275"><ele>191.2</ele><time>2026-04-07T15:41:00.389Z</time></trkpt><trkpt lat="46.1274817" lon="13.0473933"><ele>191.6</ele><time>2026-04-07T15:41:02.39Z</time></trkpt><trkpt lat="46.1274583" lon="13.04751"><ele>192.0</ele><time>2026-04-07T15:41:04.389Z</time></trkpt><trkpt lat="46.1274517" lon="13.0476667"><ele>192.0</ele><time>2026-04-07T15:41:06.389Z</time></trkpt><trkpt lat="46.1274367" lon="13.0478267"><ele>192.0</ele><time>2026-04-07T15:41:08.389Z</time></trkpt><trkpt lat="46.1274317" lon="13.04796"><ele>192.0</ele><time>2026-04-07T15:41:10.392Z</time></trkpt><trkpt lat="46.1274483" lon="13.0480817"><ele>192.0</ele><time>2026-04-07T15:41:12.391Z</time></trkpt><trkpt lat="46.1275083" lon="13.0481833"><ele>192.0</ele><time>2026-04-07T15:41:14.389Z</time></trkpt><trkpt lat="46.1276033" lon="13.04825"><ele>192.0</ele><time>2026-04-07T15:41:16.389Z</time></trkpt><trkpt lat="46.1276717" lon="13.0482817"><ele>192.0</ele><time>2026-04-07T15:41:17.39Z</time></trkpt><trkpt lat="46.1277817" lon="13.048355"><ele>192.0</ele><time>2026-04-07T15:41:19.389Z</time></trkpt><trkpt lat="46.1278733" lon="13.04844"><ele>192.0</ele><time>2026-04-07T15:41:21.39Z</time></trkpt><trkpt lat="46.12798" lon="13.0485267"><ele>192.0</ele><time>2026-04-07T15:41:23.39Z</time></trkpt><trkpt lat="46.1280417" lon="13.048625"><ele>193.0</ele><time>2026-04-07T15:41:25.389Z</time></trkpt><trkpt lat="46.12808" lon="13.0487483"><ele>194.0</ele><time>2026-04-07T15:41:27.389Z</time></trkpt><trkpt lat="46.128115" lon="13.0488433"><ele>195.0</ele><time>2026-04-07T15:41:29.39Z</time></trkpt><trkpt lat="46.1280917" lon="13.04899"><ele>196.0</ele><time>2026-04-07T15:41:37.39Z</time></trkpt><trkpt lat="46.128025" lon="13.0490733"><ele>197.0</ele><time>2026-04-07T15:41:39.39Z</time></trkpt><trkpt lat="46.127965" lon="13.0491033"><ele>198.0</ele><time>2026-04-07T15:41:41.389Z</time></trkpt><trkpt lat="46.12796" lon="13.0492383"><ele>198.8</ele><time>2026-04-07T15:41:44.39Z</time></trkpt><trkpt lat="46.1279633" lon="13.049385"><ele>199.60000000000002</ele><time>2026-04-07T15:41:46.39Z</time></trkpt><trkpt lat="46.127995" lon="13.0495017"><ele>200.39999999999998</ele><time>2026-04-07T15:41:47.39Z</time></trkpt><trkpt lat="46.1280283" lon="13.0496167"><ele>201.2</ele><time>2026-04-07T15:41:48.39Z</time></trkpt><trkpt lat="46.1280567" lon="13.0497383"><ele>202.0</ele><time>2026-04-07T15:41:49.389Z</time></trkpt><trkpt lat="46.1280867" lon="13.0498633"><ele>201.66666666666666</ele><time>2026-04-07T15:41:50.39Z</time></trkpt><trkpt lat="46.1281117" lon="13.049995"><ele>201.33333333333331</ele><time>2026-04-07T15:41:51.39Z</time></trkpt><trkpt lat="46.12814" lon="13.0501133"><ele>201.0</ele><time>2026-04-07T15:41:52.39Z</time></trkpt><trkpt lat="46.1281733" lon="13.0502367"><ele>200.66666666666669</ele><time>2026-04-07T15:41:53.39Z</time></trkpt><trkpt lat="46.12821" lon="13.0503533"><ele>200.33333333333334</ele><time>2026-04-07T15:41:54.39Z</time></trkpt><trkpt lat="46.12824" lon="13.0504633"><ele>200.0</ele><time>2026-04-07T15:41:55.392Z</time></trkpt><trkpt lat="46.1282683" lon="13.0505533"><ele>200.16666666666669</ele><time>2026-04-07T15:41:56.392Z</time></trkpt><trkpt lat="46.128305" lon="13.0506883"><ele>200.33333333333334</ele><time>2026-04-07T15:41:58.39Z</time></trkpt><trkpt lat="46.12825" lon="13.0507583"><ele>200.5</ele><time>2026-04-07T15:42:00.39Z</time></trkpt><trkpt lat="46.12817" lon="13.0508067"><ele>200.66666666666669</ele><time>2026-04-07T15:42:02.391Z</time></trkpt><trkpt lat="46.12811" lon="13.0508383"><ele>200.83333333333334</ele><time>2026-04-07T15:42:03.392Z</time></trkpt><trkpt lat="46.12804" lon="13.0509417"><ele>201.0</ele><time>2026-04-07T15:42:05.391Z</time></trkpt><trkpt lat="46.1281117" lon="13.0509983"><ele>201.0</ele><time>2026-04-07T15:42:08.391Z</time></trkpt><trkpt lat="46.128175" lon="13.0509867"><ele>201.0</ele><time>2026-04-07T15:42:10.39Z</time></trkpt><trkpt lat="46.1282583" lon="13.05098"><ele>201.0</ele><time>2026-04-07T15:42:12.389Z</time></trkpt><trkpt lat="46.1283233" lon="13.0510067"><ele>201.0</ele><time>2026-04-07T15:42:13.39Z</time></trkpt><trkpt lat="46.1283833" lon="13.051035"><ele>201.0</ele><time>2026-04-07T15:42:14.392Z</time></trkpt><trkpt lat="46.128495" lon="13.0510817"><ele>201.0</ele><time>2026-04-07T15:42:16.39Z</time></trkpt><trkpt lat="46.1286033" lon="13.0510633"><ele>200.5</ele><time>2026-04-07T15:42:18.39Z</time></trkpt><trkpt lat="46.12869" lon="13.05102"><ele>200.0</ele><time>2026-04-07T15:42:20.389Z</time></trkpt><trkpt lat="46.12875" lon="13.05107"><ele>199.5</ele><time>2026-04-07T15:42:22.39Z</time></trkpt><trkpt lat="46.128805" lon="13.0511767"><ele>199.0</ele><time>2026-04-07T15:42:24.395Z</time></trkpt><trkpt lat="46.1288433" lon="13.0512767"><ele>198.5</ele><time>2026-04-07T15:42:26.39Z</time></trkpt><trkpt lat="46.1289233" lon="13.0512567"><ele>198.0</ele><time>2026-04-07T15:42:33.391Z</time></trkpt><trkpt lat="46.12899" lon="13.0512817"><ele>198.0</ele><time>2026-04-07T15:42:35.39Z</time></trkpt><trkpt lat="46.12904" lon="13.051355"><ele>198.0</ele><time>2026-04-07T15:42:37.388Z</time></trkpt><trkpt lat="46.1291117" lon="13.0515283"><ele>198.0</ele><time>2026-04-07T15:42:39.392Z</time></trkpt><trkpt lat="46.129165" lon="13.051635"><ele>198.0</ele><time>2026-04-07T15:42:40.39Z</time></trkpt><trkpt lat="46.1292133" lon="13.0517517"><ele>198.0</ele><time>2026-04-07T15:42:41.392Z</time></trkpt><trkpt lat="46.1292583" lon="13.0518717"><ele>198.0</ele><time>2026-04-07T15:42:42.39Z</time></trkpt><trkpt lat="46.1293067" lon="13.0519983"><ele>198.0</ele><time>2026-04-07T15:42:43.393Z</time></trkpt><trkpt lat="46.1293517" lon="13.0521133"><ele>198.0</ele><time>2026-04-07T15:42:44.392Z</time></trkpt><trkpt lat="46.1293883" lon="13.0522067"><ele>198.0</ele><time>2026-04-07T15:42:45.392Z</time></trkpt><trkpt lat="46.1294317" lon="13.0522833"><ele>198.0</ele><time>2026-04-07T15:42:46.392Z</time></trkpt><trkpt lat="46.1294817" lon="13.05234"><ele>198.0</ele><time>2026-04-07T15:42:47.391Z</time></trkpt><trkpt lat="46.1295867" lon="13.052405"><ele>198.0</ele><time>2026-04-07T15:42:49.39Z</time></trkpt><trkpt lat="46.1296917" lon="13.052475"><ele>198.0</ele><time>2026-04-07T15:42:51.392Z</time></trkpt><trkpt lat="46.12974" lon="13.0525417"><ele>198.0</ele><time>2026-04-07T15:42:52.39Z</time></trkpt><trkpt lat="46.1297883" lon="13.0526083"><ele>198.0</ele><time>2026-04-07T15:42:53.39Z</time></trkpt><trkpt lat="46.12985" lon="13.052655"><ele>198.0</ele><time>2026-04-07T15:42:54.392Z</time></trkpt><trkpt lat="46.1299767" lon="13.0526267"><ele>198.0</ele><time>2026-04-07T15:42:56.39Z</time></trkpt><trkpt lat="46.1300517" lon="13.052585"><ele>198.0</ele><time>2026-04-07T15:42:57.392Z</time></trkpt><trkpt lat="46.1301417" lon="13.052545"><ele>198.0</ele><time>2026-04-07T15:42:58.389Z</time></trkpt><trkpt lat="46.1302417" lon="13.0525217"><ele>198.0</ele><time>2026-04-07T15:42:59.389Z</time></trkpt><trkpt lat="46.1303433" lon="13.0524983"><ele>198.0</ele><time>2026-04-07T15:43:00.392Z</time></trkpt><trkpt lat="46.1304383" lon="13.0524717"><ele>198.0</ele><time>2026-04-07T15:43:01.391Z</time></trkpt><trkpt lat="46.130525" lon="13.05244"><ele>197.33333333333334</ele><time>2026-04-07T15:43:02.39Z</time></trkpt><trkpt lat="46.1306" lon="13.0524133"><ele>196.66666666666669</ele><time>2026-04-07T15:43:03.39Z</time></trkpt><trkpt lat="46.1306767" lon="13.0523933"><ele>196.0</ele><time>2026-04-07T15:43:04.39Z</time></trkpt><trkpt lat="46.1307583" lon="13.0523617"><ele>195.33333333333334</ele><time>2026-04-07T15:43:05.39Z</time></trkpt><trkpt lat="46.1308433" lon="13.0523333"><ele>194.66666666666669</ele><time>2026-04-07T15:43:06.39Z</time></trkpt><trkpt lat="46.130915" lon="13.0522967"><ele>194.0</ele><time>2026-04-07T15:43:07.391Z</time></trkpt><trkpt lat="46.1309733" lon="13.0522483"><ele>195.83333333333334</ele><time>2026-04-07T15:43:08.389Z</time></trkpt><trkpt lat="46.131025" lon="13.0521883"><ele>197.66666666666669</ele><time>2026-04-07T15:43:09.39Z</time></trkpt><trkpt lat="46.13108" lon="13.0521267"><ele>199.5</ele><time>2026-04-07T15:43:10.389Z</time></trkpt><trkpt lat="46.1311333" lon="13.0520667"><ele>201.33333333333331</ele><time>2026-04-07T15:43:11.393Z</time></trkpt><trkpt lat="46.1311783" lon="13.052"><ele>203.16666666666666</ele><time>2026-04-07T15:43:12.392Z</time></trkpt><trkpt lat="46.131225" lon="13.0519317"><ele>205.0</ele><time>2026-04-07T15:43:13.39Z</time></trkpt><trkpt lat="46.1312983" lon="13.0517933"><ele>205.0</ele><time>2026-04-07T15:43:15.389Z</time></trkpt><trkpt lat="46.131365" lon="13.051655"><ele>205.0</ele><time>2026-04-07T15:43:17.392Z</time></trkpt><trkpt lat="46.1314117" lon="13.0515017"><ele>205.0</ele><time>2026-04-07T15:43:19.392Z</time></trkpt><trkpt lat="46.1314583" lon="13.05133"><ele>205.0</ele><time>2026-04-07T15:43:21.393Z</time></trkpt><trkpt lat="46.13148" lon="13.0512333"><ele>205.0</ele><time>2026-04-07T15:43:22.391Z</time></trkpt><trkpt lat="46.1315033" lon="13.0511367"><ele>205.66666666666666</ele><time>2026-04-07T15:43:23.389Z</time></trkpt><trkpt lat="46.1315333" lon="13.0510483"><ele>206.33333333333331</ele><time>2026-04-07T15:43:24.392Z</time></trkpt><trkpt lat="46.1315767" lon="13.0509817"><ele>207.0</ele><time>2026-04-07T15:43:25.39Z</time></trkpt><trkpt lat="46.1316583" lon="13.0508933"><ele>207.66666666666669</ele><time>2026-04-07T15:43:27.388Z</time></trkpt><trkpt lat="46.13171" lon="13.0507967"><ele>208.33333333333334</ele><time>2026-04-07T15:43:29.391Z</time></trkpt><trkpt lat="46.1317983" lon="13.05066"><ele>209.0</ele><time>2026-04-07T15:45:17.389Z</time></trkpt><trkpt lat="46.1318233" lon="13.0505417"><ele>211.83333333333334</ele><time>2026-04-07T15:45:19.391Z</time></trkpt><trkpt lat="46.1318567" lon="13.05043"><ele>214.66666666666669</ele><time>2026-04-07T15:45:21.392Z</time></trkpt><trkpt lat="46.1318683" lon="13.0503267"><ele>217.5</ele><time>2026-04-07T15:45:23.393Z</time></trkpt><trkpt lat="46.131845" lon="13.0502233"><ele>220.33333333333331</ele><time>2026-04-07T15:45:26.392Z</time></trkpt><trkpt lat="46.131805" lon="13.0501133"><ele>223.16666666666666</ele><time>2026-04-07T15:45:28.389Z</time></trkpt><trkpt lat="46.13172" lon="13.0500017"><ele>226.0</ele><time>2026-04-07T15:45:30.392Z</time></trkpt><trkpt lat="46.131665" lon="13.049875"><ele>225.99999999999997</ele><time>2026-04-07T15:45:32.389Z</time></trkpt><trkpt lat="46.1316233" lon="13.049765"><ele>226.0</ele><time>2026-04-07T15:45:34.39Z</time></trkpt><trkpt lat="46.131655" lon="13.0496417"><ele>226.0</ele><time>2026-04-07T15:45:36.391Z</time></trkpt><trkpt lat="46.131695" lon="13.0494933"><ele>226.0</ele><time>2026-04-07T15:45:38.39Z</time></trkpt><trkpt lat="46.1317417" lon="13.049415"><ele>225.99999999999997</ele><time>2026-04-07T15:45:39.39Z</time></trkpt><trkpt lat="46.1317883" lon="13.04934"><ele>226.0</ele><time>2026-04-07T15:45:40.389Z</time></trkpt><trkpt lat="46.1318317" lon="13.0492167"><ele>224.33333333333331</ele><time>2026-04-07T15:45:42.391Z</time></trkpt><trkpt lat="46.1318533" lon="13.0491233"><ele>222.66666666666666</ele><time>2026-04-07T15:45:44.389Z</time></trkpt><trkpt lat="46.1318617" lon="13.0490183"><ele>221.0</ele><time>2026-04-07T15:45:46.39Z</time></trkpt><trkpt lat="46.1318667" lon="13.04892"><ele>219.33333333333331</ele><time>2026-04-07T15:45:48.39Z</time></trkpt><trkpt lat="46.1318567" lon="13.048735"><ele>217.66666666666666</ele><time>2026-04-07T15:45:50.389Z</time></trkpt><trkpt lat="46.131845" lon="13.0486067"><ele>216.0</ele><time>2026-04-07T15:45:51.39Z</time></trkpt><trkpt lat="46.131825" lon="13.048485"><ele>216.0</ele><time>2026-04-07T15:45:52.389Z</time></trkpt><trkpt lat="46.1318083" lon="13.048355"><ele>216.0</ele><time>2026-04-07T15:45:53.39Z</time></trkpt><trkpt lat="46.131785" lon="13.0482267"><ele>216.0</ele><time>2026-04-07T15:45:54.389Z</time></trkpt><trkpt lat="46.1317617" lon="13.0481"><ele>216.0</ele><time>2026-04-07T15:45:55.392Z</time></trkpt><trkpt lat="46.1317433" lon="13.0479833"><ele>216.0</ele><time>2026-04-07T15:45:56.394Z</time></trkpt><trkpt lat="46.131725" lon="13.0478633"><ele>216.0</ele><time>2026-04-07T15:45:57.392Z</time></trkpt><trkpt lat="46.1317067" lon="13.04774"><ele>215.20000000000002</ele><time>2026-04-07T15:45:58.389Z</time></trkpt><trkpt lat="46.1317033" lon="13.0476083"><ele>214.40000000000003</ele><time>2026-04-07T15:45:59.394Z</time></trkpt><trkpt lat="46.1317033" lon="13.0474717"><ele>213.6</ele><time>2026-04-07T15:46:00.391Z</time></trkpt><trkpt lat="46.1317" lon="13.0473383"><ele>212.8</ele><time>2026-04-07T15:46:01.39Z</time></trkpt><trkpt lat="46.1317033" lon="13.04721"><ele>212.0</ele><time>2026-04-07T15:46:02.389Z</time></trkpt><trkpt lat="46.1317267" lon="13.047095"><ele>211.33333333333334</ele><time>2026-04-07T15:46:03.39Z</time></trkpt><trkpt lat="46.1317733" lon="13.0470033"><ele>210.66666666666669</ele><time>2026-04-07T15:46:04.389Z</time></trkpt><trkpt lat="46.1318333" lon="13.046935"><ele>210.0</ele><time>2026-04-07T15:46:05.391Z</time></trkpt><trkpt lat="46.1319" lon="13.0468933"><ele>209.33333333333331</ele><time>2026-04-07T15:46:06.389Z</time></trkpt><trkpt lat="46.13194" lon="13.0468133"><ele>208.66666666666666</ele><time>2026-04-07T15:46:07.393Z</time></trkpt><trkpt lat="46.1319817" lon="13.04673"><ele>208.0</ele><time>2026-04-07T15:46:08.391Z</time></trkpt><trkpt lat="46.1319933" lon="13.04661"><ele>207.60000000000002</ele><time>2026-04-07T15:46:09.389Z</time></trkpt><trkpt lat="46.1320367" lon="13.0465383"><ele>207.20000000000002</ele><time>2026-04-07T15:46:10.391Z</time></trkpt><trkpt lat="46.1320683" lon="13.0464333"><ele>206.8</ele><time>2026-04-07T15:46:11.391Z</time></trkpt><trkpt lat="46.1321083" lon="13.0463133"><ele>206.4</ele><time>2026-04-07T15:46:12.389Z</time></trkpt><trkpt lat="46.13216" lon="13.0461783"><ele>206.0</ele><time>2026-04-07T15:46:13.39Z</time></trkpt><trkpt lat="46.1322167" lon="13.0460433"><ele>206.00000000000003</ele><time>2026-04-07T15:46:14.39Z</time></trkpt><trkpt lat="46.132275" lon="13.0459183"><ele>206.0</ele><time>2026-04-07T15:46:15.39Z</time></trkpt><trkpt lat="46.1323183" lon="13.0458033"><ele>206.0</ele><time>2026-04-07T15:46:16.392Z</time></trkpt><trkpt lat="46.1323567" lon="13.0457033"><ele>206.0</ele><time>2026-04-07T15:46:17.39Z</time></trkpt><trkpt lat="46.132365" lon="13.045595"><ele>206.00000000000003</ele><time>2026-04-07T15:46:18.389Z</time></trkpt><trkpt lat="46.132355" lon="13.0454817"><ele>206.0</ele><time>2026-04-07T15:46:19.391Z</time></trkpt><trkpt lat="46.1323367" lon="13.0453617"><ele>206.0</ele><time>2026-04-07T15:46:20.389Z</time></trkpt><trkpt lat="46.1323067" lon="13.0452283"><ele>206.0</ele><time>2026-04-07T15:46:21.39Z</time></trkpt><trkpt lat="46.1322867" lon="13.0450833"><ele>206.0</ele><time>2026-04-07T15:46:22.39Z</time></trkpt><trkpt lat="46.1322733" lon="13.0449317"><ele>206.0</ele><time>2026-04-07T15:46:23.39Z</time></trkpt><trkpt lat="46.1322717" lon="13.0447817"><ele>206.0</ele><time>2026-04-07T15:46:24.389Z</time></trkpt><trkpt lat="46.132275" lon="13.044635"><ele>206.0</ele><time>2026-04-07T15:46:25.39Z</time></trkpt><trkpt lat="46.1322633" lon="13.0444917"><ele>206.0</ele><time>2026-04-07T15:46:26.389Z</time></trkpt><trkpt lat="46.1322667" lon="13.04436"><ele>206.0</ele><time>2026-04-07T15:46:27.39Z</time></trkpt><trkpt lat="46.1322883" lon="13.04423"><ele>206.0</ele><time>2026-04-07T15:46:28.392Z</time></trkpt><trkpt lat="46.132285" lon="13.0440917"><ele>206.0</ele><time>2026-04-07T15:46:29.392Z</time></trkpt><trkpt lat="46.1322817" lon="13.043945"><ele>205.66666666666669</ele><time>2026-04-07T15:46:30.392Z</time></trkpt><trkpt lat="46.132295" lon="13.0438033"><ele>205.33333333333334</ele><time>2026-04-07T15:46:31.392Z</time></trkpt><trkpt lat="46.132305" lon="13.0436667"><ele>205.0</ele><time>2026-04-07T15:46:32.39Z</time></trkpt><trkpt lat="46.1323067" lon="13.0435367"><ele>204.66666666666669</ele><time>2026-04-07T15:46:33.392Z</time></trkpt><trkpt lat="46.1323333" lon="13.0434333"><ele>204.33333333333334</ele><time>2026-04-07T15:46:34.393Z</time></trkpt><trkpt lat="46.13239" lon="13.043375"><ele>204.0</ele><time>2026-04-07T15:46:35.393Z</time></trkpt><trkpt lat="46.1324517" lon="13.0433383"><ele>204.83333333333334</ele><time>2026-04-07T15:46:36.389Z</time></trkpt><trkpt lat="46.1325367" lon="13.04337"><ele>205.66666666666669</ele><time>2026-04-07T15:46:37.393Z</time></trkpt><trkpt lat="46.1326217" lon="13.0434133"><ele>206.5</ele><time>2026-04-07T15:46:38.389Z</time></trkpt><trkpt lat="46.1327033" lon="13.0434533"><ele>207.33333333333334</ele><time>2026-04-07T15:46:39.393Z</time></trkpt><trkpt lat="46.1327783" lon="13.043455"><ele>208.16666666666669</ele><time>2026-04-07T15:46:40.389Z</time></trkpt><trkpt lat="46.132845" lon="13.0434617"><ele>209.0</ele><time>2026-04-07T15:46:41.389Z</time></trkpt><trkpt lat="46.1329633" lon="13.04346"><ele>209.00000000000003</ele><time>2026-04-07T15:46:43.392Z</time></trkpt><trkpt lat="46.1330517" lon="13.0434333"><ele>209.0</ele><time>2026-04-07T15:46:45.393Z</time></trkpt><trkpt lat="46.1330317" lon="13.0433433"><ele>209.0</ele><time>2026-04-07T15:46:47.389Z</time></trkpt><trkpt lat="46.1329717" lon="13.0431817"><ele>209.0</ele><time>2026-04-07T15:46:49.39Z</time></trkpt><trkpt lat="46.132945" lon="13.043085"><ele>209.00000000000003</ele><time>2026-04-07T15:46:50.39Z</time></trkpt><trkpt lat="46.1329133" lon="13.0429833"><ele>209.0</ele><time>2026-04-07T15:46:51.39Z</time></trkpt><trkpt lat="46.13288" lon="13.0428733"><ele>208.66666666666669</ele><time>2026-04-07T15:46:52.39Z</time></trkpt><trkpt lat="46.132855" lon="13.0427533"><ele>208.33333333333334</ele><time>2026-04-07T15:46:53.389Z</time></trkpt><trkpt lat="46.132835" lon="13.0426333"><ele>208.0</ele><time>2026-04-07T15:46:54.39Z</time></trkpt><trkpt lat="46.1328117" lon="13.0425217"><ele>207.66666666666669</ele><time>2026-04-07T15:46:55.389Z</time></trkpt><trkpt lat="46.1327917" lon="13.0424183"><ele>207.33333333333334</ele><time>2026-04-07T15:46:56.39Z</time></trkpt><trkpt lat="46.1327633" lon="13.0423217"><ele>207.0</ele><time>2026-04-07T15:46:57.392Z</time></trkpt><trkpt lat="46.1327333" lon="13.0422283"><ele>206.57142857142858</ele><time>2026-04-07T15:46:58.393Z</time></trkpt><trkpt lat="46.1327017" lon="13.0421333"><ele>206.14285714285714</ele><time>2026-04-07T15:46:59.393Z</time></trkpt><trkpt lat="46.13267" lon="13.0420433"><ele>205.71428571428572</ele><time>2026-04-07T15:47:00.393Z</time></trkpt><trkpt lat="46.132645" lon="13.041955"><ele>205.28571428571428</ele><time>2026-04-07T15:47:01.395Z</time></trkpt><trkpt lat="46.13262" lon="13.0418633"><ele>204.85714285714286</ele><time>2026-04-07T15:47:02.39Z</time></trkpt><trkpt lat="46.1326017" lon="13.0417667"><ele>204.42857142857144</ele><time>2026-04-07T15:47:03.389Z</time></trkpt><trkpt lat="46.13257" lon="13.04166"><ele>204.0</ele><time>2026-04-07T15:47:04.39Z</time></trkpt><trkpt lat="46.1325383" lon="13.041555"><ele>203.42857142857144</ele><time>2026-04-07T15:47:05.392Z</time></trkpt><trkpt lat="46.1325133" lon="13.04145"><ele>202.85714285714286</ele><time>2026-04-07T15:47:06.389Z</time></trkpt><trkpt lat="46.132485" lon="13.0413417"><ele>202.28571428571428</ele><time>2026-04-07T15:47:07.392Z</time></trkpt><trkpt lat="46.1324517" lon="13.04124"><ele>201.71428571428572</ele><time>2026-04-07T15:47:08.39Z</time></trkpt><trkpt lat="46.13242" lon="13.0411383"><ele>201.14285714285714</ele><time>2026-04-07T15:47:09.392Z</time></trkpt><trkpt lat="46.132385" lon="13.0410483"><ele>200.57142857142858</ele><time>2026-04-07T15:47:10.393Z</time></trkpt><trkpt lat="46.1323583" lon="13.040965"><ele>200.0</ele><time>2026-04-07T15:47:11.395Z</time></trkpt><trkpt lat="46.1323483" lon="13.0408717"><ele>200.0</ele><time>2026-04-07T15:47:13.392Z</time></trkpt><trkpt lat="46.132445" lon="13.0408383"><ele>200.0</ele><time>2026-04-07T15:47:16.393Z</time></trkpt><trkpt lat="46.1325617" lon="13.0409133"><ele>200.0</ele><time>2026-04-07T15:47:18.389Z</time></trkpt><trkpt lat="46.1326417" lon="13.0409733"><ele>200.0</ele><time>2026-04-07T15:47:19.388Z</time></trkpt><trkpt lat="46.1327183" lon="13.041025"><ele>200.0</ele><time>2026-04-07T15:47:20.389Z</time></trkpt><trkpt lat="46.1327883" lon="13.0410633"><ele>200.00000000000003</ele><time>2026-04-07T15:47:21.389Z</time></trkpt><trkpt lat="46.1328633" lon="13.0410883"><ele>200.0</ele><time>2026-04-07T15:47:22.388Z</time></trkpt><trkpt lat="46.13294" lon="13.0411267"><ele>200.0</ele><time>2026-04-07T15:47:23.389Z</time></trkpt><trkpt lat="46.1330217" lon="13.04117"><ele>200.0</ele><time>2026-04-07T15:47:24.389Z</time></trkpt><trkpt lat="46.1331017" lon="13.04122"><ele>200.00000000000003</ele><time>2026-04-07T15:47:25.389Z</time></trkpt><trkpt lat="46.1331817" lon="13.0412633"><ele>200.0</ele><time>2026-04-07T15:47:26.39Z</time></trkpt><trkpt lat="46.1332583" lon="13.0413083"><ele>200.8</ele><time>2026-04-07T15:47:27.392Z</time></trkpt><trkpt lat="46.1333467" lon="13.0413433"><ele>201.6</ele><time>2026-04-07T15:47:28.391Z</time></trkpt><trkpt lat="46.1334333" lon="13.0413783"><ele>202.39999999999998</ele><time>2026-04-07T15:47:29.391Z</time></trkpt><trkpt lat="46.1335267" lon="13.0413967"><ele>203.2</ele><time>2026-04-07T15:47:30.391Z</time></trkpt><trkpt lat="46.1336217" lon="13.0413883"><ele>204.0</ele><time>2026-04-07T15:47:31.392Z</time></trkpt><trkpt lat="46.133715" lon="13.0413817"><ele>204.0</ele><time>2026-04-07T15:47:32.392Z</time></trkpt><trkpt lat="46.133815" lon="13.041385"><ele>204.0</ele><time>2026-04-07T15:47:33.391Z</time></trkpt><trkpt lat="46.1339" lon="13.0413633"><ele>204.0</ele><time>2026-04-07T15:47:34.392Z</time></trkpt><trkpt lat="46.1339967" lon="13.041345"><ele>204.0</ele><time>2026-04-07T15:47:35.391Z</time></trkpt><trkpt lat="46.1340817" lon="13.0413283"><ele>204.0</ele><time>2026-04-07T15:47:36.392Z</time></trkpt><trkpt lat="46.134165" lon="13.0413217"><ele>204.16666666666666</ele><time>2026-04-07T15:47:37.391Z</time></trkpt><trkpt lat="46.1342467" lon="13.041335"><ele>204.33333333333331</ele><time>2026-04-07T15:47:38.391Z</time></trkpt><trkpt lat="46.1343267" lon="13.0413733"><ele>204.5</ele><time>2026-04-07T15:47:39.392Z</time></trkpt><trkpt lat="46.1343967" lon="13.0414383"><ele>204.66666666666666</ele><time>2026-04-07T15:47:40.391Z</time></trkpt><trkpt lat="46.1344683" lon="13.041525"><ele>204.83333333333331</ele><time>2026-04-07T15:47:41.388Z</time></trkpt><trkpt lat="46.1345417" lon="13.04163"><ele>205.0</ele><time>2026-04-07T15:47:42.388Z</time></trkpt><trkpt lat="46.1346033" lon="13.0417333"><ele>204.99999999999997</ele><time>2026-04-07T15:47:43.389Z</time></trkpt><trkpt lat="46.1346583" lon="13.0418383"><ele>205.0</ele><time>2026-04-07T15:47:44.391Z</time></trkpt><trkpt lat="46.1347067" lon="13.04196"><ele>205.0</ele><time>2026-04-07T15:47:45.391Z</time></trkpt><trkpt lat="46.13476" lon="13.0420667"><ele>205.0</ele><time>2026-04-07T15:47:46.392Z</time></trkpt><trkpt lat="46.1348067" lon="13.0421767"><ele>204.99999999999997</ele><time>2026-04-07T15:47:47.389Z</time></trkpt><trkpt lat="46.1348483" lon="13.0422633"><ele>205.0</ele><time>2026-04-07T15:47:48.389Z</time></trkpt><trkpt lat="46.1349033" lon="13.0423383"><ele>203.83333333333331</ele><time>2026-04-07T15:47:49.391Z</time></trkpt><trkpt lat="46.1349467" lon="13.042425"><ele>202.66666666666666</ele><time>2026-04-07T15:47:50.391Z</time></trkpt><trkpt lat="46.1349967" lon="13.0424883"><ele>201.5</ele><time>2026-04-07T15:47:51.39Z</time></trkpt><trkpt lat="46.1350767" lon="13.0425667"><ele>200.33333333333331</ele><time>2026-04-07T15:47:53.389Z</time></trkpt><trkpt lat="46.1351517" lon="13.042635"><ele>199.16666666666666</ele><time>2026-04-07T15:49:21.389Z</time></trkpt><trkpt lat="46.135255" lon="13.0427"><ele>198.0</ele><time>2026-04-07T15:49:23.389Z</time></trkpt><trkpt lat="46.1353667" lon="13.04279"><ele>198.0</ele><time>2026-04-07T15:49:25.39Z</time></trkpt><trkpt lat="46.1354317" lon="13.0428217"><ele>198.0</ele><time>2026-04-07T15:49:26.392Z</time></trkpt><trkpt lat="46.1355017" lon="13.042845"><ele>198.0</ele><time>2026-04-07T15:49:27.389Z</time></trkpt><trkpt lat="46.1355717" lon="13.0428767"><ele>198.0</ele><time>2026-04-07T15:49:28.39Z</time></trkpt><trkpt lat="46.13564" lon="13.0428983"><ele>198.0</ele><time>2026-04-07T15:49:29.39Z</time></trkpt><trkpt lat="46.135755" lon="13.0429333"><ele>198.0</ele><time>2026-04-07T15:49:31.39Z</time></trkpt><trkpt lat="46.13585" lon="13.0429917"><ele>197.83333333333334</ele><time>2026-04-07T15:49:33.39Z</time></trkpt><trkpt lat="46.1359417" lon="13.043035"><ele>197.66666666666669</ele><time>2026-04-07T15:49:35.389Z</time></trkpt><trkpt lat="46.1360017" lon="13.0431067"><ele>197.5</ele><time>2026-04-07T15:49:37.39Z</time></trkpt><trkpt lat="46.1360583" lon="13.0431683"><ele>197.33333333333334</ele><time>2026-04-07T15:49:39.392Z</time></trkpt><trkpt lat="46.1361017" lon="13.0432583"><ele>197.16666666666669</ele><time>2026-04-07T15:49:41.392Z</time></trkpt><trkpt lat="46.1361317" lon="13.0433967"><ele>197.0</ele><time>2026-04-07T15:49:43.39Z</time></trkpt><trkpt lat="46.1361367" lon="13.0435"><ele>197.0</ele><time>2026-04-07T15:49:44.392Z</time></trkpt><trkpt lat="46.13615" lon="13.0436233"><ele>197.0</ele><time>2026-04-07T15:49:45.392Z</time></trkpt><trkpt lat="46.1361633" lon="13.0437683"><ele>197.0</ele><time>2026-04-07T15:49:46.39Z</time></trkpt><trkpt lat="46.1361933" lon="13.0439233"><ele>197.0</ele><time>2026-04-07T15:49:47.392Z</time></trkpt><trkpt lat="46.1362233" lon="13.0440833"><ele>197.0</ele><time>2026-04-07T15:49:48.39Z</time></trkpt><trkpt lat="46.1362517" lon="13.0442383"><ele>197.16666666666669</ele><time>2026-04-07T15:49:49.39Z</time></trkpt><trkpt lat="46.136265" lon="13.044395"><ele>197.33333333333334</ele><time>2026-04-07T15:49:50.39Z</time></trkpt><trkpt lat="46.1362883" lon="13.0445283"><ele>197.5</ele><time>2026-04-07T15:49:51.393Z</time></trkpt><trkpt lat="46.1363117" lon="13.0446383"><ele>197.66666666666669</ele><time>2026-04-07T15:49:52.39Z</time></trkpt><trkpt lat="46.13632" lon="13.044745"><ele>197.83333333333334</ele><time>2026-04-07T15:49:53.392Z</time></trkpt><trkpt lat="46.1363317" lon="13.0448483"><ele>198.0</ele><time>2026-04-07T15:49:54.392Z</time></trkpt><trkpt lat="46.1363667" lon="13.04496"><ele>197.60000000000002</ele><time>2026-04-07T15:49:55.392Z</time></trkpt><trkpt lat="46.1364333" lon="13.04505"><ele>197.20000000000002</ele><time>2026-04-07T15:49:56.392Z</time></trkpt><trkpt lat="46.1365117" lon="13.0451367"><ele>196.8</ele><time>2026-04-07T15:49:57.392Z</time></trkpt><trkpt lat="46.1365833" lon="13.0452217"><ele>196.4</ele><time>2026-04-07T15:49:58.393Z</time></trkpt><trkpt lat="46.136655" lon="13.0453117"><ele>196.0</ele><time>2026-04-07T15:49:59.392Z</time></trkpt><trkpt lat="46.1367183" lon="13.045425"><ele>196.0</ele><time>2026-04-07T15:50:00.393Z</time></trkpt><trkpt lat="46.13678" lon="13.0455417"><ele>196.0</ele><time>2026-04-07T15:50:01.393Z</time></trkpt><trkpt lat="46.1368417" lon="13.0456517"><ele>196.0</ele><time>2026-04-07T15:50:02.39Z</time></trkpt><trkpt lat="46.13691" lon="13.04576"><ele>196.0</ele><time>2026-04-07T15:50:03.389Z</time></trkpt><trkpt lat="46.1369817" lon="13.0458733"><ele>196.0</ele><time>2026-04-07T15:50:04.39Z</time></trkpt><trkpt lat="46.1370533" lon="13.0459933"><ele>196.20000000000002</ele><time>2026-04-07T15:50:05.39Z</time></trkpt><trkpt lat="46.137115" lon="13.046115"><ele>196.4</ele><time>2026-04-07T15:50:06.391Z</time></trkpt><trkpt lat="46.1371867" lon="13.0462233"><ele>196.6</ele><time>2026-04-07T15:50:07.393Z</time></trkpt><trkpt lat="46.137255" lon="13.0463267"><ele>196.8</ele><time>2026-04-07T15:50:08.389Z</time></trkpt><trkpt lat="46.13733" lon="13.0464267"><ele>197.0</ele><time>2026-04-07T15:50:09.39Z</time></trkpt><trkpt lat="46.1374017" lon="13.0465233"><ele>197.0</ele><time>2026-04-07T15:50:10.389Z</time></trkpt><trkpt lat="46.1374683" lon="13.046625"><ele>197.0</ele><time>2026-04-07T15:50:11.39Z</time></trkpt><trkpt lat="46.1375233" lon="13.0467517"><ele>197.0</ele><time>2026-04-07T15:50:12.39Z</time></trkpt><trkpt lat="46.1375733" lon="13.046885"><ele>197.0</ele><time>2026-04-07T15:50:13.393Z</time></trkpt><trkpt lat="46.1376233" lon="13.047035"><ele>197.0</ele><time>2026-04-07T15:50:14.392Z</time></trkpt><trkpt lat="46.1376767" lon="13.0471833"><ele>197.75</ele><time>2026-04-07T15:50:15.389Z</time></trkpt><trkpt lat="46.1377417" lon="13.0473267"><ele>198.5</ele><time>2026-04-07T15:50:16.39Z</time></trkpt><trkpt lat="46.1378033" lon="13.0474767"><ele>199.25</ele><time>2026-04-07T15:50:17.392Z</time></trkpt><trkpt lat="46.1378683" lon="13.0476267"><ele>200.0</ele><time>2026-04-07T15:50:18.393Z</time></trkpt><trkpt lat="46.13794" lon="13.0477667"><ele>200.25</ele><time>2026-04-07T15:50:19.39Z</time></trkpt><trkpt lat="46.1379967" lon="13.047915"><ele>200.5</ele><time>2026-04-07T15:50:20.391Z</time></trkpt><trkpt lat="46.138035" lon="13.048075"><ele>200.75</ele><time>2026-04-07T15:50:21.391Z</time></trkpt><trkpt lat="46.1380583" lon="13.0482417"><ele>201.0</ele><time>2026-04-07T15:50:22.39Z</time></trkpt><trkpt lat="46.1380717" lon="13.048405"><ele>201.8</ele><time>2026-04-07T15:50:23.393Z</time></trkpt><trkpt lat="46.1380817" lon="13.048565"><ele>202.60000000000002</ele><time>2026-04-07T15:50:24.392Z</time></trkpt><trkpt lat="46.1380867" lon="13.04872"><ele>203.4</ele><time>2026-04-07T15:50:25.392Z</time></trkpt><trkpt lat="46.1380967" lon="13.0488717"><ele>204.2</ele><time>2026-04-07T15:50:26.39Z</time></trkpt><trkpt lat="46.1381333" lon="13.0490133"><ele>205.0</ele><time>2026-04-07T15:50:27.393Z</time></trkpt><trkpt lat="46.138185" lon="13.04914"><ele>204.5</ele><time>2026-04-07T15:50:28.393Z</time></trkpt><trkpt lat="46.1382517" lon="13.0492667"><ele>204.0</ele><time>2026-04-07T15:50:29.39Z</time></trkpt><trkpt lat="46.1383117" lon="13.0494"><ele>203.5</ele><time>2026-04-07T15:50:30.389Z</time></trkpt><trkpt lat="46.1383833" lon="13.0495383"><ele>203.0</ele><time>2026-04-07T15:50:31.39Z</time></trkpt><trkpt lat="46.1384517" lon="13.0496817"><ele>203.0</ele><time>2026-04-07T15:50:32.39Z</time></trkpt><trkpt lat="46.1385133" lon="13.0498283"><ele>203.0</ele><time>2026-04-07T15:50:33.393Z</time></trkpt><trkpt lat="46.1385717" lon="13.0499817"><ele>203.0</ele><time>2026-04-07T15:50:34.39Z</time></trkpt><trkpt lat="46.1386333" lon="13.05013"><ele>203.0</ele><time>2026-04-07T15:50:35.39Z</time></trkpt><trkpt lat="46.1386783" lon="13.0502917"><ele>203.25</ele><time>2026-04-07T15:50:36.393Z</time></trkpt><trkpt lat="46.1387333" lon="13.0504483"><ele>203.5</ele><time>2026-04-07T15:50:37.392Z</time></trkpt><trkpt lat="46.138795" lon="13.0505767"><ele>203.75</ele><time>2026-04-07T15:50:38.392Z</time></trkpt><trkpt lat="46.1388667" lon="13.0507083"><ele>204.0</ele><time>2026-04-07T15:50:39.392Z</time></trkpt><trkpt lat="46.1389417" lon="13.0508317"><ele>203.5</ele><time>2026-04-07T15:50:40.39Z</time></trkpt><trkpt lat="46.1390233" lon="13.050945"><ele>203.0</ele><time>2026-04-07T15:50:41.389Z</time></trkpt><trkpt lat="46.139115" lon="13.0510583"><ele>202.5</ele><time>2026-04-07T15:50:42.39Z</time></trkpt><trkpt lat="46.139215" lon="13.0511667"><ele>202.0</ele><time>2026-04-07T15:50:43.391Z</time></trkpt><trkpt lat="46.139305" lon="13.0512467"><ele>201.6</ele><time>2026-04-07T15:50:44.393Z</time></trkpt><trkpt lat="46.1394083" lon="13.0513183"><ele>201.2</ele><time>2026-04-07T15:50:45.392Z</time></trkpt><trkpt lat="46.1395133" lon="13.051365"><ele>200.8</ele><time>2026-04-07T15:50:46.393Z</time></trkpt><trkpt lat="46.139625" lon="13.0513983"><ele>200.4</ele><time>2026-04-07T15:50:47.394Z</time></trkpt><trkpt lat="46.1397333" lon="13.0514283"><ele>200.0</ele><time>2026-04-07T15:50:48.392Z</time></trkpt><trkpt lat="46.1398467" lon="13.0514483"><ele>200.6</ele><time>2026-04-07T15:50:49.389Z</time></trkpt><trkpt lat="46.1399617" lon="13.051465"><ele>201.2</ele><time>2026-04-07T15:50:50.39Z</time></trkpt><trkpt lat="46.14007" lon="13.05151"><ele>201.8</ele><time>2026-04-07T15:50:51.39Z</time></trkpt><trkpt lat="46.1401733" lon="13.0515633"><ele>202.4</ele><time>2026-04-07T15:50:52.392Z</time></trkpt><trkpt lat="46.140265" lon="13.051645"><ele>203.0</ele><time>2026-04-07T15:50:53.393Z</time></trkpt><trkpt lat="46.1403483" lon="13.051735"><ele>203.2</ele><time>2026-04-07T15:50:54.39Z</time></trkpt><trkpt lat="46.1404217" lon="13.0518383"><ele>203.4</ele><time>2026-04-07T15:50:55.39Z</time></trkpt><trkpt lat="46.1405017" lon="13.0519117"><ele>203.6</ele><time>2026-04-07T15:50:56.389Z</time></trkpt><trkpt lat="46.1405833" lon="13.0519567"><ele>203.79999999999998</ele><time>2026-04-07T15:50:57.391Z</time></trkpt><trkpt lat="46.140665" lon="13.0519933"><ele>204.0</ele><time>2026-04-07T15:50:58.39Z</time></trkpt><trkpt lat="46.1407433" lon="13.05204"><ele>203.66666666666666</ele><time>2026-04-07T15:50:59.393Z</time></trkpt><trkpt lat="46.1408033" lon="13.05208"><ele>203.33333333333331</ele><time>2026-04-07T15:51:00.394Z</time></trkpt><trkpt lat="46.1408917" lon="13.0521383"><ele>203.0</ele><time>2026-04-07T15:51:02.393Z</time></trkpt><trkpt lat="46.1408867" lon="13.0522983"><ele>202.66666666666666</ele><time>2026-04-07T15:54:35.392Z</time></trkpt><trkpt lat="46.14083" lon="13.0523733"><ele>202.33333333333331</ele><time>2026-04-07T15:54:36.392Z</time></trkpt><trkpt lat="46.140765" lon="13.0524567"><ele>202.0</ele><time>2026-04-07T15:54:37.392Z</time></trkpt><trkpt lat="46.140685" lon="13.052565"><ele>202.0</ele><time>2026-04-07T15:54:38.389Z</time></trkpt><trkpt lat="46.1406117" lon="13.0526867"><ele>202.0</ele><time>2026-04-07T15:54:39.39Z</time></trkpt><trkpt lat="46.14051" lon="13.0528083"><ele>202.0</ele><time>2026-04-07T15:54:40.39Z</time></trkpt><trkpt lat="46.14041" lon="13.05295"><ele>202.0</ele><time>2026-04-07T15:54:41.391Z</time></trkpt><trkpt lat="46.140305" lon="13.0530933"><ele>202.0</ele><time>2026-04-07T15:54:42.391Z</time></trkpt><trkpt lat="46.140195" lon="13.0532367"><ele>202.0</ele><time>2026-04-07T15:54:43.391Z</time></trkpt><trkpt lat="46.14008" lon="13.0533917"><ele>202.0</ele><time>2026-04-07T15:54:44.39Z</time></trkpt><trkpt lat="46.1399633" lon="13.05355"><ele>203.0</ele><time>2026-04-07T15:54:45.39Z</time></trkpt><trkpt lat="46.1398467" lon="13.0537217"><ele>204.0</ele><time>2026-04-07T15:54:46.391Z</time></trkpt><trkpt lat="46.1397217" lon="13.053885"><ele>205.0</ele><time>2026-04-07T15:54:47.39Z</time></trkpt><trkpt lat="46.1395967" lon="13.05406"><ele>206.0</ele><time>2026-04-07T15:54:48.391Z</time></trkpt><trkpt lat="46.1394633" lon="13.054235"><ele>207.0</ele><time>2026-04-07T15:54:49.391Z</time></trkpt><trkpt lat="46.1393333" lon="13.054415"><ele>208.0</ele><time>2026-04-07T15:54:50.391Z</time></trkpt><trkpt lat="46.1392" lon="13.0545833"><ele>208.0</ele><time>2026-04-07T15:54:51.392Z</time></trkpt><trkpt lat="46.1390617" lon="13.0547583"><ele>208.0</ele><time>2026-04-07T15:54:52.39Z</time></trkpt><trkpt lat="46.1389367" lon="13.0549483"><ele>208.0</ele><time>2026-04-07T15:54:53.39Z</time></trkpt><trkpt lat="46.1388233" lon="13.0551367"><ele>207.66666666666666</ele><time>2026-04-07T15:54:54.391Z</time></trkpt><trkpt lat="46.13869" lon="13.0553183"><ele>207.33333333333331</ele><time>2026-04-07T15:54:55.39Z</time></trkpt><trkpt lat="46.1385967" lon="13.05549"><ele>207.0</ele><time>2026-04-07T15:54:56.391Z</time></trkpt><trkpt lat="46.138495" lon="13.05563"><ele>207.0</ele><time>2026-04-07T15:54:57.391Z</time></trkpt><trkpt lat="46.1384417" lon="13.05576"><ele>207.0</ele><time>2026-04-07T15:54:58.391Z</time></trkpt><trkpt lat="46.138415" lon="13.055945"><ele>207.0</ele><time>2026-04-07T15:54:59.39Z</time></trkpt><trkpt lat="46.1383217" lon="13.0560783"><ele>207.0</ele><time>2026-04-07T15:55:00.39Z</time></trkpt><trkpt lat="46.13822" lon="13.0562167"><ele>208.75</ele><time>2026-04-07T15:55:01.392Z</time></trkpt><trkpt lat="46.1381317" lon="13.05638"><ele>210.5</ele><time>2026-04-07T15:55:02.392Z</time></trkpt><trkpt lat="46.1380367" lon="13.056535"><ele>212.25</ele><time>2026-04-07T15:55:03.393Z</time></trkpt><trkpt lat="46.1379267" lon="13.056655"><ele>214.0</ele><time>2026-04-07T15:55:04.393Z</time></trkpt><trkpt lat="46.137805" lon="13.0567767"><ele>214.0</ele><time>2026-04-07T15:55:05.393Z</time></trkpt><trkpt lat="46.1376683" lon="13.05687"><ele>214.0</ele><time>2026-04-07T15:55:06.392Z</time></trkpt><trkpt lat="46.13754" lon="13.0569867"><ele>214.0</ele><time>2026-04-07T15:55:07.392Z</time></trkpt><trkpt lat="46.1373967" lon="13.0570733"><ele>213.33333333333331</ele><time>2026-04-07T15:55:08.392Z</time></trkpt><trkpt lat="46.1372533" lon="13.0571767"><ele>212.66666666666669</ele><time>2026-04-07T15:55:09.393Z</time></trkpt><trkpt lat="46.1371033" lon="13.0572733"><ele>212.0</ele><time>2026-04-07T15:55:10.393Z</time></trkpt><trkpt lat="46.1369533" lon="13.057375"><ele>211.33333333333334</ele><time>2026-04-07T15:55:11.393Z</time></trkpt><trkpt lat="46.1368" lon="13.057485"><ele>210.66666666666669</ele><time>2026-04-07T15:55:12.392Z</time></trkpt><trkpt lat="46.1366433" lon="13.057585"><ele>210.0</ele><time>2026-04-07T15:55:13.393Z</time></trkpt><trkpt lat="46.1364967" lon="13.057705"><ele>210.0</ele><time>2026-04-07T15:55:14.392Z</time></trkpt><trkpt lat="46.1363483" lon="13.0578317"><ele>210.0</ele><time>2026-04-07T15:55:15.39Z</time></trkpt><trkpt lat="46.1362017" lon="13.0579617"><ele>210.0</ele><time>2026-04-07T15:55:16.39Z</time></trkpt><trkpt lat="46.1360517" lon="13.0581017"><ele>210.0</ele><time>2026-04-07T15:55:17.389Z</time></trkpt><trkpt lat="46.1359" lon="13.0582417"><ele>210.0</ele><time>2026-04-07T15:55:18.392Z</time></trkpt><trkpt lat="46.1357483" lon="13.058355"><ele>210.0</ele><time>2026-04-07T15:55:19.391Z</time></trkpt><trkpt lat="46.135595" lon="13.058485"><ele>208.33333333333331</ele><time>2026-04-07T15:55:20.392Z</time></trkpt><trkpt lat="46.135445" lon="13.0586233"><ele>206.66666666666666</ele><time>2026-04-07T15:55:21.392Z</time></trkpt><trkpt lat="46.1352967" lon="13.05877"><ele>205.0</ele><time>2026-04-07T15:55:22.391Z</time></trkpt><trkpt lat="46.1351433" lon="13.0589117"><ele>205.0</ele><time>2026-04-07T15:55:23.391Z</time></trkpt><trkpt lat="46.13499" lon="13.05905"><ele>205.0</ele><time>2026-04-07T15:55:24.389Z</time></trkpt><trkpt lat="46.1348333" lon="13.0591883"><ele>205.0</ele><time>2026-04-07T15:55:25.389Z</time></trkpt><trkpt lat="46.1346767" lon="13.0593317"><ele>204.66666666666666</ele><time>2026-04-07T15:55:26.388Z</time></trkpt><trkpt lat="46.13452" lon="13.0594717"><ele>204.33333333333331</ele><time>2026-04-07T15:55:27.388Z</time></trkpt><trkpt lat="46.1343633" lon="13.0596083"><ele>204.0</ele><time>2026-04-07T15:55:28.389Z</time></trkpt><trkpt lat="46.1342033" lon="13.059745"><ele>203.33333333333331</ele><time>2026-04-07T15:55:29.388Z</time></trkpt><trkpt lat="46.1340467" lon="13.0598767"><ele>202.66666666666666</ele><time>2026-04-07T15:55:30.39Z</time></trkpt><trkpt lat="46.1338883" lon="13.06002"><ele>202.0</ele><time>2026-04-07T15:55:31.389Z</time></trkpt><trkpt lat="46.13373" lon="13.0601667"><ele>202.0</ele><time>2026-04-07T15:55:32.391Z</time></trkpt><trkpt lat="46.133585" lon="13.06034"><ele>202.0</ele><time>2026-04-07T15:55:33.392Z</time></trkpt><trkpt lat="46.1334467" lon="13.06052"><ele>202.0</ele><time>2026-04-07T15:55:34.392Z</time></trkpt><trkpt lat="46.1333067" lon="13.0607"><ele>200.66666666666666</ele><time>2026-04-07T15:55:35.392Z</time></trkpt><trkpt lat="46.1331533" lon="13.06086"><ele>199.33333333333331</ele><time>2026-04-07T15:55:36.393Z</time></trkpt><trkpt lat="46.13301" lon="13.0610283"><ele>198.0</ele><time>2026-04-07T15:55:37.392Z</time></trkpt><trkpt lat="46.1328667" lon="13.0611967"><ele>198.0</ele><time>2026-04-07T15:55:38.391Z</time></trkpt><trkpt lat="46.1327267" lon="13.0613667"><ele>198.0</ele><time>2026-04-07T15:55:39.392Z</time></trkpt><trkpt lat="46.1325833" lon="13.0615333"><ele>198.0</ele><time>2026-04-07T15:55:40.389Z</time></trkpt><trkpt lat="46.13244" lon="13.0616983"><ele>197.0</ele><time>2026-04-07T15:55:41.388Z</time></trkpt><trkpt lat="46.1323" lon="13.061865"><ele>196.0</ele><time>2026-04-07T15:55:42.39Z</time></trkpt><trkpt lat="46.1321617" lon="13.0620283"><ele>195.0</ele><time>2026-04-07T15:55:43.389Z</time></trkpt><trkpt lat="46.13202" lon="13.0621933"><ele>195.0</ele><time>2026-04-07T15:55:44.39Z</time></trkpt><trkpt lat="46.1318817" lon="13.06237"><ele>195.0</ele><time>2026-04-07T15:55:45.389Z</time></trkpt><trkpt lat="46.13174" lon="13.062535"><ele>195.0</ele><time>2026-04-07T15:55:46.39Z</time></trkpt><trkpt lat="46.131575" lon="13.06265"><ele>194.66666666666669</ele><time>2026-04-07T15:55:47.39Z</time></trkpt><trkpt lat="46.1314017" lon="13.0627333"><ele>194.33333333333334</ele><time>2026-04-07T15:55:48.389Z</time></trkpt><trkpt lat="46.131225" lon="13.06281"><ele>194.0</ele><time>2026-04-07T15:55:49.39Z</time></trkpt><trkpt lat="46.131045" lon="13.0628617"><ele>194.0</ele><time>2026-04-07T15:55:50.393Z</time></trkpt><trkpt lat="46.13086" lon="13.06291"><ele>194.0</ele><time>2026-04-07T15:55:51.389Z</time></trkpt><trkpt lat="46.1306933" lon="13.0630083"><ele>194.0</ele><time>2026-04-07T15:55:52.392Z</time></trkpt><trkpt lat="46.1305483" lon="13.0631483"><ele>195.0</ele><time>2026-04-07T15:55:53.39Z</time></trkpt><trkpt lat="46.1304117" lon="13.0633217"><ele>196.0</ele><time>2026-04-07T15:55:54.391Z</time></trkpt><trkpt lat="46.1302867" lon="13.0635283"><ele>197.0</ele><time>2026-04-07T15:55:55.388Z</time></trkpt><trkpt lat="46.1301617" lon="13.0637483"><ele>197.0</ele><time>2026-04-07T15:55:56.39Z</time></trkpt><trkpt lat="46.13003" lon="13.063965"><ele>197.0</ele><time>2026-04-07T15:55:57.389Z</time></trkpt><trkpt lat="46.1298967" lon="13.0641767"><ele>197.0</ele><time>2026-04-07T15:55:58.388Z</time></trkpt><trkpt lat="46.1297633" lon="13.0643883"><ele>196.0</ele><time>2026-04-07T15:55:59.389Z</time></trkpt><trkpt lat="46.129645" lon="13.0646017"><ele>195.0</ele><time>2026-04-07T15:56:00.39Z</time></trkpt><trkpt lat="46.129525" lon="13.0648017"><ele>194.0</ele><time>2026-04-07T15:56:01.392Z</time></trkpt><trkpt lat="46.129405" lon="13.0649967"><ele>194.0</ele><time>2026-04-07T15:56:02.392Z</time></trkpt><trkpt lat="46.129295" lon="13.065195"><ele>194.0</ele><time>2026-04-07T15:56:03.393Z</time></trkpt><trkpt lat="46.1291733" lon="13.065375"><ele>194.0</ele><time>2026-04-07T15:56:04.392Z</time></trkpt><trkpt lat="46.1290533" lon="13.0655583"><ele>195.0</ele><time>2026-04-07T15:56:05.396Z</time></trkpt><trkpt lat="46.1289217" lon="13.0657217"><ele>196.0</ele><time>2026-04-07T15:56:06.392Z</time></trkpt><trkpt lat="46.12879" lon="13.0658683"><ele>197.0</ele><time>2026-04-07T15:56:07.392Z</time></trkpt><trkpt lat="46.1286517" lon="13.065995"><ele>197.0</ele><time>2026-04-07T15:56:08.392Z</time></trkpt><trkpt lat="46.1285017" lon="13.0661117"><ele>197.0</ele><time>2026-04-07T15:56:09.391Z</time></trkpt><trkpt lat="46.1283533" lon="13.066235"><ele>197.0</ele><time>2026-04-07T15:56:10.394Z</time></trkpt><trkpt lat="46.1282133" lon="13.06638"><ele>197.66666666666669</ele><time>2026-04-07T15:56:11.394Z</time></trkpt><trkpt lat="46.1280917" lon="13.0665567"><ele>198.33333333333331</ele><time>2026-04-07T15:56:12.389Z</time></trkpt><trkpt lat="46.1279683" lon="13.0667517"><ele>199.0</ele><time>2026-04-07T15:56:13.39Z</time></trkpt><trkpt lat="46.1278483" lon="13.0669567"><ele>199.0</ele><time>2026-04-07T15:56:14.39Z</time></trkpt><trkpt lat="46.12773" lon="13.067165"><ele>199.0</ele><time>2026-04-07T15:56:15.389Z</time></trkpt><trkpt lat="46.1276067" lon="13.0673733"><ele>199.0</ele><time>2026-04-07T15:56:16.389Z</time></trkpt><trkpt lat="46.1275167" lon="13.0677483"><ele>200.0</ele><time>2026-04-07T15:56:17.83Z</time></trkpt><trkpt lat="46.1273117" lon="13.0679067"><ele>201.0</ele><time>2026-04-07T15:56:18.888Z</time></trkpt><trkpt lat="46.1271317" lon="13.0682117"><ele>199.66666666666669</ele><time>2026-04-07T15:56:20.389Z</time></trkpt><trkpt lat="46.1270283" lon="13.06844"><ele>198.33333333333334</ele><time>2026-04-07T15:56:21.389Z</time></trkpt><trkpt lat="46.1269467" lon="13.0686767"><ele>197.0</ele><time>2026-04-07T15:56:22.391Z</time></trkpt><trkpt lat="46.1268717" lon="13.0689133"><ele>197.33333333333334</ele><time>2026-04-07T15:56:23.389Z</time></trkpt><trkpt lat="46.1268033" lon="13.0691583"><ele>197.66666666666669</ele><time>2026-04-07T15:56:24.39Z</time></trkpt><trkpt lat="46.12673" lon="13.0694033"><ele>198.0</ele><time>2026-04-07T15:56:25.389Z</time></trkpt><trkpt lat="46.126665" lon="13.0696317"><ele>198.0</ele><time>2026-04-07T15:56:26.388Z</time></trkpt><trkpt lat="46.1266" lon="13.069865"><ele>198.0</ele><time>2026-04-07T15:56:27.388Z</time></trkpt><trkpt lat="46.1265367" lon="13.070095"><ele>198.0</ele><time>2026-04-07T15:56:28.39Z</time></trkpt><trkpt lat="46.1264733" lon="13.0703333"><ele>198.33333333333331</ele><time>2026-04-07T15:56:29.389Z</time></trkpt><trkpt lat="46.1264033" lon="13.0705783"><ele>198.66666666666666</ele><time>2026-04-07T15:56:30.39Z</time></trkpt><trkpt lat="46.1263383" lon="13.07082"><ele>199.0</ele><time>2026-04-07T15:56:31.39Z</time></trkpt><trkpt lat="46.1262717" lon="13.0710617"><ele>199.33333333333331</ele><time>2026-04-07T15:56:32.389Z</time></trkpt><trkpt lat="46.1262117" lon="13.07131"><ele>199.66666666666669</ele><time>2026-04-07T15:56:33.39Z</time></trkpt><trkpt lat="46.1261517" lon="13.0715617"><ele>200.0</ele><time>2026-04-07T15:56:34.389Z</time></trkpt><trkpt lat="46.1260783" lon="13.0718117"><ele>200.0</ele><time>2026-04-07T15:56:35.389Z</time></trkpt><trkpt lat="46.1259983" lon="13.0720683"><ele>200.0</ele><time>2026-04-07T15:56:36.39Z</time></trkpt><trkpt lat="46.1259267" lon="13.0723267"><ele>200.0</ele><time>2026-04-07T15:56:37.391Z</time></trkpt><trkpt lat="46.1258433" lon="13.0725783"><ele>200.33333333333334</ele><time>2026-04-07T15:56:38.388Z</time></trkpt><trkpt lat="46.12577" lon="13.0728317"><ele>200.66666666666669</ele><time>2026-04-07T15:56:39.389Z</time></trkpt><trkpt lat="46.1257067" lon="13.0730817"><ele>201.0</ele><time>2026-04-07T15:56:40.388Z</time></trkpt><trkpt lat="46.12564" lon="13.0733267"><ele>201.0</ele><time>2026-04-07T15:56:41.389Z</time></trkpt><trkpt lat="46.1255683" lon="13.0735583"><ele>201.0</ele><time>2026-04-07T15:56:42.39Z</time></trkpt><trkpt lat="46.12549" lon="13.0737817"><ele>201.0</ele><time>2026-04-07T15:56:43.389Z</time></trkpt><trkpt lat="46.1253983" lon="13.0739917"><ele>199.0</ele><time>2026-04-07T15:56:44.388Z</time></trkpt><trkpt lat="46.1253017" lon="13.0741983"><ele>197.0</ele><time>2026-04-07T15:56:45.389Z</time></trkpt><trkpt lat="46.1251867" lon="13.0743883"><ele>195.0</ele><time>2026-04-07T15:56:46.389Z</time></trkpt><trkpt lat="46.1250683" lon="13.074575"><ele>195.0</ele><time>2026-04-07T15:56:47.388Z</time></trkpt><trkpt lat="46.1249417" lon="13.0747533"><ele>195.0</ele><time>2026-04-07T15:56:48.388Z</time></trkpt><trkpt lat="46.12481" lon="13.07493"><ele>195.0</ele><time>2026-04-07T15:56:49.389Z</time></trkpt><trkpt lat="46.1246633" lon="13.075095"><ele>194.33333333333331</ele><time>2026-04-07T15:56:50.391Z</time></trkpt><trkpt lat="46.1245183" lon="13.0752433"><ele>193.66666666666666</ele><time>2026-04-07T15:56:51.39Z</time></trkpt><trkpt lat="46.124365" lon="13.0753617"><ele>193.0</ele><time>2026-04-07T15:56:52.388Z</time></trkpt><trkpt lat="46.12421" lon="13.0754483"><ele>193.0</ele><time>2026-04-07T15:56:53.392Z</time></trkpt><trkpt lat="46.124065" lon="13.0755117"><ele>193.0</ele><time>2026-04-07T15:56:54.389Z</time></trkpt><trkpt lat="46.1239317" lon="13.0755767"><ele>193.0</ele><time>2026-04-07T15:56:55.389Z</time></trkpt><trkpt lat="46.1238017" lon="13.07565"><ele>193.0</ele><time>2026-04-07T15:56:56.388Z</time></trkpt><trkpt lat="46.1236833" lon="13.0757267"><ele>191.4</ele><time>2026-04-07T15:56:57.39Z</time></trkpt><trkpt lat="46.1235983" lon="13.0758183"><ele>189.8</ele><time>2026-04-07T15:56:58.389Z</time></trkpt><trkpt lat="46.1235333" lon="13.0759317"><ele>188.2</ele><time>2026-04-07T15:56:59.39Z</time></trkpt><trkpt lat="46.123485" lon="13.0760583"><ele>186.6</ele><time>2026-04-07T15:57:00.389Z</time></trkpt><trkpt lat="46.12344" lon="13.0761817"><ele>185.0</ele><time>2026-04-07T15:57:01.389Z</time></trkpt><trkpt lat="46.1233883" lon="13.07629"><ele>185.0</ele><time>2026-04-07T15:57:02.39Z</time></trkpt><trkpt lat="46.12332" lon="13.07639"><ele>185.0</ele><time>2026-04-07T15:57:03.389Z</time></trkpt><trkpt lat="46.1232183" lon="13.0764933"><ele>185.0</ele><time>2026-04-07T15:57:04.39Z</time></trkpt><trkpt lat="46.1231033" lon="13.0766033"><ele>185.0</ele><time>2026-04-07T15:57:05.391Z</time></trkpt><trkpt lat="46.1229767" lon="13.0767167"><ele>183.0</ele><time>2026-04-07T15:57:06.39Z</time></trkpt><trkpt lat="46.1228433" lon="13.0768267"><ele>181.0</ele><time>2026-04-07T15:57:07.394Z</time></trkpt><trkpt lat="46.122705" lon="13.0769367"><ele>179.0</ele><time>2026-04-07T15:57:08.389Z</time></trkpt><trkpt lat="46.1225667" lon="13.0770517"><ele>179.0</ele><time>2026-04-07T15:57:09.392Z</time></trkpt><trkpt lat="46.12242" lon="13.0771633"><ele>179.0</ele><time>2026-04-07T15:57:10.39Z</time></trkpt><trkpt lat="46.1222717" lon="13.07728"><ele>179.0</ele><time>2026-04-07T15:57:11.389Z</time></trkpt><trkpt lat="46.12212" lon="13.0773967"><ele>178.33333333333331</ele><time>2026-04-07T15:57:12.39Z</time></trkpt><trkpt lat="46.1219667" lon="13.077515"><ele>177.66666666666666</ele><time>2026-04-07T15:57:13.39Z</time></trkpt><trkpt lat="46.1218133" lon="13.077635"><ele>177.0</ele><time>2026-04-07T15:57:14.39Z</time></trkpt><trkpt lat="46.1216633" lon="13.077755"><ele>176.33333333333334</ele><time>2026-04-07T15:57:15.389Z</time></trkpt><trkpt lat="46.1215167" lon="13.0778833"><ele>175.66666666666669</ele><time>2026-04-07T15:57:16.39Z</time></trkpt><trkpt lat="46.1213733" lon="13.078"><ele>175.0</ele><time>2026-04-07T15:57:17.389Z</time></trkpt><trkpt lat="46.1212267" lon="13.0781133"><ele>175.0</ele><time>2026-04-07T15:57:18.389Z</time></trkpt><trkpt lat="46.1210917" lon="13.0782217"><ele>175.0</ele><time>2026-04-07T15:57:19.392Z</time></trkpt><trkpt lat="46.1209633" lon="13.078325"><ele>175.0</ele><time>2026-04-07T15:57:20.393Z</time></trkpt><trkpt lat="46.1208383" lon="13.0784283"><ele>175.0</ele><time>2026-04-07T15:57:21.396Z</time></trkpt><trkpt lat="46.1207117" lon="13.0785333"><ele>175.0</ele><time>2026-04-07T15:57:22.393Z</time></trkpt><trkpt lat="46.12058" lon="13.0786333"><ele>175.0</ele><time>2026-04-07T15:57:23.392Z</time></trkpt><trkpt lat="46.12045" lon="13.078735"><ele>175.0</ele><time>2026-04-07T15:57:24.392Z</time></trkpt><trkpt lat="46.1203233" lon="13.07884"><ele>175.0</ele><time>2026-04-07T15:57:25.391Z</time></trkpt><trkpt lat="46.1201967" lon="13.07895"><ele>175.0</ele><time>2026-04-07T15:57:26.391Z</time></trkpt><trkpt lat="46.12007" lon="13.0790533"><ele>175.0</ele><time>2026-04-07T15:57:27.392Z</time></trkpt><trkpt lat="46.11995" lon="13.0791517"><ele>175.0</ele><time>2026-04-07T15:57:28.395Z</time></trkpt><trkpt lat="46.1198333" lon="13.07925"><ele>175.0</ele><time>2026-04-07T15:57:29.391Z</time></trkpt><trkpt lat="46.1197217" lon="13.0793433"><ele>174.25</ele><time>2026-04-07T15:57:30.392Z</time></trkpt><trkpt lat="46.11961" lon="13.0794367"><ele>173.5</ele><time>2026-04-07T15:57:31.391Z</time></trkpt><trkpt lat="46.1195017" lon="13.0795183"><ele>172.75</ele><time>2026-04-07T15:57:32.391Z</time></trkpt><trkpt lat="46.1194" lon="13.07959"><ele>172.0</ele><time>2026-04-07T15:57:33.392Z</time></trkpt><trkpt lat="46.1193017" lon="13.0796517"><ele>172.0</ele><time>2026-04-07T15:57:34.392Z</time></trkpt><trkpt lat="46.119215" lon="13.0797167"><ele>172.0</ele><time>2026-04-07T15:57:35.391Z</time></trkpt><trkpt lat="46.1191467" lon="13.0797933"><ele>172.0</ele><time>2026-04-07T15:57:36.391Z</time></trkpt><trkpt lat="46.1190967" lon="13.0799033"><ele>172.0</ele><time>2026-04-07T15:57:37.391Z</time></trkpt><trkpt lat="46.1190583" lon="13.0800367"><ele>172.0</ele><time>2026-04-07T15:57:38.391Z</time></trkpt><trkpt lat="46.119005" lon="13.0801767"><ele>172.0</ele><time>2026-04-07T15:57:39.392Z</time></trkpt><trkpt lat="46.1189217" lon="13.080315"><ele>172.0</ele><time>2026-04-07T15:57:40.391Z</time></trkpt><trkpt lat="46.1188233" lon="13.0804583"><ele>172.0</ele><time>2026-04-07T15:57:41.391Z</time></trkpt><trkpt lat="46.1187167" lon="13.080615"><ele>172.0</ele><time>2026-04-07T15:57:42.392Z</time></trkpt><trkpt lat="46.11861" lon="13.0807767"><ele>172.33333333333334</ele><time>2026-04-07T15:57:43.392Z</time></trkpt><trkpt lat="46.118505" lon="13.0809333"><ele>172.66666666666666</ele><time>2026-04-07T15:57:44.391Z</time></trkpt><trkpt lat="46.1183967" lon="13.0810883"><ele>173.0</ele><time>2026-04-07T15:57:45.392Z</time></trkpt><trkpt lat="46.1182833" lon="13.0812533"><ele>173.66666666666666</ele><time>2026-04-07T15:57:46.391Z</time></trkpt><trkpt lat="46.1181667" lon="13.0814233"><ele>174.33333333333334</ele><time>2026-04-07T15:57:47.39Z</time></trkpt><trkpt lat="46.118055" lon="13.08158"><ele>175.0</ele><time>2026-04-07T15:57:48.389Z</time></trkpt><trkpt lat="46.1179467" lon="13.0817383"><ele>175.66666666666669</ele><time>2026-04-07T15:57:49.39Z</time></trkpt><trkpt lat="46.11784" lon="13.081895"><ele>176.33333333333334</ele><time>2026-04-07T15:57:50.388Z</time></trkpt><trkpt lat="46.1177333" lon="13.08205"><ele>177.0</ele><time>2026-04-07T15:57:51.389Z</time></trkpt><trkpt lat="46.1176283" lon="13.082205"><ele>177.0</ele><time>2026-04-07T15:57:52.39Z</time></trkpt><trkpt lat="46.1175233" lon="13.082355"><ele>177.0</ele><time>2026-04-07T15:57:53.39Z</time></trkpt><trkpt lat="46.1174217" lon="13.0825067"><ele>177.0</ele><time>2026-04-07T15:57:54.389Z</time></trkpt><trkpt lat="46.1173283" lon="13.0826467"><ele>177.0</ele><time>2026-04-07T15:57:55.391Z</time></trkpt><trkpt lat="46.1172433" lon="13.0827733"><ele>177.83333333333334</ele><time>2026-04-07T15:57:56.39Z</time></trkpt><trkpt lat="46.11717" lon="13.0828833"><ele>178.66666666666666</ele><time>2026-04-07T15:57:57.39Z</time></trkpt><trkpt lat="46.117105" lon="13.0829767"><ele>179.5</ele><time>2026-04-07T15:57:58.393Z</time></trkpt><trkpt lat="46.1170467" lon="13.0830633"><ele>180.33333333333331</ele><time>2026-04-07T15:57:59.392Z</time></trkpt><trkpt lat="46.11699" lon="13.08315"><ele>181.16666666666666</ele><time>2026-04-07T15:58:00.391Z</time></trkpt><trkpt lat="46.116935" lon="13.0832333"><ele>182.0</ele><time>2026-04-07T15:58:01.389Z</time></trkpt><trkpt lat="46.11689" lon="13.0833133"><ele>182.0</ele><time>2026-04-07T15:58:02.389Z</time></trkpt><trkpt lat="46.1168217" lon="13.0834217"><ele>182.0</ele><time>2026-04-07T15:58:04.393Z</time></trkpt><trkpt lat="46.1167983" lon="13.08352"><ele>182.0</ele><time>2026-04-07T15:58:06.39Z</time></trkpt><trkpt lat="46.1168617" lon="13.0833733"><ele>182.0</ele><time>2026-04-07T15:58:16.391Z</time></trkpt><trkpt lat="46.11692" lon="13.0832717"><ele>182.0</ele><time>2026-04-07T15:58:17.39Z</time></trkpt><trkpt lat="46.1169817" lon="13.0831767"><ele>182.0</ele><time>2026-04-07T15:58:18.39Z</time></trkpt><trkpt lat="46.1170233" lon="13.0831017"><ele>182.0</ele><time>2026-04-07T15:58:19.39Z</time></trkpt><trkpt lat="46.1170783" lon="13.0830267"><ele>182.0</ele><time>2026-04-07T15:58:21.39Z</time></trkpt><trkpt lat="46.1171467" lon="13.0829667"><ele>182.0</ele><time>2026-04-07T15:58:26.389Z</time></trkpt><trkpt lat="46.11719" lon="13.0829"><ele>182.0</ele><time>2026-04-07T15:58:27.389Z</time></trkpt><trkpt lat="46.11724" lon="13.082825"><ele>182.0</ele><time>2026-04-07T15:58:28.389Z</time></trkpt><trkpt lat="46.11729" lon="13.0827417"><ele>182.0</ele><time>2026-04-07T15:58:29.39Z</time></trkpt><trkpt lat="46.11734" lon="13.082665"><ele>182.0</ele><time>2026-04-07T15:58:30.389Z</time></trkpt><trkpt lat="46.1173867" lon="13.0826017"><ele>182.0</ele><time>2026-04-07T15:58:31.39Z</time></trkpt><trkpt lat="46.11743" lon="13.0825333"><ele>182.0</ele><time>2026-04-07T15:58:32.389Z</time></trkpt><trkpt lat="46.1175017" lon="13.0824117"><ele>182.0</ele><time>2026-04-07T15:58:34.39Z</time></trkpt><trkpt lat="46.117565" lon="13.0823133"><ele>182.0</ele><time>2026-04-07T15:58:36.39Z</time></trkpt><trkpt lat="46.1176467" lon="13.0822033"><ele>182.0</ele><time>2026-04-07T15:58:38.39Z</time></trkpt><trkpt lat="46.117695" lon="13.0821417"><ele>181.0</ele><time>2026-04-07T15:58:39.39Z</time></trkpt><trkpt lat="46.11776" lon="13.0820883"><ele>180.0</ele><time>2026-04-07T15:58:40.393Z</time></trkpt><trkpt lat="46.1178417" lon="13.0820433"><ele>179.0</ele><time>2026-04-07T15:58:41.393Z</time></trkpt><trkpt lat="46.1179567" lon="13.08204"><ele>178.0</ele><time>2026-04-07T15:58:42.389Z</time></trkpt><trkpt lat="46.1180817" lon="13.0820567"><ele>177.0</ele><time>2026-04-07T15:58:43.389Z</time></trkpt><trkpt lat="46.1182167" lon="13.0820783"><ele>176.75</ele><time>2026-04-07T15:58:44.39Z</time></trkpt><trkpt lat="46.1183583" lon="13.082105"><ele>176.5</ele><time>2026-04-07T15:58:45.39Z</time></trkpt><trkpt lat="46.118505" lon="13.08214"><ele>176.25</ele><time>2026-04-07T15:58:46.392Z</time></trkpt><trkpt lat="46.1186467" lon="13.0821983"><ele>176.0</ele><time>2026-04-07T15:58:47.389Z</time></trkpt><trkpt lat="46.1187783" lon="13.082275"><ele>176.0</ele><time>2026-04-07T15:58:48.389Z</time></trkpt><trkpt lat="46.1189117" lon="13.08235"><ele>176.0</ele><time>2026-04-07T15:58:49.39Z</time></trkpt><trkpt lat="46.1190433" lon="13.0824167"><ele>176.0</ele><time>2026-04-07T15:58:50.39Z</time></trkpt><trkpt lat="46.1191767" lon="13.0824767"><ele>176.0</ele><time>2026-04-07T15:58:51.393Z</time></trkpt><trkpt lat="46.1193117" lon="13.0825317"><ele>176.5</ele><time>2026-04-07T15:58:52.39Z</time></trkpt><trkpt lat="46.11945" lon="13.0825833"><ele>177.0</ele><time>2026-04-07T15:58:53.393Z</time></trkpt><trkpt lat="46.1195933" lon="13.0826283"><ele>177.5</ele><time>2026-04-07T15:58:54.393Z</time></trkpt><trkpt lat="46.1197367" lon="13.082665"><ele>178.0</ele><time>2026-04-07T15:58:55.389Z</time></trkpt><trkpt lat="46.119885" lon="13.0827017"><ele>177.0</ele><time>2026-04-07T15:58:56.392Z</time></trkpt><trkpt lat="46.1200333" lon="13.0827433"><ele>176.0</ele><time>2026-04-07T15:58:57.391Z</time></trkpt><trkpt lat="46.1201867" lon="13.0827867"><ele>175.0</ele><time>2026-04-07T15:58:58.39Z</time></trkpt><trkpt lat="46.12034" lon="13.0828283"><ele>175.0</ele><time>2026-04-07T15:58:59.389Z</time></trkpt><trkpt lat="46.12049" lon="13.0828733"><ele>175.0</ele><time>2026-04-07T15:59:00.392Z</time></trkpt><trkpt lat="46.1206417" lon="13.0829167"><ele>175.0</ele><time>2026-04-07T15:59:01.392Z</time></trkpt><trkpt lat="46.1207917" lon="13.08296"><ele>174.75</ele><time>2026-04-07T15:59:02.389Z</time></trkpt><trkpt lat="46.1209383" lon="13.0829983"><ele>174.5</ele><time>2026-04-07T15:59:03.392Z</time></trkpt><trkpt lat="46.1210867" lon="13.0830417"><ele>174.25</ele><time>2026-04-07T15:59:04.392Z</time></trkpt><trkpt lat="46.1212317" lon="13.0830883"><ele>174.0</ele><time>2026-04-07T15:59:05.39Z</time></trkpt><trkpt lat="46.1213733" lon="13.08313"><ele>174.0</ele><time>2026-04-07T15:59:06.39Z</time></trkpt><trkpt lat="46.1215183" lon="13.08317"><ele>174.0</ele><time>2026-04-07T15:59:07.391Z</time></trkpt><trkpt lat="46.121665" lon="13.08321"><ele>174.0</ele><time>2026-04-07T15:59:08.392Z</time></trkpt><trkpt lat="46.1218133" lon="13.0832467"><ele>174.0</ele><time>2026-04-07T15:59:09.39Z</time></trkpt><trkpt lat="46.1219583" lon="13.0832867"><ele>173.5</ele><time>2026-04-07T15:59:10.391Z</time></trkpt><trkpt lat="46.1221017" lon="13.0833283"><ele>173.0</ele><time>2026-04-07T15:59:11.392Z</time></trkpt><trkpt lat="46.1222417" lon="13.0833667"><ele>172.5</ele><time>2026-04-07T15:59:12.393Z</time></trkpt><trkpt lat="46.12238" lon="13.08341"><ele>172.0</ele><time>2026-04-07T15:59:13.393Z</time></trkpt><trkpt lat="46.1225167" lon="13.0834517"><ele>171.75</ele><time>2026-04-07T15:59:14.392Z</time></trkpt><trkpt lat="46.1226517" lon="13.0834967"><ele>171.5</ele><time>2026-04-07T15:59:15.393Z</time></trkpt><trkpt lat="46.122785" lon="13.0835383"><ele>171.25</ele><time>2026-04-07T15:59:16.391Z</time></trkpt><trkpt lat="46.1229117" lon="13.0835767"><ele>171.0</ele><time>2026-04-07T15:59:17.389Z</time></trkpt><trkpt lat="46.1230333" lon="13.0836083"><ele>171.0</ele><time>2026-04-07T15:59:18.391Z</time></trkpt><trkpt lat="46.123145" lon="13.0836367"><ele>171.0</ele><time>2026-04-07T15:59:19.391Z</time></trkpt><trkpt lat="46.1232517" lon="13.083665"><ele>171.0</ele><time>2026-04-07T15:59:20.389Z</time></trkpt><trkpt lat="46.12335" lon="13.0836967"><ele>171.0</ele><time>2026-04-07T15:59:21.391Z</time></trkpt><trkpt lat="46.1234433" lon="13.08374"><ele>171.0</ele><time>2026-04-07T15:59:22.389Z</time></trkpt><trkpt lat="46.12353" lon="13.0838"><ele>171.20000000000002</ele><time>2026-04-07T15:59:23.391Z</time></trkpt><trkpt lat="46.1236083" lon="13.0838833"><ele>171.4</ele><time>2026-04-07T15:59:24.392Z</time></trkpt><trkpt lat="46.123665" lon="13.0839967"><ele>171.6</ele><time>2026-04-07T15:59:25.393Z</time></trkpt><trkpt lat="46.123705" lon="13.08413"><ele>171.8</ele><time>2026-04-07T15:59:26.393Z</time></trkpt><trkpt lat="46.1237267" lon="13.084285"><ele>172.0</ele><time>2026-04-07T15:59:27.391Z</time></trkpt><trkpt lat="46.1237417" lon="13.0844633"><ele>172.5</ele><time>2026-04-07T15:59:28.392Z</time></trkpt><trkpt lat="46.1237533" lon="13.0846533"><ele>173.0</ele><time>2026-04-07T15:59:29.392Z</time></trkpt><trkpt lat="46.123765" lon="13.0848533"><ele>173.5</ele><time>2026-04-07T15:59:30.391Z</time></trkpt><trkpt lat="46.1237733" lon="13.0850633"><ele>174.0</ele><time>2026-04-07T15:59:31.391Z</time></trkpt><trkpt lat="46.1237833" lon="13.0852783"><ele>174.5</ele><time>2026-04-07T15:59:32.391Z</time></trkpt><trkpt lat="46.123795" lon="13.0854917"><ele>175.0</ele><time>2026-04-07T15:59:33.39Z</time></trkpt><trkpt lat="46.1238017" lon="13.0856933"><ele>175.5</ele><time>2026-04-07T15:59:34.39Z</time></trkpt><trkpt lat="46.1238133" lon="13.0858833"><ele>176.0</ele><time>2026-04-07T15:59:35.39Z</time></trkpt><trkpt lat="46.1238183" lon="13.0860617"><ele>176.25</ele><time>2026-04-07T15:59:36.391Z</time></trkpt><trkpt lat="46.1238317" lon="13.086245"><ele>176.5</ele><time>2026-04-07T15:59:37.392Z</time></trkpt><trkpt lat="46.12385" lon="13.086435"><ele>176.75</ele><time>2026-04-07T15:59:38.39Z</time></trkpt><trkpt lat="46.123875" lon="13.086625"><ele>177.0</ele><time>2026-04-07T15:59:39.389Z</time></trkpt><trkpt lat="46.1238983" lon="13.0868133"><ele>177.0</ele><time>2026-04-07T15:59:40.392Z</time></trkpt><trkpt lat="46.1239267" lon="13.087"><ele>177.0</ele><time>2026-04-07T15:59:41.392Z</time></trkpt><trkpt lat="46.1239567" lon="13.0871867"><ele>177.0</ele><time>2026-04-07T15:59:42.392Z</time></trkpt><trkpt lat="46.1239867" lon="13.087375"><ele>177.0</ele><time>2026-04-07T15:59:43.392Z</time></trkpt><trkpt lat="46.1240133" lon="13.0875567"><ele>177.0</ele><time>2026-04-07T15:59:44.394Z</time></trkpt><trkpt lat="46.1240317" lon="13.0877317"><ele>177.0</ele><time>2026-04-07T15:59:45.389Z</time></trkpt><trkpt lat="46.12405" lon="13.08791"><ele>177.0</ele><time>2026-04-07T15:59:46.391Z</time></trkpt><trkpt lat="46.1240683" lon="13.0880883"><ele>177.0</ele><time>2026-04-07T15:59:47.392Z</time></trkpt><trkpt lat="46.124085" lon="13.088275"><ele>177.0</ele><time>2026-04-07T15:59:48.392Z</time></trkpt><trkpt lat="46.124105" lon="13.0884583"><ele>177.0</ele><time>2026-04-07T15:59:49.394Z</time></trkpt><trkpt lat="46.124125" lon="13.088645"><ele>177.0</ele><time>2026-04-07T15:59:50.392Z</time></trkpt><trkpt lat="46.12414" lon="13.0888317"><ele>177.0</ele><time>2026-04-07T15:59:51.391Z</time></trkpt><trkpt lat="46.1241483" lon="13.0890117"><ele>177.0</ele><time>2026-04-07T15:59:52.391Z</time></trkpt><trkpt lat="46.12415" lon="13.08919"><ele>177.0</ele><time>2026-04-07T15:59:53.393Z</time></trkpt><trkpt lat="46.1241467" lon="13.0893633"><ele>177.0</ele><time>2026-04-07T15:59:54.392Z</time></trkpt><trkpt lat="46.1241383" lon="13.08952"><ele>177.0</ele><time>2026-04-07T15:59:55.391Z</time></trkpt><trkpt lat="46.1241217" lon="13.0896633"><ele>177.0</ele><time>2026-04-07T15:59:56.391Z</time></trkpt><trkpt lat="46.1241067" lon="13.0898083"><ele>177.0</ele><time>2026-04-07T15:59:57.392Z</time></trkpt><trkpt lat="46.124105" lon="13.0899433"><ele>177.0</ele><time>2026-04-07T15:59:58.389Z</time></trkpt><trkpt lat="46.12411" lon="13.0900767"><ele>177.0</ele><time>2026-04-07T15:59:59.389Z</time></trkpt><trkpt lat="46.1241217" lon="13.0902017"><ele>177.0</ele><time>2026-04-07T16:00:00.391Z</time></trkpt><trkpt lat="46.124135" lon="13.09031"><ele>176.6</ele><time>2026-04-07T16:00:01.389Z</time></trkpt><trkpt lat="46.12412" lon="13.0904283"><ele>176.2</ele><time>2026-04-07T16:00:03.389Z</time></trkpt><trkpt lat="46.1240383" lon="13.0904567"><ele>175.8</ele><time>2026-04-07T16:00:05.39Z</time></trkpt><trkpt lat="46.123915" lon="13.0904433"><ele>175.4</ele><time>2026-04-07T16:00:07.389Z</time></trkpt><trkpt lat="46.1238367" lon="13.0904317"><ele>175.0</ele><time>2026-04-07T16:00:08.391Z</time></trkpt><trkpt lat="46.123745" lon="13.0904183"><ele>175.8</ele><time>2026-04-07T16:00:09.39Z</time></trkpt><trkpt lat="46.1236433" lon="13.090405"><ele>176.6</ele><time>2026-04-07T16:00:10.389Z</time></trkpt><trkpt lat="46.1235367" lon="13.0903917"><ele>177.39999999999998</ele><time>2026-04-07T16:00:11.391Z</time></trkpt><trkpt lat="46.1234267" lon="13.090375"><ele>178.2</ele><time>2026-04-07T16:00:12.392Z</time></trkpt><trkpt lat="46.12332" lon="13.0903617"><ele>179.0</ele><time>2026-04-07T16:00:13.392Z</time></trkpt><trkpt lat="46.123215" lon="13.0903517"><ele>180.39999999999998</ele><time>2026-04-07T16:00:14.395Z</time></trkpt><trkpt lat="46.1231183" lon="13.0903383"><ele>181.8</ele><time>2026-04-07T16:00:15.392Z</time></trkpt><trkpt lat="46.12303" lon="13.0903233"><ele>183.2</ele><time>2026-04-07T16:00:16.393Z</time></trkpt><trkpt lat="46.1229433" lon="13.0903033"><ele>184.60000000000002</ele><time>2026-04-07T16:00:17.392Z</time></trkpt><trkpt lat="46.12287" lon="13.090295"><ele>186.0</ele><time>2026-04-07T16:00:18.392Z</time></trkpt><trkpt lat="46.122745" lon="13.0902617"><ele>186.00000000000003</ele><time>2026-04-07T16:00:20.391Z</time></trkpt><trkpt lat="46.1226883" lon="13.0902183"><ele>186.0</ele><time>2026-04-07T16:00:21.392Z</time></trkpt><trkpt lat="46.1226383" lon="13.0901567"><ele>186.0</ele><time>2026-04-07T16:00:22.39Z</time></trkpt><trkpt lat="46.12261" lon="13.090075"><ele>186.0</ele><time>2026-04-07T16:00:23.391Z</time></trkpt><trkpt lat="46.122585" lon="13.0899667"><ele>186.0</ele><time>2026-04-07T16:00:24.391Z</time></trkpt><trkpt lat="46.1225683" lon="13.0898483"><ele>186.00000000000003</ele><time>2026-04-07T16:00:25.392Z</time></trkpt><trkpt lat="46.1225267" lon="13.0897433"><ele>186.0</ele><time>2026-04-07T16:00:26.391Z</time></trkpt><trkpt lat="46.122485" lon="13.0896233"><ele>185.60000000000002</ele><time>2026-04-07T16:00:27.391Z</time></trkpt><trkpt lat="46.1224517" lon="13.0894917"><ele>185.2</ele><time>2026-04-07T16:00:28.39Z</time></trkpt><trkpt lat="46.1223967" lon="13.08937"><ele>184.8</ele><time>2026-04-07T16:00:29.389Z</time></trkpt><trkpt lat="46.1223383" lon="13.08924"><ele>184.39999999999998</ele><time>2026-04-07T16:00:30.389Z</time></trkpt><trkpt lat="46.12228" lon="13.089095"><ele>184.0</ele><time>2026-04-07T16:00:31.389Z</time></trkpt><trkpt lat="46.1222133" lon="13.0889583"><ele>185.6</ele><time>2026-04-07T16:00:32.392Z</time></trkpt><trkpt lat="46.1221417" lon="13.08884"><ele>187.2</ele><time>2026-04-07T16:00:33.389Z</time></trkpt><trkpt lat="46.1221017" lon="13.088685"><ele>188.79999999999998</ele><time>2026-04-07T16:00:34.392Z</time></trkpt><trkpt lat="46.12203" lon="13.0885617"><ele>190.39999999999998</ele><time>2026-04-07T16:00:35.389Z</time></trkpt><trkpt lat="46.1219683" lon="13.088425"><ele>192.0</ele><time>2026-04-07T16:00:36.391Z</time></trkpt><trkpt lat="46.121905" lon="13.0882883"><ele>191.2</ele><time>2026-04-07T16:00:37.39Z</time></trkpt><trkpt lat="46.1218417" lon="13.0881633"><ele>190.39999999999998</ele><time>2026-04-07T16:00:38.389Z</time></trkpt><trkpt lat="46.1217783" lon="13.0880483"><ele>189.60000000000002</ele><time>2026-04-07T16:00:39.396Z</time></trkpt><trkpt lat="46.12172" lon="13.087935"><ele>188.8</ele><time>2026-04-07T16:00:40.39Z</time></trkpt><trkpt lat="46.1216683" lon="13.0878217"><ele>188.0</ele><time>2026-04-07T16:00:41.391Z</time></trkpt><trkpt lat="46.121625" lon="13.0877167"><ele>188.0</ele><time>2026-04-07T16:00:42.392Z</time></trkpt><trkpt lat="46.1215783" lon="13.0875833"><ele>188.0</ele><time>2026-04-07T16:00:44.391Z</time></trkpt><trkpt lat="46.1215817" lon="13.0877033"><ele>188.0</ele><time>2026-04-07T16:01:18.39Z</time></trkpt><trkpt lat="46.12155" lon="13.087825"><ele>188.0</ele><time>2026-04-07T16:01:25.391Z</time></trkpt><trkpt lat="46.1215" lon="13.0878833"><ele>188.0</ele><time>2026-04-07T16:01:26.393Z</time></trkpt><trkpt lat="46.1214517" lon="13.0879667"><ele>188.0</ele><time>2026-04-07T16:01:27.396Z</time></trkpt><trkpt lat="46.1214017" lon="13.088065"><ele>188.16666666666666</ele><time>2026-04-07T16:01:28.389Z</time></trkpt><trkpt lat="46.1213533" lon="13.0881533"><ele>188.33333333333331</ele><time>2026-04-07T16:01:29.389Z</time></trkpt><trkpt lat="46.1213267" lon="13.08825"><ele>188.5</ele><time>2026-04-07T16:01:30.393Z</time></trkpt><trkpt lat="46.1212867" lon="13.0883217"><ele>188.66666666666666</ele><time>2026-04-07T16:01:31.389Z</time></trkpt><trkpt lat="46.1212233" lon="13.0884667"><ele>188.83333333333334</ele><time>2026-04-07T16:01:33.391Z</time></trkpt><trkpt lat="46.1211817" lon="13.088535"><ele>189.0</ele><time>2026-04-07T16:01:34.392Z</time></trkpt><trkpt lat="46.12113" lon="13.0885983"><ele>189.5</ele><time>2026-04-07T16:01:35.39Z</time></trkpt><trkpt lat="46.1210617" lon="13.0887033"><ele>190.0</ele><time>2026-04-07T16:01:37.39Z</time></trkpt><trkpt lat="46.1209967" lon="13.0887083"><ele>190.5</ele><time>2026-04-07T16:01:39.39Z</time></trkpt><trkpt lat="46.1209317" lon="13.088705"><ele>191.0</ele><time>2026-04-07T16:01:41.392Z</time></trkpt><trkpt lat="46.1208617" lon="13.088665"><ele>191.5</ele><time>2026-04-07T16:01:51.392Z</time></trkpt><trkpt lat="46.120825" lon="13.088555"><ele>192.0</ele><time>2026-04-07T16:01:53.392Z</time></trkpt><trkpt lat="46.1207517" lon="13.0885667"><ele>193.2</ele><time>2026-04-07T16:01:56.392Z</time></trkpt><trkpt lat="46.1206433" lon="13.088705"><ele>194.39999999999998</ele><time>2026-04-07T16:01:58.391Z</time></trkpt><trkpt lat="46.120565" lon="13.088795"><ele>195.60000000000002</ele><time>2026-04-07T16:01:59.389Z</time></trkpt><trkpt lat="46.120485" lon="13.088885"><ele>196.8</ele><time>2026-04-07T16:02:00.39Z</time></trkpt><trkpt lat="46.1204183" lon="13.0889717"><ele>198.0</ele><time>2026-04-07T16:02:01.392Z</time></trkpt><trkpt lat="46.1203783" lon="13.0890767"><ele>198.5</ele><time>2026-04-07T16:02:02.393Z</time></trkpt><trkpt lat="46.1203467" lon="13.0891867"><ele>199.0</ele><time>2026-04-07T16:02:03.393Z</time></trkpt><trkpt lat="46.1203433" lon="13.0892933"><ele>199.5</ele><time>2026-04-07T16:02:04.389Z</time></trkpt><trkpt lat="46.1203617" lon="13.0894"><ele>200.0</ele><time>2026-04-07T16:02:05.39Z</time></trkpt><trkpt lat="46.12038" lon="13.0895233"><ele>200.5</ele><time>2026-04-07T16:02:06.39Z</time></trkpt><trkpt lat="46.1204033" lon="13.0896583"><ele>201.0</ele><time>2026-04-07T16:02:07.39Z</time></trkpt><trkpt lat="46.1204167" lon="13.0897917"><ele>201.0</ele><time>2026-04-07T16:02:08.389Z</time></trkpt><trkpt lat="46.1204217" lon="13.089925"><ele>201.0</ele><time>2026-04-07T16:02:09.39Z</time></trkpt><trkpt lat="46.1204217" lon="13.0900567"><ele>201.0</ele><time>2026-04-07T16:02:10.392Z</time></trkpt><trkpt lat="46.12042" lon="13.090185"><ele>201.0</ele><time>2026-04-07T16:02:11.391Z</time></trkpt><trkpt lat="46.1204217" lon="13.090305"><ele>201.0</ele><time>2026-04-07T16:02:12.391Z</time></trkpt><trkpt lat="46.12043" lon="13.09042"><ele>201.0</ele><time>2026-04-07T16:02:13.391Z</time></trkpt><trkpt lat="46.120445" lon="13.0905217"><ele>200.85714285714286</ele><time>2026-04-07T16:02:14.388Z</time></trkpt><trkpt lat="46.1204617" lon="13.0906167"><ele>200.71428571428572</ele><time>2026-04-07T16:02:15.392Z</time></trkpt><trkpt lat="46.1204767" lon="13.090715"><ele>200.57142857142858</ele><time>2026-04-07T16:02:16.392Z</time></trkpt><trkpt lat="46.1204883" lon="13.090815"><ele>200.42857142857144</ele><time>2026-04-07T16:02:17.393Z</time></trkpt><trkpt lat="46.1204983" lon="13.0909233"><ele>200.28571428571428</ele><time>2026-04-07T16:02:18.392Z</time></trkpt><trkpt lat="46.1205067" lon="13.0910283"><ele>200.14285714285717</ele><time>2026-04-07T16:02:19.393Z</time></trkpt><trkpt lat="46.1205117" lon="13.09113"><ele>200.0</ele><time>2026-04-07T16:02:20.393Z</time></trkpt><trkpt lat="46.1205183" lon="13.091235"><ele>199.66666666666669</ele><time>2026-04-07T16:02:21.391Z</time></trkpt><trkpt lat="46.1205233" lon="13.0913383"><ele>199.33333333333334</ele><time>2026-04-07T16:02:22.391Z</time></trkpt><trkpt lat="46.1205317" lon="13.091445"><ele>199.0</ele><time>2026-04-07T16:02:23.392Z</time></trkpt><trkpt lat="46.1205417" lon="13.09156"><ele>198.66666666666669</ele><time>2026-04-07T16:02:24.392Z</time></trkpt><trkpt lat="46.1205517" lon="13.0916767"><ele>198.33333333333334</ele><time>2026-04-07T16:02:25.392Z</time></trkpt><trkpt lat="46.1205617" lon="13.091795"><ele>198.0</ele><time>2026-04-07T16:02:26.392Z</time></trkpt><trkpt lat="46.1205717" lon="13.0919117"><ele>198.0</ele><time>2026-04-07T16:02:27.392Z</time></trkpt><trkpt lat="46.1205833" lon="13.0920233"><ele>198.0</ele><time>2026-04-07T16:02:28.393Z</time></trkpt><trkpt lat="46.120595" lon="13.0921283"><ele>198.0</ele><time>2026-04-07T16:02:29.393Z</time></trkpt><trkpt lat="46.120605" lon="13.0922233"><ele>198.0</ele><time>2026-04-07T16:02:30.393Z</time></trkpt><trkpt lat="46.1205967" lon="13.092385"><ele>198.0</ele><time>2026-04-07T16:02:32.39Z</time></trkpt><trkpt lat="46.1205533" lon="13.0925117"><ele>198.0</ele><time>2026-04-07T16:02:34.392Z</time></trkpt><trkpt lat="46.1205767" lon="13.0926417"><ele>198.0</ele><time>2026-04-07T16:02:36.389Z</time></trkpt><trkpt lat="46.1205967" lon="13.09274"><ele>198.0</ele><time>2026-04-07T16:02:37.391Z</time></trkpt><trkpt lat="46.1206217" lon="13.0928567"><ele>198.0</ele><time>2026-04-07T16:02:38.392Z</time></trkpt><trkpt lat="46.120645" lon="13.092985"><ele>198.0</ele><time>2026-04-07T16:02:39.391Z</time></trkpt><trkpt lat="46.1206833" lon="13.09311"><ele>198.0</ele><time>2026-04-07T16:02:40.391Z</time></trkpt><trkpt lat="46.120715" lon="13.0932417"><ele>198.0</ele><time>2026-04-07T16:02:41.389Z</time></trkpt><trkpt lat="46.1207433" lon="13.093365"><ele>198.0</ele><time>2026-04-07T16:02:42.391Z</time></trkpt><trkpt lat="46.1207767" lon="13.0934683"><ele>198.0</ele><time>2026-04-07T16:02:43.392Z</time></trkpt><trkpt lat="46.1208217" lon="13.0935933"><ele>198.0</ele><time>2026-04-07T16:02:45.391Z</time></trkpt><trkpt lat="46.120775" lon="13.0936967"><ele>198.0</ele><time>2026-04-07T16:02:47.392Z</time></trkpt><trkpt lat="46.1207483" lon="13.0937967"><ele>198.0</ele><time>2026-04-07T16:02:49.392Z</time></trkpt><trkpt lat="46.1207617" lon="13.0939467"><ele>198.0</ele><time>2026-04-07T16:02:51.392Z</time></trkpt><trkpt lat="46.1208333" lon="13.094115"><ele>198.66666666666666</ele><time>2026-04-07T16:02:53.393Z</time></trkpt><trkpt lat="46.120885" lon="13.09421"><ele>199.33333333333331</ele><time>2026-04-07T16:02:54.392Z</time></trkpt><trkpt lat="46.1209217" lon="13.0943083"><ele>200.0</ele><time>2026-04-07T16:02:55.392Z</time></trkpt><trkpt lat="46.1209667" lon="13.0944"><ele>200.66666666666666</ele><time>2026-04-07T16:02:56.393Z</time></trkpt><trkpt lat="46.1210083" lon="13.0944933"><ele>201.33333333333331</ele><time>2026-04-07T16:02:57.393Z</time></trkpt><trkpt lat="46.1210217" lon="13.0945967"><ele>202.0</ele><time>2026-04-07T16:02:58.392Z</time></trkpt><trkpt lat="46.1210367" lon="13.0946933"><ele>202.0</ele><time>2026-04-07T16:02:59.391Z</time></trkpt><trkpt lat="46.12103" lon="13.0947867"><ele>202.0</ele><time>2026-04-07T16:03:00.391Z</time></trkpt><trkpt lat="46.1209933" lon="13.0949267"><ele>202.0</ele><time>2026-04-07T16:03:02.391Z</time></trkpt><trkpt lat="46.1208933" lon="13.0949733"><ele>202.0</ele><time>2026-04-07T16:03:04.392Z</time></trkpt><trkpt lat="46.12079" lon="13.0949083"><ele>202.0</ele><time>2026-04-07T16:03:06.39Z</time></trkpt><trkpt lat="46.120735" lon="13.09486"><ele>203.39999999999998</ele><time>2026-04-07T16:03:07.39Z</time></trkpt><trkpt lat="46.1206233" lon="13.0948133"><ele>204.79999999999998</ele><time>2026-04-07T16:03:09.391Z</time></trkpt><trkpt lat="46.1205367" lon="13.0948483"><ele>206.2</ele><time>2026-04-07T16:03:11.391Z</time></trkpt><trkpt lat="46.1205317" lon="13.0949567"><ele>207.6</ele><time>2026-04-07T16:03:14.393Z</time></trkpt><trkpt lat="46.1205483" lon="13.09513"><ele>209.0</ele><time>2026-04-07T16:03:17.391Z</time></trkpt><trkpt lat="46.12054" lon="13.095225"><ele>210.00000000000003</ele><time>2026-04-07T16:03:18.391Z</time></trkpt><trkpt lat="46.1205333" lon="13.09533"><ele>211.0</ele><time>2026-04-07T16:03:19.391Z</time></trkpt><trkpt lat="46.1205283" lon="13.0954467"><ele>212.0</ele><time>2026-04-07T16:03:20.392Z</time></trkpt><trkpt lat="46.1205017" lon="13.09557"><ele>213.0</ele><time>2026-04-07T16:03:21.391Z</time></trkpt><trkpt lat="46.1204867" lon="13.0957067"><ele>214.00000000000003</ele><time>2026-04-07T16:03:22.391Z</time></trkpt><trkpt lat="46.120475" lon="13.095845"><ele>215.0</ele><time>2026-04-07T16:03:23.392Z</time></trkpt><trkpt lat="46.1204633" lon="13.095985"><ele>215.2</ele><time>2026-04-07T16:03:24.391Z</time></trkpt><trkpt lat="46.1204467" lon="13.0961317"><ele>215.4</ele><time>2026-04-07T16:03:25.391Z</time></trkpt><trkpt lat="46.1204383" lon="13.096285"><ele>215.60000000000002</ele><time>2026-04-07T16:03:26.393Z</time></trkpt><trkpt lat="46.1203883" lon="13.0964233"><ele>215.8</ele><time>2026-04-07T16:03:27.392Z</time></trkpt><trkpt lat="46.1203633" lon="13.0965617"><ele>216.0</ele><time>2026-04-07T16:03:28.389Z</time></trkpt><trkpt lat="46.1203433" lon="13.09669"><ele>216.0</ele><time>2026-04-07T16:03:29.389Z</time></trkpt><trkpt lat="46.1203" lon="13.0968017"><ele>216.00000000000003</ele><time>2026-04-07T16:03:30.39Z</time></trkpt><trkpt lat="46.12028" lon="13.09692"><ele>216.00000000000003</ele><time>2026-04-07T16:03:31.39Z</time></trkpt><trkpt lat="46.1202217" lon="13.0970217"><ele>216.0</ele><time>2026-04-07T16:03:32.391Z</time></trkpt><trkpt lat="46.1201767" lon="13.0971383"><ele>216.0</ele><time>2026-04-07T16:03:33.391Z</time></trkpt><trkpt lat="46.120145" lon="13.097265"><ele>216.0</ele><time>2026-04-07T16:03:34.39Z</time></trkpt><trkpt lat="46.1200967" lon="13.097395"><ele>216.00000000000003</ele><time>2026-04-07T16:03:35.39Z</time></trkpt><trkpt lat="46.12005" lon="13.0975233"><ele>216.00000000000003</ele><time>2026-04-07T16:03:36.391Z</time></trkpt><trkpt lat="46.1200267" lon="13.0976733"><ele>216.0</ele><time>2026-04-07T16:03:37.391Z</time></trkpt><trkpt lat="46.1199883" lon="13.097795"><ele>216.0</ele><time>2026-04-07T16:03:38.392Z</time></trkpt><trkpt lat="46.11997" lon="13.0979083"><ele>215.5</ele><time>2026-04-07T16:03:39.392Z</time></trkpt><trkpt lat="46.1199583" lon="13.098015"><ele>215.0</ele><time>2026-04-07T16:03:40.391Z</time></trkpt><trkpt lat="46.11997" lon="13.098125"><ele>214.5</ele><time>2026-04-07T16:03:41.395Z</time></trkpt><trkpt lat="46.1199967" lon="13.0982317"><ele>214.0</ele><time>2026-04-07T16:03:42.389Z</time></trkpt><trkpt lat="46.1200383" lon="13.0983267"><ele>213.5</ele><time>2026-04-07T16:03:43.39Z</time></trkpt><trkpt lat="46.120085" lon="13.0984367"><ele>213.0</ele><time>2026-04-07T16:03:44.392Z</time></trkpt><trkpt lat="46.1201217" lon="13.0985533"><ele>211.66666666666666</ele><time>2026-04-07T16:03:45.391Z</time></trkpt><trkpt lat="46.1201583" lon="13.0986667"><ele>210.33333333333331</ele><time>2026-04-07T16:03:46.392Z</time></trkpt><trkpt lat="46.120185" lon="13.09878"><ele>209.0</ele><time>2026-04-07T16:03:47.392Z</time></trkpt><trkpt lat="46.1201867" lon="13.0989033"><ele>207.66666666666666</ele><time>2026-04-07T16:03:48.391Z</time></trkpt><trkpt lat="46.120185" lon="13.09902"><ele>206.33333333333331</ele><time>2026-04-07T16:03:49.39Z</time></trkpt><trkpt lat="46.1201717" lon="13.0991367"><ele>205.0</ele><time>2026-04-07T16:03:50.392Z</time></trkpt><trkpt lat="46.12017" lon="13.0992483"><ele>203.8</ele><time>2026-04-07T16:03:51.393Z</time></trkpt><trkpt lat="46.1201683" lon="13.0993717"><ele>202.6</ele><time>2026-04-07T16:03:52.388Z</time></trkpt><trkpt lat="46.120165" lon="13.0994967"><ele>201.39999999999998</ele><time>2026-04-07T16:03:53.388Z</time></trkpt><trkpt lat="46.12014" lon="13.0996133"><ele>200.2</ele><time>2026-04-07T16:03:54.391Z</time></trkpt><trkpt lat="46.1201067" lon="13.0997417"><ele>199.0</ele><time>2026-04-07T16:03:55.389Z</time></trkpt><trkpt lat="46.1200417" lon="13.0998517"><ele>199.0</ele><time>2026-04-07T16:03:56.391Z</time></trkpt><trkpt lat="46.11999" lon="13.0999633"><ele>199.0</ele><time>2026-04-07T16:03:57.388Z</time></trkpt><trkpt lat="46.1199633" lon="13.1000867"><ele>199.0</ele><time>2026-04-07T16:03:58.391Z</time></trkpt><trkpt lat="46.1199383" lon="13.1002183"><ele>199.0</ele><time>2026-04-07T16:03:59.391Z</time></trkpt><trkpt lat="46.119915" lon="13.10035"><ele>199.0</ele><time>2026-04-07T16:04:00.392Z</time></trkpt><trkpt lat="46.119895" lon="13.1004867"><ele>198.99999999999997</ele><time>2026-04-07T16:04:01.39Z</time></trkpt><trkpt lat="46.119865" lon="13.1006183"><ele>199.0</ele><time>2026-04-07T16:04:02.39Z</time></trkpt><trkpt lat="46.119855" lon="13.1007517"><ele>199.0</ele><time>2026-04-07T16:04:03.389Z</time></trkpt><trkpt lat="46.1198783" lon="13.1008767"><ele>199.0</ele><time>2026-04-07T16:04:04.388Z</time></trkpt><trkpt lat="46.119915" lon="13.1009883"><ele>198.99999999999997</ele><time>2026-04-07T16:04:05.391Z</time></trkpt><trkpt lat="46.119915" lon="13.1010817"><ele>199.0</ele><time>2026-04-07T16:04:06.392Z</time></trkpt><trkpt lat="46.1198933" lon="13.1011983"><ele>198.16666666666666</ele><time>2026-04-07T16:04:08.389Z</time></trkpt><trkpt lat="46.1198" lon="13.1012517"><ele>197.33333333333331</ele><time>2026-04-07T16:04:10.392Z</time></trkpt><trkpt lat="46.1197317" lon="13.101285"><ele>196.5</ele><time>2026-04-07T16:04:11.392Z</time></trkpt><trkpt lat="46.1196633" lon="13.10134"><ele>195.66666666666669</ele><time>2026-04-07T16:04:12.39Z</time></trkpt><trkpt lat="46.11958" lon="13.10139"><ele>194.83333333333334</ele><time>2026-04-07T16:04:13.389Z</time></trkpt><trkpt lat="46.1194883" lon="13.1014267"><ele>194.0</ele><time>2026-04-07T16:04:14.389Z</time></trkpt><trkpt lat="46.1194133" lon="13.1015083"><ele>194.0</ele><time>2026-04-07T16:04:15.391Z</time></trkpt><trkpt lat="46.119325" lon="13.1015717"><ele>194.0</ele><time>2026-04-07T16:04:16.388Z</time></trkpt><trkpt lat="46.119225" lon="13.101615"><ele>194.0</ele><time>2026-04-07T16:04:17.389Z</time></trkpt><trkpt lat="46.1191317" lon="13.10167"><ele>194.0</ele><time>2026-04-07T16:04:18.39Z</time></trkpt><trkpt lat="46.11905" lon="13.1017033"><ele>194.0</ele><time>2026-04-07T16:04:19.39Z</time></trkpt><trkpt lat="46.118965" lon="13.1017417"><ele>194.33333333333334</ele><time>2026-04-07T16:04:20.389Z</time></trkpt><trkpt lat="46.1188783" lon="13.10178"><ele>194.66666666666669</ele><time>2026-04-07T16:04:21.389Z</time></trkpt><trkpt lat="46.1187917" lon="13.1018017"><ele>195.0</ele><time>2026-04-07T16:04:22.392Z</time></trkpt><trkpt lat="46.1187117" lon="13.101795"><ele>195.33333333333331</ele><time>2026-04-07T16:04:23.388Z</time></trkpt><trkpt lat="46.1186383" lon="13.1017483"><ele>195.66666666666666</ele><time>2026-04-07T16:04:24.391Z</time></trkpt><trkpt lat="46.1185517" lon="13.10171"><ele>196.0</ele><time>2026-04-07T16:04:25.392Z</time></trkpt><trkpt lat="46.11847" lon="13.1016767"><ele>195.99999999999997</ele><time>2026-04-07T16:04:26.389Z</time></trkpt><trkpt lat="46.1183933" lon="13.1016233"><ele>196.0</ele><time>2026-04-07T16:04:27.39Z</time></trkpt><trkpt lat="46.1183133" lon="13.10159"><ele>196.0</ele><time>2026-04-07T16:04:28.391Z</time></trkpt><trkpt lat="46.118235" lon="13.1016"><ele>196.0</ele><time>2026-04-07T16:04:29.391Z</time></trkpt><trkpt lat="46.11816" lon="13.1016233"><ele>195.99999999999997</ele><time>2026-04-07T16:04:30.391Z</time></trkpt><trkpt lat="46.1181" lon="13.1016767"><ele>196.0</ele><time>2026-04-07T16:04:31.388Z</time></trkpt><trkpt lat="46.1180417" lon="13.1017467"><ele>197.60000000000002</ele><time>2026-04-07T16:04:32.392Z</time></trkpt><trkpt lat="46.1179667" lon="13.101835"><ele>199.2</ele><time>2026-04-07T16:04:33.388Z</time></trkpt><trkpt lat="46.1178967" lon="13.1019117"><ele>200.8</ele><time>2026-04-07T16:04:34.391Z</time></trkpt><trkpt lat="46.117825" lon="13.1019983"><ele>202.39999999999998</ele><time>2026-04-07T16:04:35.391Z</time></trkpt><trkpt lat="46.1177533" lon="13.10207"><ele>204.0</ele><time>2026-04-07T16:04:36.391Z</time></trkpt><trkpt lat="46.117685" lon="13.1021533"><ele>204.0</ele><time>2026-04-07T16:04:37.391Z</time></trkpt><trkpt lat="46.1176117" lon="13.1022"><ele>204.0</ele><time>2026-04-07T16:04:38.391Z</time></trkpt><trkpt lat="46.11753" lon="13.10222"><ele>204.0</ele><time>2026-04-07T16:04:39.392Z</time></trkpt><trkpt lat="46.1174483" lon="13.102225"><ele>204.0</ele><time>2026-04-07T16:04:40.392Z</time></trkpt><trkpt lat="46.1173683" lon="13.10224"><ele>204.0</ele><time>2026-04-07T16:04:41.392Z</time></trkpt><trkpt lat="46.1172933" lon="13.1022083"><ele>204.0</ele><time>2026-04-07T16:04:42.393Z</time></trkpt><trkpt lat="46.1172133" lon="13.102195"><ele>203.66666666666666</ele><time>2026-04-07T16:04:43.391Z</time></trkpt><trkpt lat="46.1171367" lon="13.1021767"><ele>203.33333333333331</ele><time>2026-04-07T16:04:44.392Z</time></trkpt><trkpt lat="46.1170683" lon="13.10215"><ele>203.0</ele><time>2026-04-07T16:04:45.391Z</time></trkpt><trkpt lat="46.1170067" lon="13.1021183"><ele>202.66666666666666</ele><time>2026-04-07T16:04:46.39Z</time></trkpt><trkpt lat="46.1169" lon="13.102045"><ele>202.33333333333331</ele><time>2026-04-07T16:04:48.388Z</time></trkpt><trkpt lat="46.1168517" lon="13.1019717"><ele>202.0</ele><time>2026-04-07T16:04:49.389Z</time></trkpt><trkpt lat="46.1168017" lon="13.1018833"><ele>202.0</ele><time>2026-04-07T16:04:50.389Z</time></trkpt><trkpt lat="46.116745" lon="13.10179"><ele>202.0</ele><time>2026-04-07T16:04:51.389Z</time></trkpt><trkpt lat="46.11669" lon="13.1017017"><ele>202.0</ele><time>2026-04-07T16:04:52.389Z</time></trkpt><trkpt lat="46.1166417" lon="13.1016017"><ele>202.0</ele><time>2026-04-07T16:04:53.39Z</time></trkpt><trkpt lat="46.1166" lon="13.101475"><ele>202.0</ele><time>2026-04-07T16:04:54.392Z</time></trkpt><trkpt lat="46.1165767" lon="13.101325"><ele>202.6</ele><time>2026-04-07T16:04:55.391Z</time></trkpt><trkpt lat="46.116515" lon="13.1012217"><ele>203.2</ele><time>2026-04-07T16:04:56.389Z</time></trkpt><trkpt lat="46.1164717" lon="13.1011083"><ele>203.8</ele><time>2026-04-07T16:04:57.389Z</time></trkpt><trkpt lat="46.116415" lon="13.1010017"><ele>204.4</ele><time>2026-04-07T16:04:58.389Z</time></trkpt><trkpt lat="46.1163733" lon="13.1008783"><ele>205.0</ele><time>2026-04-07T16:04:59.389Z</time></trkpt><trkpt lat="46.1163217" lon="13.1007583"><ele>207.33333333333331</ele><time>2026-04-07T16:05:00.389Z</time></trkpt><trkpt lat="46.11626" lon="13.1006567"><ele>209.66666666666666</ele><time>2026-04-07T16:05:01.39Z</time></trkpt><trkpt lat="46.1162267" lon="13.100565"><ele>212.0</ele><time>2026-04-07T16:05:02.388Z</time></trkpt><trkpt lat="46.1161567" lon="13.1004367"><ele>214.33333333333331</ele><time>2026-04-07T16:05:04.392Z</time></trkpt><trkpt lat="46.116085" lon="13.1003517"><ele>216.66666666666666</ele><time>2026-04-07T16:05:06.394Z</time></trkpt><trkpt lat="46.116015" lon="13.1003217"><ele>219.0</ele><time>2026-04-07T16:05:08.393Z</time></trkpt><trkpt lat="46.115945" lon="13.100315"><ele>219.0</ele><time>2026-04-07T16:05:10.394Z</time></trkpt><trkpt lat="46.1158483" lon="13.1002633"><ele>218.99999999999997</ele><time>2026-04-07T16:05:12.392Z</time></trkpt><trkpt lat="46.1157183" lon="13.100205"><ele>218.99999999999997</ele><time>2026-04-07T16:05:14.392Z</time></trkpt><trkpt lat="46.115635" lon="13.1001717"><ele>219.0</ele><time>2026-04-07T16:05:15.391Z</time></trkpt><trkpt lat="46.1155467" lon="13.1001367"><ele>219.0</ele><time>2026-04-07T16:05:16.391Z</time></trkpt><trkpt lat="46.1154617" lon="13.10009"><ele>219.33333333333334</ele><time>2026-04-07T16:05:17.39Z</time></trkpt><trkpt lat="46.1153733" lon="13.1000467"><ele>219.66666666666669</ele><time>2026-04-07T16:05:18.39Z</time></trkpt><trkpt lat="46.1152967" lon="13.0999883"><ele>220.0</ele><time>2026-04-07T16:05:19.39Z</time></trkpt><trkpt lat="46.1152317" lon="13.0999417"><ele>220.33333333333334</ele><time>2026-04-07T16:05:20.389Z</time></trkpt><trkpt lat="46.1151767" lon="13.09988"><ele>220.66666666666669</ele><time>2026-04-07T16:05:21.391Z</time></trkpt><trkpt lat="46.1151267" lon="13.0998133"><ele>221.0</ele><time>2026-04-07T16:05:22.389Z</time></trkpt><trkpt lat="46.1150967" lon="13.0997167"><ele>221.16666666666669</ele><time>2026-04-07T16:05:23.39Z</time></trkpt><trkpt lat="46.1150233" lon="13.0995917"><ele>221.33333333333334</ele><time>2026-04-07T16:05:25.39Z</time></trkpt><trkpt lat="46.1150033" lon="13.09949"><ele>221.5</ele><time>2026-04-07T16:05:26.388Z</time></trkpt><trkpt lat="46.1149683" lon="13.0994017"><ele>221.66666666666669</ele><time>2026-04-07T16:05:27.388Z</time></trkpt><trkpt lat="46.1149383" lon="13.0993083"><ele>221.83333333333334</ele><time>2026-04-07T16:05:28.39Z</time></trkpt><trkpt lat="46.1149183" lon="13.0992083"><ele>222.0</ele><time>2026-04-07T16:05:29.389Z</time></trkpt><trkpt lat="46.114915" lon="13.099095"><ele>220.39999999999998</ele><time>2026-04-07T16:05:30.389Z</time></trkpt><trkpt lat="46.1149433" lon="13.0989683"><ele>218.79999999999998</ele><time>2026-04-07T16:05:31.389Z</time></trkpt><trkpt lat="46.114975" lon="13.098845"><ele>217.2</ele><time>2026-04-07T16:05:32.389Z</time></trkpt><trkpt lat="46.1150167" lon="13.0987283"><ele>215.6</ele><time>2026-04-07T16:05:33.39Z</time></trkpt><trkpt lat="46.1150517" lon="13.0986133"><ele>214.0</ele><time>2026-04-07T16:05:34.389Z</time></trkpt><trkpt lat="46.1150783" lon="13.0984817"><ele>213.99999999999997</ele><time>2026-04-07T16:05:35.389Z</time></trkpt><trkpt lat="46.1151233" lon="13.0983583"><ele>214.0</ele><time>2026-04-07T16:05:36.391Z</time></trkpt><trkpt lat="46.115165" lon="13.0982433"><ele>214.0</ele><time>2026-04-07T16:05:37.391Z</time></trkpt><trkpt lat="46.1151833" lon="13.0981317"><ele>214.0</ele><time>2026-04-07T16:05:38.391Z</time></trkpt><trkpt lat="46.1152" lon="13.0980283"><ele>213.99999999999997</ele><time>2026-04-07T16:05:39.389Z</time></trkpt><trkpt lat="46.115215" lon="13.097935"><ele>214.0</ele><time>2026-04-07T16:05:40.389Z</time></trkpt><trkpt lat="46.115225" lon="13.097845"><ele>212.99999999999997</ele><time>2026-04-07T16:05:41.389Z</time></trkpt><trkpt lat="46.1152317" lon="13.0976583"><ele>212.0</ele><time>2026-04-07T16:05:43.389Z</time></trkpt><trkpt lat="46.1152317" lon="13.0975467"><ele>211.0</ele><time>2026-04-07T16:05:44.392Z</time></trkpt><trkpt lat="46.1152367" lon="13.097425"><ele>210.0</ele><time>2026-04-07T16:05:45.392Z</time></trkpt><trkpt lat="46.1152267" lon="13.0973083"><ele>208.99999999999997</ele><time>2026-04-07T16:05:46.392Z</time></trkpt><trkpt lat="46.11521" lon="13.09721"><ele>208.0</ele><time>2026-04-07T16:05:47.395Z</time></trkpt><trkpt lat="46.11519" lon="13.09709"><ele>208.0</ele><time>2026-04-07T16:05:49.39Z</time></trkpt><trkpt lat="46.1152217" lon="13.0972183"><ele>208.0</ele><time>2026-04-07T16:05:53.39Z</time></trkpt><trkpt lat="46.1152117" lon="13.09732"><ele>208.0</ele><time>2026-04-07T16:05:54.392Z</time></trkpt><trkpt lat="46.1152133" lon="13.0974383"><ele>208.0</ele><time>2026-04-07T16:05:55.392Z</time></trkpt><trkpt lat="46.115215" lon="13.0975767"><ele>208.0</ele><time>2026-04-07T16:05:56.392Z</time></trkpt><trkpt lat="46.11522" lon="13.0977317"><ele>208.0</ele><time>2026-04-07T16:05:57.392Z</time></trkpt><trkpt lat="46.115215" lon="13.0978867"><ele>208.0</ele><time>2026-04-07T16:05:58.392Z</time></trkpt><trkpt lat="46.1151967" lon="13.09804"><ele>208.0</ele><time>2026-04-07T16:05:59.392Z</time></trkpt><trkpt lat="46.1151733" lon="13.0981867"><ele>208.0</ele><time>2026-04-07T16:06:00.391Z</time></trkpt><trkpt lat="46.1151483" lon="13.0983233"><ele>208.0</ele><time>2026-04-07T16:06:01.389Z</time></trkpt><trkpt lat="46.1151233" lon="13.0984333"><ele>208.99999999999997</ele><time>2026-04-07T16:06:02.393Z</time></trkpt><trkpt lat="46.115085" lon="13.098545"><ele>210.0</ele><time>2026-04-07T16:06:04.392Z</time></trkpt><trkpt lat="46.1150217" lon="13.0985433"><ele>211.0</ele><time>2026-04-07T16:06:06.393Z</time></trkpt><trkpt lat="46.1149217" lon="13.0985733"><ele>212.0</ele><time>2026-04-07T16:06:08.39Z</time></trkpt><trkpt lat="46.114825" lon="13.09861"><ele>212.99999999999997</ele><time>2026-04-07T16:06:10.392Z</time></trkpt><trkpt lat="46.114755" lon="13.0986283"><ele>214.0</ele><time>2026-04-07T16:06:13.389Z</time></trkpt><trkpt lat="46.114675" lon="13.09866"><ele>211.0</ele><time>2026-04-07T16:06:21.391Z</time></trkpt><trkpt lat="46.114555" lon="13.0987317"><ele>207.99999999999997</ele><time>2026-04-07T16:06:23.392Z</time></trkpt><trkpt lat="46.1144583" lon="13.09878"><ele>205.0</ele><time>2026-04-07T16:06:24.391Z</time></trkpt><trkpt lat="46.114365" lon="13.09882"><ele>202.0</ele><time>2026-04-07T16:06:25.392Z</time></trkpt><trkpt lat="46.114255" lon="13.0988667"><ele>199.0</ele><time>2026-04-07T16:06:26.392Z</time></trkpt><trkpt lat="46.1141683" lon="13.0989067"><ele>198.99999999999997</ele><time>2026-04-07T16:06:27.391Z</time></trkpt><trkpt lat="46.1140933" lon="13.09894"><ele>199.0</ele><time>2026-04-07T16:06:28.391Z</time></trkpt><trkpt lat="46.1140267" lon="13.0989683"><ele>199.0</ele><time>2026-04-07T16:06:29.392Z</time></trkpt><trkpt lat="46.1139233" lon="13.0990167"><ele>199.0</ele><time>2026-04-07T16:06:31.39Z</time></trkpt><trkpt lat="46.1138433" lon="13.0990683"><ele>198.99999999999997</ele><time>2026-04-07T16:06:33.392Z</time></trkpt><trkpt lat="46.11377" lon="13.099115"><ele>199.0</ele><time>2026-04-07T16:06:35.392Z</time></trkpt><trkpt lat="46.1136833" lon="13.0991617"><ele>199.0</ele><time>2026-04-07T16:06:37.393Z</time></trkpt><trkpt lat="46.113595" lon="13.09921"><ele>199.0</ele><time>2026-04-07T16:06:39.393Z</time></trkpt><trkpt lat="46.1135067" lon="13.0992533"><ele>199.0</ele><time>2026-04-07T16:06:41.392Z</time></trkpt><trkpt lat="46.1134167" lon="13.0992983"><ele>199.0</ele><time>2026-04-07T16:06:43.39Z</time></trkpt><trkpt lat="46.1133133" lon="13.0993467"><ele>199.0</ele><time>2026-04-07T16:06:45.393Z</time></trkpt><trkpt lat="46.1131983" lon="13.0993917"><ele>196.6</ele><time>2026-04-07T16:06:47.392Z</time></trkpt><trkpt lat="46.1131133" lon="13.0994717"><ele>194.2</ele><time>2026-04-07T16:06:49.391Z</time></trkpt><trkpt lat="46.11305" lon="13.0996083"><ele>191.79999999999998</ele><time>2026-04-07T16:06:51.392Z</time></trkpt><trkpt lat="46.1129933" lon="13.0997483"><ele>189.39999999999998</ele><time>2026-04-07T16:06:53.393Z</time></trkpt><trkpt lat="46.1129267" lon="13.0998367"><ele>187.0</ele><time>2026-04-07T16:06:55.394Z</time></trkpt><trkpt lat="46.1128567" lon="13.099985"><ele>187.0</ele><time>2026-04-07T16:06:57.392Z</time></trkpt><trkpt lat="46.1128283" lon="13.10007"><ele>187.0</ele><time>2026-04-07T16:06:58.392Z</time></trkpt><trkpt lat="46.1128033" lon="13.1001717"><ele>187.0</ele><time>2026-04-07T16:06:59.389Z</time></trkpt><trkpt lat="46.1127717" lon="13.1002767"><ele>187.0</ele><time>2026-04-07T16:07:00.393Z</time></trkpt><trkpt lat="46.1127417" lon="13.1003867"><ele>187.0</ele><time>2026-04-07T16:07:01.391Z</time></trkpt><trkpt lat="46.11271" lon="13.1005067"><ele>187.0</ele><time>2026-04-07T16:07:02.392Z</time></trkpt><trkpt lat="46.1126817" lon="13.1006317"><ele>188.39999999999998</ele><time>2026-04-07T16:07:03.389Z</time></trkpt><trkpt lat="46.1126533" lon="13.1007617"><ele>189.79999999999998</ele><time>2026-04-07T16:07:04.389Z</time></trkpt><trkpt lat="46.1126217" lon="13.100885"><ele>191.2</ele><time>2026-04-07T16:07:05.389Z</time></trkpt><trkpt lat="46.1125883" lon="13.10101"><ele>192.6</ele><time>2026-04-07T16:07:06.39Z</time></trkpt><trkpt lat="46.1125533" lon="13.1011367"><ele>194.0</ele><time>2026-04-07T16:07:07.392Z</time></trkpt><trkpt lat="46.1125233" lon="13.1012667"><ele>194.00000000000003</ele><time>2026-04-07T16:07:08.392Z</time></trkpt><trkpt lat="46.1124933" lon="13.101385"><ele>194.0</ele><time>2026-04-07T16:07:09.39Z</time></trkpt><trkpt lat="46.1124683" lon="13.101515"><ele>194.0</ele><time>2026-04-07T16:07:10.391Z</time></trkpt><trkpt lat="46.1124267" lon="13.1016217"><ele>194.0</ele><time>2026-04-07T16:07:11.391Z</time></trkpt><trkpt lat="46.1123833" lon="13.1017233"><ele>194.00000000000003</ele><time>2026-04-07T16:07:12.391Z</time></trkpt><trkpt lat="46.112335" lon="13.101805"><ele>194.0</ele><time>2026-04-07T16:07:13.393Z</time></trkpt><trkpt lat="46.11228" lon="13.1018783"><ele>192.16666666666669</ele><time>2026-04-07T16:07:14.393Z</time></trkpt><trkpt lat="46.1122233" lon="13.101935"><ele>190.33333333333334</ele><time>2026-04-07T16:07:15.389Z</time></trkpt><trkpt lat="46.1121717" lon="13.1020067"><ele>188.5</ele><time>2026-04-07T16:07:16.391Z</time></trkpt><trkpt lat="46.1121183" lon="13.10209"><ele>186.66666666666669</ele><time>2026-04-07T16:07:17.391Z</time></trkpt><trkpt lat="46.1120633" lon="13.1021783"><ele>184.83333333333334</ele><time>2026-04-07T16:07:18.392Z</time></trkpt><trkpt lat="46.1120033" lon="13.10227"><ele>183.0</ele><time>2026-04-07T16:07:19.389Z</time></trkpt><trkpt lat="46.11194" lon="13.10237"><ele>184.16666666666666</ele><time>2026-04-07T16:07:20.392Z</time></trkpt><trkpt lat="46.1118783" lon="13.10247"><ele>185.33333333333334</ele><time>2026-04-07T16:07:21.39Z</time></trkpt><trkpt lat="46.1118267" lon="13.1025617"><ele>186.5</ele><time>2026-04-07T16:07:22.39Z</time></trkpt><trkpt lat="46.11177" lon="13.1026467"><ele>187.66666666666669</ele><time>2026-04-07T16:07:23.389Z</time></trkpt><trkpt lat="46.1117233" lon="13.10273"><ele>188.83333333333334</ele><time>2026-04-07T16:07:24.389Z</time></trkpt><trkpt lat="46.11168" lon="13.102805"><ele>190.0</ele><time>2026-04-07T16:07:25.39Z</time></trkpt><trkpt lat="46.1116383" lon="13.1028783"><ele>190.0</ele><time>2026-04-07T16:07:26.39Z</time></trkpt><trkpt lat="46.1115783" lon="13.103015"><ele>190.0</ele><time>2026-04-07T16:07:28.389Z</time></trkpt><trkpt lat="46.111545" lon="13.103175"><ele>190.0</ele><time>2026-04-07T16:07:30.391Z</time></trkpt><trkpt lat="46.1115517" lon="13.1033617"><ele>190.0</ele><time>2026-04-07T16:07:32.39Z</time></trkpt><trkpt lat="46.1115533" lon="13.1034633"><ele>190.0</ele><time>2026-04-07T16:07:33.391Z</time></trkpt><trkpt lat="46.1115467" lon="13.1035583"><ele>188.16666666666669</ele><time>2026-04-07T16:07:34.39Z</time></trkpt><trkpt lat="46.11154" lon="13.1036583"><ele>186.33333333333334</ele><time>2026-04-07T16:07:35.389Z</time></trkpt><trkpt lat="46.111535" lon="13.10377"><ele>184.5</ele><time>2026-04-07T16:07:36.389Z</time></trkpt><trkpt lat="46.11153" lon="13.103885"><ele>182.66666666666666</ele><time>2026-04-07T16:07:37.39Z</time></trkpt><trkpt lat="46.1115283" lon="13.10401"><ele>180.83333333333331</ele><time>2026-04-07T16:07:38.39Z</time></trkpt><trkpt lat="46.11152" lon="13.1041467"><ele>179.0</ele><time>2026-04-07T16:07:39.389Z</time></trkpt><trkpt lat="46.1115167" lon="13.1042833"><ele>179.0</ele><time>2026-04-07T16:07:40.389Z</time></trkpt><trkpt lat="46.1115183" lon="13.1044167"><ele>179.0</ele><time>2026-04-07T16:07:41.393Z</time></trkpt><trkpt lat="46.111515" lon="13.10454"><ele>179.0</ele><time>2026-04-07T16:07:42.393Z</time></trkpt><trkpt lat="46.11151" lon="13.1046567"><ele>179.0</ele><time>2026-04-07T16:07:43.391Z</time></trkpt><trkpt lat="46.1115017" lon="13.1047667"><ele>179.0</ele><time>2026-04-07T16:07:44.39Z</time></trkpt><trkpt lat="46.1115033" lon="13.10487"><ele>179.0</ele><time>2026-04-07T16:07:45.392Z</time></trkpt><trkpt lat="46.11151" lon="13.1049667"><ele>179.39999999999998</ele><time>2026-04-07T16:07:46.39Z</time></trkpt><trkpt lat="46.11151" lon="13.1050617"><ele>179.8</ele><time>2026-04-07T16:07:47.39Z</time></trkpt><trkpt lat="46.11147" lon="13.105215"><ele>180.2</ele><time>2026-04-07T16:07:49.391Z</time></trkpt><trkpt lat="46.1113983" lon="13.10535"><ele>180.60000000000002</ele><time>2026-04-07T16:07:51.39Z</time></trkpt><trkpt lat="46.111315" lon="13.105485"><ele>181.0</ele><time>2026-04-07T16:07:53.393Z</time></trkpt><trkpt lat="46.111265" lon="13.10555"><ele>181.0</ele><time>2026-04-07T16:07:54.392Z</time></trkpt><trkpt lat="46.1112" lon="13.1055933"><ele>181.0</ele><time>2026-04-07T16:07:55.389Z</time></trkpt><trkpt lat="46.11112" lon="13.10564"><ele>181.0</ele><time>2026-04-07T16:07:56.391Z</time></trkpt><trkpt lat="46.11103" lon="13.1056883"><ele>181.0</ele><time>2026-04-07T16:07:57.391Z</time></trkpt><trkpt lat="46.110925" lon="13.1057383"><ele>181.0</ele><time>2026-04-07T16:07:58.392Z</time></trkpt><trkpt lat="46.1108167" lon="13.105785"><ele>179.75</ele><time>2026-04-07T16:07:59.392Z</time></trkpt><trkpt lat="46.1107083" lon="13.1058283"><ele>178.5</ele><time>2026-04-07T16:08:00.391Z</time></trkpt><trkpt lat="46.1105883" lon="13.1058783"><ele>177.25</ele><time>2026-04-07T16:08:01.39Z</time></trkpt><trkpt lat="46.1104617" lon="13.1059333"><ele>176.0</ele><time>2026-04-07T16:08:02.391Z</time></trkpt><trkpt lat="46.1103283" lon="13.1059767"><ele>176.0</ele><time>2026-04-07T16:08:03.39Z</time></trkpt><trkpt lat="46.1101967" lon="13.10602"><ele>176.0</ele><time>2026-04-07T16:08:04.39Z</time></trkpt><trkpt lat="46.1100717" lon="13.106075"><ele>176.0</ele><time>2026-04-07T16:08:05.391Z</time></trkpt><trkpt lat="46.10995" lon="13.1061367"><ele>176.0</ele><time>2026-04-07T16:08:06.389Z</time></trkpt><trkpt lat="46.1098367" lon="13.1061983"><ele>175.33333333333331</ele><time>2026-04-07T16:08:07.388Z</time></trkpt><trkpt lat="46.1097333" lon="13.1062467"><ele>174.66666666666666</ele><time>2026-04-07T16:08:08.391Z</time></trkpt><trkpt lat="46.1096433" lon="13.10627"><ele>174.0</ele><time>2026-04-07T16:08:09.39Z</time></trkpt><trkpt lat="46.10957" lon="13.106295"><ele>173.33333333333334</ele><time>2026-04-07T16:08:10.391Z</time></trkpt><trkpt lat="46.1095083" lon="13.106325"><ele>172.66666666666669</ele><time>2026-04-07T16:08:11.39Z</time></trkpt><trkpt lat="46.1094467" lon="13.10637"><ele>172.0</ele><time>2026-04-07T16:08:12.392Z</time></trkpt><trkpt lat="46.1093817" lon="13.1064333"><ele>172.0</ele><time>2026-04-07T16:08:13.392Z</time></trkpt><trkpt lat="46.1093" lon="13.1065233"><ele>172.0</ele><time>2026-04-07T16:08:14.392Z</time></trkpt><trkpt lat="46.1092033" lon="13.1066567"><ele>172.0</ele><time>2026-04-07T16:08:15.392Z</time></trkpt><trkpt lat="46.1090867" lon="13.1067917"><ele>172.0</ele><time>2026-04-07T16:08:16.391Z</time></trkpt><trkpt lat="46.1089467" lon="13.1069333"><ele>173.66666666666669</ele><time>2026-04-07T16:08:17.39Z</time></trkpt><trkpt lat="46.108785" lon="13.107095"><ele>175.33333333333334</ele><time>2026-04-07T16:08:18.391Z</time></trkpt><trkpt lat="46.10861" lon="13.1072683"><ele>177.0</ele><time>2026-04-07T16:08:19.39Z</time></trkpt><trkpt lat="46.1084217" lon="13.1074483"><ele>179.0</ele><time>2026-04-07T16:08:20.39Z</time></trkpt><trkpt lat="46.1082333" lon="13.1076367"><ele>181.0</ele><time>2026-04-07T16:08:21.39Z</time></trkpt><trkpt lat="46.1080483" lon="13.10782"><ele>181.0</ele><time>2026-04-07T16:08:22.391Z</time></trkpt><trkpt lat="46.1078733" lon="13.108"><ele>181.0</ele><time>2026-04-07T16:08:23.39Z</time></trkpt><trkpt lat="46.1077133" lon="13.1081667"><ele>181.0</ele><time>2026-04-07T16:08:24.392Z</time></trkpt><trkpt lat="46.107565" lon="13.10832"><ele>179.33333333333334</ele><time>2026-04-07T16:08:25.391Z</time></trkpt><trkpt lat="46.1074217" lon="13.108465"><ele>177.66666666666666</ele><time>2026-04-07T16:08:26.392Z</time></trkpt><trkpt lat="46.1072817" lon="13.1086033"><ele>176.0</ele><time>2026-04-07T16:08:27.389Z</time></trkpt><trkpt lat="46.1071383" lon="13.1087417"><ele>175.33333333333331</ele><time>2026-04-07T16:08:28.39Z</time></trkpt><trkpt lat="46.1069917" lon="13.1088817"><ele>174.66666666666666</ele><time>2026-04-07T16:08:29.392Z</time></trkpt><trkpt lat="46.1068433" lon="13.1090267"><ele>174.0</ele><time>2026-04-07T16:08:30.39Z</time></trkpt><trkpt lat="46.106695" lon="13.1091733"><ele>172.66666666666666</ele><time>2026-04-07T16:08:31.389Z</time></trkpt><trkpt lat="46.106545" lon="13.10932"><ele>171.33333333333331</ele><time>2026-04-07T16:08:32.39Z</time></trkpt><trkpt lat="46.1063983" lon="13.1094667"><ele>170.0</ele><time>2026-04-07T16:08:33.391Z</time></trkpt><trkpt lat="46.10625" lon="13.10961"><ele>170.0</ele><time>2026-04-07T16:08:34.389Z</time></trkpt><trkpt lat="46.1061133" lon="13.1097483"><ele>170.0</ele><time>2026-04-07T16:08:35.391Z</time></trkpt><trkpt lat="46.1059633" lon="13.10989"><ele>170.0</ele><time>2026-04-07T16:08:36.391Z</time></trkpt><trkpt lat="46.10582" lon="13.1100283"><ele>169.33333333333331</ele><time>2026-04-07T16:08:37.389Z</time></trkpt><trkpt lat="46.1056833" lon="13.1101633"><ele>168.66666666666666</ele><time>2026-04-07T16:08:38.391Z</time></trkpt><trkpt lat="46.1055517" lon="13.1102883"><ele>168.0</ele><time>2026-04-07T16:08:39.392Z</time></trkpt><trkpt lat="46.10543" lon="13.1104117"><ele>168.0</ele><time>2026-04-07T16:08:40.392Z</time></trkpt><trkpt lat="46.1053117" lon="13.1105233"><ele>168.0</ele><time>2026-04-07T16:08:41.391Z</time></trkpt><trkpt lat="46.1051983" lon="13.1106283"><ele>168.0</ele><time>2026-04-07T16:08:42.388Z</time></trkpt><trkpt lat="46.1050817" lon="13.1107167"><ele>168.0</ele><time>2026-04-07T16:08:43.389Z</time></trkpt><trkpt lat="46.10496" lon="13.1107767"><ele>168.25</ele><time>2026-04-07T16:08:44.391Z</time></trkpt><trkpt lat="46.1048317" lon="13.1108167"><ele>168.5</ele><time>2026-04-07T16:08:45.392Z</time></trkpt><trkpt lat="46.1046983" lon="13.11085"><ele>168.75</ele><time>2026-04-07T16:08:46.39Z</time></trkpt><trkpt lat="46.10456" lon="13.1108717"><ele>169.0</ele><time>2026-04-07T16:08:47.39Z</time></trkpt><trkpt lat="46.104425" lon="13.110885"><ele>169.0</ele><time>2026-04-07T16:08:48.393Z</time></trkpt><trkpt lat="46.1042917" lon="13.1109"><ele>169.0</ele><time>2026-04-07T16:08:49.391Z</time></trkpt><trkpt lat="46.1041683" lon="13.1109217"><ele>169.0</ele><time>2026-04-07T16:08:50.392Z</time></trkpt><trkpt lat="46.1040583" lon="13.1109617"><ele>169.0</ele><time>2026-04-07T16:08:51.392Z</time></trkpt><trkpt lat="46.1039517" lon="13.111015"><ele>168.2</ele><time>2026-04-07T16:08:52.392Z</time></trkpt><trkpt lat="46.1038467" lon="13.1110683"><ele>167.39999999999998</ele><time>2026-04-07T16:08:53.39Z</time></trkpt><trkpt lat="46.1037533" lon="13.1111233"><ele>166.6</ele><time>2026-04-07T16:08:54.39Z</time></trkpt><trkpt lat="46.1036617" lon="13.1111833"><ele>165.8</ele><time>2026-04-07T16:08:55.39Z</time></trkpt><trkpt lat="46.103575" lon="13.1112483"><ele>165.0</ele><time>2026-04-07T16:08:56.39Z</time></trkpt><trkpt lat="46.1034917" lon="13.1113333"><ele>165.0</ele><time>2026-04-07T16:08:57.388Z</time></trkpt><trkpt lat="46.1034267" lon="13.1114367"><ele>165.0</ele><time>2026-04-07T16:08:58.388Z</time></trkpt><trkpt lat="46.1033783" lon="13.1115583"><ele>165.0</ele><time>2026-04-07T16:08:59.388Z</time></trkpt><trkpt lat="46.10334" lon="13.1117083"><ele>165.0</ele><time>2026-04-07T16:09:00.39Z</time></trkpt><trkpt lat="46.103315" lon="13.1118567"><ele>165.0</ele><time>2026-04-07T16:09:01.388Z</time></trkpt><trkpt lat="46.103305" lon="13.111995"><ele>165.16666666666666</ele><time>2026-04-07T16:09:02.388Z</time></trkpt><trkpt lat="46.1033" lon="13.1121017"><ele>165.33333333333334</ele><time>2026-04-07T16:09:03.388Z</time></trkpt><trkpt lat="46.1032167" lon="13.1122133"><ele>165.5</ele><time>2026-04-07T16:09:05.391Z</time></trkpt><trkpt lat="46.1031383" lon="13.1122167"><ele>165.66666666666669</ele><time>2026-04-07T16:09:06.391Z</time></trkpt><trkpt lat="46.1030583" lon="13.1122167"><ele>165.83333333333334</ele><time>2026-04-07T16:09:07.389Z</time></trkpt><trkpt lat="46.1029733" lon="13.11219"><ele>166.0</ele><time>2026-04-07T16:09:08.39Z</time></trkpt><trkpt lat="46.1028917" lon="13.1121767"><ele>165.16666666666669</ele><time>2026-04-07T16:09:09.389Z</time></trkpt><trkpt lat="46.10282" lon="13.1121717"><ele>164.33333333333334</ele><time>2026-04-07T16:09:10.389Z</time></trkpt><trkpt lat="46.1027633" lon="13.1122417"><ele>163.5</ele><time>2026-04-07T16:09:11.392Z</time></trkpt><trkpt lat="46.1027083" lon="13.1123317"><ele>162.66666666666666</ele><time>2026-04-07T16:09:12.391Z</time></trkpt><trkpt lat="46.10266" lon="13.1124333"><ele>161.83333333333331</ele><time>2026-04-07T16:09:13.389Z</time></trkpt><trkpt lat="46.1026067" lon="13.11254"><ele>161.0</ele><time>2026-04-07T16:09:14.39Z</time></trkpt><trkpt lat="46.1025483" lon="13.112635"><ele>161.0</ele><time>2026-04-07T16:09:15.389Z</time></trkpt><trkpt lat="46.1024683" lon="13.11272"><ele>161.0</ele><time>2026-04-07T16:09:16.388Z</time></trkpt><trkpt lat="46.1023767" lon="13.1127933"><ele>161.0</ele><time>2026-04-07T16:09:17.389Z</time></trkpt><trkpt lat="46.1023133" lon="13.1129017"><ele>161.0</ele><time>2026-04-07T16:09:18.389Z</time></trkpt><trkpt lat="46.10226" lon="13.1130017"><ele>161.0</ele><time>2026-04-07T16:09:19.389Z</time></trkpt><trkpt lat="46.1022283" lon="13.1131033"><ele>159.66666666666666</ele><time>2026-04-07T16:09:20.39Z</time></trkpt><trkpt lat="46.1022033" lon="13.11323"><ele>158.33333333333331</ele><time>2026-04-07T16:09:22.388Z</time></trkpt><trkpt lat="46.1021917" lon="13.113345"><ele>157.0</ele><time>2026-04-07T16:09:25.389Z</time></trkpt><trkpt lat="46.102185" lon="13.113445"><ele>155.66666666666666</ele><time>2026-04-07T16:09:28.389Z</time></trkpt><trkpt lat="46.1021467" lon="13.1135483"><ele>154.33333333333334</ele><time>2026-04-07T16:09:31.391Z</time></trkpt><trkpt lat="46.10207" lon="13.1136417"><ele>153.0</ele><time>2026-04-07T16:09:34.39Z</time></trkpt><trkpt lat="46.102" lon="13.1137333"><ele>153.0</ele><time>2026-04-07T16:09:36.39Z</time></trkpt><trkpt lat="46.1019117" lon="13.113775"><ele>153.0</ele><time>2026-04-07T16:09:38.388Z</time></trkpt><trkpt lat="46.10184" lon="13.11381"><ele>153.0</ele><time>2026-04-07T16:09:40.388Z</time></trkpt><trkpt lat="46.1017667" lon="13.1138483"><ele>153.0</ele><time>2026-04-07T16:09:42.39Z</time></trkpt><trkpt lat="46.1016267" lon="13.113925"><ele>153.0</ele><time>2026-04-07T16:09:44.389Z</time></trkpt><trkpt lat="46.1015333" lon="13.1139817"><ele>152.25</ele><time>2026-04-07T16:09:45.389Z</time></trkpt><trkpt lat="46.10142" lon="13.1140633"><ele>151.5</ele><time>2026-04-07T16:09:46.388Z</time></trkpt><trkpt lat="46.1013083" lon="13.11413"><ele>150.75</ele><time>2026-04-07T16:09:47.39Z</time></trkpt><trkpt lat="46.1011817" lon="13.11419"><ele>150.0</ele><time>2026-04-07T16:09:48.388Z</time></trkpt><trkpt lat="46.1010517" lon="13.1142333"><ele>150.0</ele><time>2026-04-07T16:09:49.389Z</time></trkpt><trkpt lat="46.10092" lon="13.1142667"><ele>150.0</ele><time>2026-04-07T16:09:50.388Z</time></trkpt><trkpt lat="46.1008033" lon="13.1142883"><ele>150.0</ele><time>2026-04-07T16:09:51.389Z</time></trkpt><trkpt lat="46.1007" lon="13.1143017"><ele>150.0</ele><time>2026-04-07T16:09:52.389Z</time></trkpt><trkpt lat="46.1006083" lon="13.114315"><ele>150.0</ele><time>2026-04-07T16:09:53.392Z</time></trkpt><trkpt lat="46.10052" lon="13.1143217"><ele>149.8</ele><time>2026-04-07T16:09:54.389Z</time></trkpt><trkpt lat="46.1004317" lon="13.1143317"><ele>149.6</ele><time>2026-04-07T16:09:55.39Z</time></trkpt><trkpt lat="46.1003383" lon="13.1143333"><ele>149.4</ele><time>2026-04-07T16:09:56.389Z</time></trkpt><trkpt lat="46.1002383" lon="13.11433"><ele>149.2</ele><time>2026-04-07T16:09:57.39Z</time></trkpt><trkpt lat="46.1001267" lon="13.1143233"><ele>149.0</ele><time>2026-04-07T16:09:58.389Z</time></trkpt><trkpt lat="46.1000033" lon="13.1143267"><ele>149.0</ele><time>2026-04-07T16:09:59.39Z</time></trkpt><trkpt lat="46.0998767" lon="13.1143217"><ele>149.0</ele><time>2026-04-07T16:10:00.39Z</time></trkpt><trkpt lat="46.0997417" lon="13.114325"><ele>149.0</ele><time>2026-04-07T16:10:01.392Z</time></trkpt><trkpt lat="46.0996033" lon="13.11434"><ele>149.0</ele><time>2026-04-07T16:10:02.393Z</time></trkpt><trkpt lat="46.0994667" lon="13.11435"><ele>149.0</ele><time>2026-04-07T16:10:03.393Z</time></trkpt><trkpt lat="46.0993333" lon="13.1143467"><ele>149.0</ele><time>2026-04-07T16:10:04.391Z</time></trkpt><trkpt lat="46.0992" lon="13.114345"><ele>149.0</ele><time>2026-04-07T16:10:05.391Z</time></trkpt><trkpt lat="46.0990683" lon="13.1143567"><ele>149.0</ele><time>2026-04-07T16:10:06.391Z</time></trkpt><trkpt lat="46.0989367" lon="13.1143667"><ele>148.5</ele><time>2026-04-07T16:10:07.39Z</time></trkpt><trkpt lat="46.0988017" lon="13.1143733"><ele>148.0</ele><time>2026-04-07T16:10:08.393Z</time></trkpt><trkpt lat="46.09867" lon="13.1143867"><ele>147.5</ele><time>2026-04-07T16:10:09.392Z</time></trkpt><trkpt lat="46.09854" lon="13.114395"><ele>147.0</ele><time>2026-04-07T16:10:10.389Z</time></trkpt><trkpt lat="46.0984067" lon="13.1144"><ele>147.0</ele><time>2026-04-07T16:10:11.391Z</time></trkpt><trkpt lat="46.098275" lon="13.1144"><ele>147.0</ele><time>2026-04-07T16:10:12.392Z</time></trkpt><trkpt lat="46.0981433" lon="13.114405"><ele>147.0</ele><time>2026-04-07T16:10:13.389Z</time></trkpt><trkpt lat="46.0980083" lon="13.1144"><ele>147.0</ele><time>2026-04-07T16:10:14.39Z</time></trkpt><trkpt lat="46.0978817" lon="13.1144"><ele>146.79999999999998</ele><time>2026-04-07T16:10:15.393Z</time></trkpt><trkpt lat="46.097765" lon="13.114405"><ele>146.6</ele><time>2026-04-07T16:10:16.393Z</time></trkpt><trkpt lat="46.0976567" lon="13.1144133"><ele>146.39999999999998</ele><time>2026-04-07T16:10:17.389Z</time></trkpt><trkpt lat="46.0975567" lon="13.114425"><ele>146.2</ele><time>2026-04-07T16:10:18.389Z</time></trkpt><trkpt lat="46.09747" lon="13.1144267"><ele>146.0</ele><time>2026-04-07T16:10:19.391Z</time></trkpt><trkpt lat="46.097405" lon="13.1144067"><ele>145.83333333333331</ele><time>2026-04-07T16:10:20.391Z</time></trkpt><trkpt lat="46.0972983" lon="13.1143983"><ele>145.66666666666666</ele><time>2026-04-07T16:10:31.39Z</time></trkpt><trkpt lat="46.097265" lon="13.1144783"><ele>145.5</ele><time>2026-04-07T16:10:32.392Z</time></trkpt><trkpt lat="46.097245" lon="13.1146017"><ele>145.33333333333334</ele><time>2026-04-07T16:10:33.392Z</time></trkpt><trkpt lat="46.09718" lon="13.11467"><ele>145.16666666666669</ele><time>2026-04-07T16:10:34.393Z</time></trkpt><trkpt lat="46.0970783" lon="13.1147117"><ele>145.0</ele><time>2026-04-07T16:10:35.392Z</time></trkpt><trkpt lat="46.096975" lon="13.1147817"><ele>145.0</ele><time>2026-04-07T16:10:36.39Z</time></trkpt><trkpt lat="46.0968533" lon="13.1148683"><ele>145.0</ele><time>2026-04-07T16:10:37.393Z</time></trkpt><trkpt lat="46.09672" lon="13.1149483"><ele>145.0</ele><time>2026-04-07T16:10:38.392Z</time></trkpt><trkpt lat="46.09658" lon="13.1150367"><ele>145.0</ele><time>2026-04-07T16:10:39.389Z</time></trkpt><trkpt lat="46.096435" lon="13.115145"><ele>144.33333333333334</ele><time>2026-04-07T16:10:40.389Z</time></trkpt><trkpt lat="46.0962867" lon="13.1152383"><ele>143.66666666666666</ele><time>2026-04-07T16:10:41.389Z</time></trkpt><trkpt lat="46.0961383" lon="13.1153233"><ele>143.0</ele><time>2026-04-07T16:10:42.392Z</time></trkpt><trkpt lat="46.095985" lon="13.1154333"><ele>143.0</ele><time>2026-04-07T16:10:43.393Z</time></trkpt><trkpt lat="46.0958417" lon="13.1155283"><ele>143.0</ele><time>2026-04-07T16:10:44.392Z</time></trkpt><trkpt lat="46.0956967" lon="13.1156067"><ele>143.0</ele><time>2026-04-07T16:10:45.393Z</time></trkpt><trkpt lat="46.0955667" lon="13.11571"><ele>143.0</ele><time>2026-04-07T16:10:46.392Z</time></trkpt><trkpt lat="46.0954317" lon="13.115805"><ele>143.0</ele><time>2026-04-07T16:10:47.39Z</time></trkpt><trkpt lat="46.09529" lon="13.1159033"><ele>143.0</ele><time>2026-04-07T16:10:48.39Z</time></trkpt><trkpt lat="46.0951517" lon="13.1160067"><ele>143.0</ele><time>2026-04-07T16:10:49.39Z</time></trkpt><trkpt lat="46.0950133" lon="13.116115"><ele>143.0</ele><time>2026-04-07T16:10:50.389Z</time></trkpt><trkpt lat="46.0948767" lon="13.1162183"><ele>143.0</ele><time>2026-04-07T16:10:51.39Z</time></trkpt><trkpt lat="46.0947367" lon="13.1163267"><ele>142.33333333333331</ele><time>2026-04-07T16:10:52.39Z</time></trkpt><trkpt lat="46.0945967" lon="13.1164183"><ele>141.66666666666666</ele><time>2026-04-07T16:10:53.391Z</time></trkpt><trkpt lat="46.0944567" lon="13.116515"><ele>141.0</ele><time>2026-04-07T16:10:54.393Z</time></trkpt><trkpt lat="46.094315" lon="13.1166183"><ele>140.33333333333334</ele><time>2026-04-07T16:10:55.392Z</time></trkpt><trkpt lat="46.09417" lon="13.11671"><ele>139.66666666666669</ele><time>2026-04-07T16:10:56.391Z</time></trkpt><trkpt lat="46.09402" lon="13.1168067"><ele>139.0</ele><time>2026-04-07T16:10:57.392Z</time></trkpt><trkpt lat="46.0938767" lon="13.1169017"><ele>138.33333333333334</ele><time>2026-04-07T16:10:58.392Z</time></trkpt><trkpt lat="46.09373" lon="13.1169967"><ele>137.66666666666666</ele><time>2026-04-07T16:10:59.39Z</time></trkpt><trkpt lat="46.0935833" lon="13.1171033"><ele>137.0</ele><time>2026-04-07T16:11:00.389Z</time></trkpt><trkpt lat="46.09343" lon="13.1171933"><ele>137.0</ele><time>2026-04-07T16:11:01.393Z</time></trkpt><trkpt lat="46.093275" lon="13.117285"><ele>137.0</ele><time>2026-04-07T16:11:02.389Z</time></trkpt><trkpt lat="46.093125" lon="13.117385"><ele>137.0</ele><time>2026-04-07T16:11:03.39Z</time></trkpt><trkpt lat="46.092975" lon="13.1174733"><ele>136.66666666666666</ele><time>2026-04-07T16:11:04.389Z</time></trkpt><trkpt lat="46.092825" lon="13.117565"><ele>136.33333333333334</ele><time>2026-04-07T16:11:05.39Z</time></trkpt><trkpt lat="46.09268" lon="13.1176717"><ele>136.0</ele><time>2026-04-07T16:11:06.391Z</time></trkpt><trkpt lat="46.0925383" lon="13.117775"><ele>136.0</ele><time>2026-04-07T16:11:07.391Z</time></trkpt><trkpt lat="46.0924" lon="13.117885"><ele>136.0</ele><time>2026-04-07T16:11:08.393Z</time></trkpt><trkpt lat="46.0922667" lon="13.1179967"><ele>136.0</ele><time>2026-04-07T16:11:09.391Z</time></trkpt><trkpt lat="46.0921383" lon="13.1181133"><ele>135.75</ele><time>2026-04-07T16:11:10.391Z</time></trkpt><trkpt lat="46.0920217" lon="13.1182517"><ele>135.5</ele><time>2026-04-07T16:11:11.391Z</time></trkpt><trkpt lat="46.0919033" lon="13.11837"><ele>135.25</ele><time>2026-04-07T16:11:12.392Z</time></trkpt><trkpt lat="46.091785" lon="13.118485"><ele>135.0</ele><time>2026-04-07T16:11:13.392Z</time></trkpt><trkpt lat="46.091685" lon="13.1186067"><ele>135.0</ele><time>2026-04-07T16:11:14.391Z</time></trkpt><trkpt lat="46.0915967" lon="13.1187117"><ele>135.0</ele><time>2026-04-07T16:11:15.391Z</time></trkpt><trkpt lat="46.0915317" lon="13.1188033"><ele>135.0</ele><time>2026-04-07T16:11:16.391Z</time></trkpt><trkpt lat="46.0914683" lon="13.1188733"><ele>135.0</ele><time>2026-04-07T16:11:17.39Z</time></trkpt><trkpt lat="46.091415" lon="13.1189317"><ele>135.0</ele><time>2026-04-07T16:11:18.391Z</time></trkpt><trkpt lat="46.0913417" lon="13.1190633"><ele>134.8</ele><time>2026-04-07T16:11:20.389Z</time></trkpt><trkpt lat="46.0913117" lon="13.1191833"><ele>134.6</ele><time>2026-04-07T16:11:21.39Z</time></trkpt><trkpt lat="46.0912517" lon="13.1192833"><ele>134.4</ele><time>2026-04-07T16:11:22.39Z</time></trkpt><trkpt lat="46.09121" lon="13.1194033"><ele>134.2</ele><time>2026-04-07T16:11:23.39Z</time></trkpt><trkpt lat="46.0911417" lon="13.119535"><ele>134.0</ele><time>2026-04-07T16:11:24.39Z</time></trkpt><trkpt lat="46.091075" lon="13.1196517"><ele>134.0</ele><time>2026-04-07T16:11:25.393Z</time></trkpt><trkpt lat="46.0910233" lon="13.1197583"><ele>134.0</ele><time>2026-04-07T16:11:26.393Z</time></trkpt><trkpt lat="46.0909717" lon="13.1198533"><ele>134.0</ele><time>2026-04-07T16:11:27.393Z</time></trkpt><trkpt lat="46.0909183" lon="13.1199367"><ele>134.0</ele><time>2026-04-07T16:11:28.389Z</time></trkpt><trkpt lat="46.0908533" lon="13.1200183"><ele>134.0</ele><time>2026-04-07T16:11:29.39Z</time></trkpt><trkpt lat="46.0907483" lon="13.1201133"><ele>133.4</ele><time>2026-04-07T16:11:30.391Z</time></trkpt><trkpt lat="46.0907467" lon="13.12026"><ele>132.8</ele><time>2026-04-07T16:11:31.391Z</time></trkpt><trkpt lat="46.0906917" lon="13.12035"><ele>132.2</ele><time>2026-04-07T16:11:32.392Z</time></trkpt><trkpt lat="46.0906083" lon="13.1204583"><ele>131.6</ele><time>2026-04-07T16:11:33.392Z</time></trkpt><trkpt lat="46.0905117" lon="13.1205717"><ele>131.0</ele><time>2026-04-07T16:11:34.392Z</time></trkpt><trkpt lat="46.0904083" lon="13.1206967"><ele>131.0</ele><time>2026-04-07T16:11:35.391Z</time></trkpt><trkpt lat="46.0903" lon="13.120825"><ele>131.0</ele><time>2026-04-07T16:11:36.393Z</time></trkpt><trkpt lat="46.0901983" lon="13.12095"><ele>131.0</ele><time>2026-04-07T16:11:37.393Z</time></trkpt><trkpt lat="46.09011" lon="13.12106"><ele>131.0</ele><time>2026-04-07T16:11:38.39Z</time></trkpt><trkpt lat="46.090035" lon="13.1211583"><ele>131.0</ele><time>2026-04-07T16:11:39.392Z</time></trkpt><trkpt lat="46.0899683" lon="13.12126"><ele>131.0</ele><time>2026-04-07T16:11:40.392Z</time></trkpt><trkpt lat="46.0899133" lon="13.1213667"><ele>131.0</ele><time>2026-04-07T16:11:41.391Z</time></trkpt><trkpt lat="46.0898617" lon="13.121465"><ele>131.0</ele><time>2026-04-07T16:11:42.391Z</time></trkpt><trkpt lat="46.0898033" lon="13.1215483"><ele>131.0</ele><time>2026-04-07T16:11:43.392Z</time></trkpt><trkpt lat="46.0897317" lon="13.1216083"><ele>131.0</ele><time>2026-04-07T16:11:44.391Z</time></trkpt><trkpt lat="46.0896383" lon="13.1216583"><ele>130.5</ele><time>2026-04-07T16:11:45.392Z</time></trkpt><trkpt lat="46.0895333" lon="13.1217133"><ele>130.0</ele><time>2026-04-07T16:11:46.392Z</time></trkpt><trkpt lat="46.089425" lon="13.1217783"><ele>129.5</ele><time>2026-04-07T16:11:47.393Z</time></trkpt><trkpt lat="46.08931" lon="13.1218433"><ele>129.0</ele><time>2026-04-07T16:11:48.393Z</time></trkpt><trkpt lat="46.0891933" lon="13.1219133"><ele>128.5</ele><time>2026-04-07T16:11:49.393Z</time></trkpt><trkpt lat="46.0890817" lon="13.1220017"><ele>128.0</ele><time>2026-04-07T16:11:50.393Z</time></trkpt><trkpt lat="46.0889667" lon="13.1220883"><ele>127.5</ele><time>2026-04-07T16:11:51.391Z</time></trkpt><trkpt lat="46.08885" lon="13.122165"><ele>127.0</ele><time>2026-04-07T16:11:52.393Z</time></trkpt><trkpt lat="46.0887267" lon="13.1222183"><ele>127.0</ele><time>2026-04-07T16:11:53.392Z</time></trkpt><trkpt lat="46.088595" lon="13.12226"><ele>127.0</ele><time>2026-04-07T16:11:54.392Z</time></trkpt><trkpt lat="46.0884633" lon="13.1223"><ele>127.0</ele><time>2026-04-07T16:11:55.392Z</time></trkpt><trkpt lat="46.088335" lon="13.1223267"><ele>127.0</ele><time>2026-04-07T16:11:56.393Z</time></trkpt><trkpt lat="46.088205" lon="13.1223467"><ele>126.75</ele><time>2026-04-07T16:11:57.393Z</time></trkpt><trkpt lat="46.0880767" lon="13.12238"><ele>126.5</ele><time>2026-04-07T16:11:58.392Z</time></trkpt><trkpt lat="46.0879533" lon="13.1224283"><ele>126.25</ele><time>2026-04-07T16:11:59.392Z</time></trkpt><trkpt lat="46.087835" lon="13.1225017"><ele>126.0</ele><time>2026-04-07T16:12:00.391Z</time></trkpt><trkpt lat="46.087725" lon="13.1225983"><ele>126.0</ele><time>2026-04-07T16:12:01.392Z</time></trkpt><trkpt lat="46.0876167" lon="13.1226933"><ele>126.0</ele><time>2026-04-07T16:12:02.392Z</time></trkpt><trkpt lat="46.08751" lon="13.1228017"><ele>126.0</ele><time>2026-04-07T16:12:03.39Z</time></trkpt><trkpt lat="46.0874033" lon="13.1229217"><ele>126.0</ele><time>2026-04-07T16:12:04.396Z</time></trkpt><trkpt lat="46.0872967" lon="13.1230317"><ele>126.0</ele><time>2026-04-07T16:12:05.392Z</time></trkpt><trkpt lat="46.0871867" lon="13.1231417"><ele>126.0</ele><time>2026-04-07T16:12:06.393Z</time></trkpt><trkpt lat="46.0870767" lon="13.1232533"><ele>126.0</ele><time>2026-04-07T16:12:07.392Z</time></trkpt><trkpt lat="46.0869633" lon="13.1233633"><ele>126.0</ele><time>2026-04-07T16:12:08.391Z</time></trkpt><trkpt lat="46.0868583" lon="13.12347"><ele>126.0</ele><time>2026-04-07T16:12:09.39Z</time></trkpt><trkpt lat="46.0867667" lon="13.1236017"><ele>126.0</ele><time>2026-04-07T16:12:10.389Z</time></trkpt><trkpt lat="46.0866733" lon="13.12372"><ele>126.0</ele><time>2026-04-07T16:12:11.39Z</time></trkpt><trkpt lat="46.0865917" lon="13.1238483"><ele>126.0</ele><time>2026-04-07T16:12:12.393Z</time></trkpt><trkpt lat="46.0864983" lon="13.1239583"><ele>126.0</ele><time>2026-04-07T16:12:13.393Z</time></trkpt><trkpt lat="46.0864017" lon="13.124035"><ele>126.0</ele><time>2026-04-07T16:12:14.392Z</time></trkpt><trkpt lat="46.0863183" lon="13.1241183"><ele>126.0</ele><time>2026-04-07T16:12:15.392Z</time></trkpt><trkpt lat="46.0862417" lon="13.1241633"><ele>126.0</ele><time>2026-04-07T16:12:16.392Z</time></trkpt><trkpt lat="46.0861733" lon="13.1241733"><ele>126.0</ele><time>2026-04-07T16:12:17.392Z</time></trkpt><trkpt lat="46.08611" lon="13.124195"><ele>126.0</ele><time>2026-04-07T16:12:18.394Z</time></trkpt><trkpt lat="46.086055" lon="13.1243083"><ele>126.4</ele><time>2026-04-07T16:12:20.392Z</time></trkpt><trkpt lat="46.0860467" lon="13.1244467"><ele>126.8</ele><time>2026-04-07T16:12:22.393Z</time></trkpt><trkpt lat="46.0860783" lon="13.12462"><ele>127.20000000000002</ele><time>2026-04-07T16:12:24.39Z</time></trkpt><trkpt lat="46.086065" lon="13.1247217"><ele>127.60000000000001</ele><time>2026-04-07T16:12:25.393Z</time></trkpt><trkpt lat="46.0861333" lon="13.1248267"><ele>128.0</ele><time>2026-04-07T16:12:27.392Z</time></trkpt><trkpt lat="46.0861867" lon="13.1249167"><ele>128.0</ele><time>2026-04-07T16:12:28.394Z</time></trkpt><trkpt lat="46.0862483" lon="13.1249783"><ele>128.0</ele><time>2026-04-07T16:12:29.392Z</time></trkpt><trkpt lat="46.0863267" lon="13.125035"><ele>128.0</ele><time>2026-04-07T16:12:30.391Z</time></trkpt><trkpt lat="46.086425" lon="13.125105"><ele>128.0</ele><time>2026-04-07T16:12:31.392Z</time></trkpt><trkpt lat="46.0865383" lon="13.1251633"><ele>128.0</ele><time>2026-04-07T16:12:32.393Z</time></trkpt><trkpt lat="46.0866483" lon="13.1252533"><ele>128.20000000000002</ele><time>2026-04-07T16:12:33.392Z</time></trkpt><trkpt lat="46.0867517" lon="13.1253333"><ele>128.4</ele><time>2026-04-07T16:12:34.392Z</time></trkpt><trkpt lat="46.0868433" lon="13.1254117"><ele>128.60000000000002</ele><time>2026-04-07T16:12:35.39Z</time></trkpt><trkpt lat="46.0869167" lon="13.12548"><ele>128.8</ele><time>2026-04-07T16:12:36.392Z</time></trkpt><trkpt lat="46.08698" lon="13.125545"><ele>129.0</ele><time>2026-04-07T16:12:37.392Z</time></trkpt><trkpt lat="46.08698" lon="13.1257067"><ele>128.83333333333334</ele><time>2026-04-07T16:12:39.393Z</time></trkpt><trkpt lat="46.0869217" lon="13.1257483"><ele>128.66666666666666</ele><time>2026-04-07T16:12:40.393Z</time></trkpt><trkpt lat="46.0868533" lon="13.125785"><ele>128.5</ele><time>2026-04-07T16:12:41.393Z</time></trkpt><trkpt lat="46.0867583" lon="13.12581"><ele>128.33333333333331</ele><time>2026-04-07T16:12:42.392Z</time></trkpt><trkpt lat="46.08666" lon="13.1258167"><ele>128.16666666666666</ele><time>2026-04-07T16:12:43.393Z</time></trkpt><trkpt lat="46.086565" lon="13.1258233"><ele>128.0</ele><time>2026-04-07T16:12:44.391Z</time></trkpt><trkpt lat="46.0864667" lon="13.1258467"><ele>127.60000000000001</ele><time>2026-04-07T16:12:45.392Z</time></trkpt><trkpt lat="46.0863667" lon="13.125865"><ele>127.20000000000002</ele><time>2026-04-07T16:12:46.393Z</time></trkpt><trkpt lat="46.0862683" lon="13.12586"><ele>126.8</ele><time>2026-04-07T16:12:47.392Z</time></trkpt><trkpt lat="46.0861717" lon="13.12588"><ele>126.4</ele><time>2026-04-07T16:12:48.394Z</time></trkpt><trkpt lat="46.0860817" lon="13.1259067"><ele>126.0</ele><time>2026-04-07T16:12:49.391Z</time></trkpt><trkpt lat="46.086005" lon="13.1259367"><ele>126.0</ele><time>2026-04-07T16:12:50.391Z</time></trkpt><trkpt lat="46.085935" lon="13.1260517"><ele>126.0</ele><time>2026-04-07T16:12:52.391Z</time></trkpt><trkpt lat="46.0859217" lon="13.1262467"><ele>126.0</ele><time>2026-04-07T16:12:54.391Z</time></trkpt><trkpt lat="46.08593" lon="13.1263817"><ele>126.0</ele><time>2026-04-07T16:12:55.391Z</time></trkpt><trkpt lat="46.0859383" lon="13.1265367"><ele>126.0</ele><time>2026-04-07T16:12:56.391Z</time></trkpt><trkpt lat="46.0859783" lon="13.1267083"><ele>126.0</ele><time>2026-04-07T16:12:57.39Z</time></trkpt><trkpt lat="46.0859833" lon="13.1268883"><ele>126.0</ele><time>2026-04-07T16:12:58.39Z</time></trkpt><trkpt lat="46.086005" lon="13.1270883"><ele>126.0</ele><time>2026-04-07T16:12:59.391Z</time></trkpt><trkpt lat="46.086015" lon="13.1272983"><ele>126.0</ele><time>2026-04-07T16:13:00.391Z</time></trkpt><trkpt lat="46.0860183" lon="13.1275083"><ele>126.0</ele><time>2026-04-07T16:13:01.391Z</time></trkpt><trkpt lat="46.086025" lon="13.1277183"><ele>126.0</ele><time>2026-04-07T16:13:02.392Z</time></trkpt><trkpt lat="46.0860317" lon="13.1279333"><ele>126.0</ele><time>2026-04-07T16:13:03.394Z</time></trkpt><trkpt lat="46.0860433" lon="13.1281517"><ele>126.0</ele><time>2026-04-07T16:13:04.391Z</time></trkpt><trkpt lat="46.0860633" lon="13.1283733"><ele>125.33333333333334</ele><time>2026-04-07T16:13:05.392Z</time></trkpt><trkpt lat="46.0860617" lon="13.1285967"><ele>124.66666666666667</ele><time>2026-04-07T16:13:06.392Z</time></trkpt><trkpt lat="46.0860767" lon="13.1288183"><ele>124.0</ele><time>2026-04-07T16:13:07.389Z</time></trkpt><trkpt lat="46.0860983" lon="13.1290367"><ele>123.66666666666667</ele><time>2026-04-07T16:13:08.391Z</time></trkpt><trkpt lat="46.0861133" lon="13.1292533"><ele>123.33333333333334</ele><time>2026-04-07T16:13:09.391Z</time></trkpt><trkpt lat="46.0861433" lon="13.1295083"><ele>123.0</ele><time>2026-04-07T16:13:10.392Z</time></trkpt><trkpt lat="46.0861517" lon="13.1296967"><ele>123.0</ele><time>2026-04-07T16:13:11.392Z</time></trkpt><trkpt lat="46.0861467" lon="13.1298883"><ele>123.0</ele><time>2026-04-07T16:13:12.391Z</time></trkpt><trkpt lat="46.0861983" lon="13.1301283"><ele>123.0</ele><time>2026-04-07T16:13:13.391Z</time></trkpt><trkpt lat="46.0862167" lon="13.1303433"><ele>123.25</ele><time>2026-04-07T16:13:14.39Z</time></trkpt><trkpt lat="46.08625" lon="13.1305483"><ele>123.5</ele><time>2026-04-07T16:13:15.391Z</time></trkpt><trkpt lat="46.0862783" lon="13.1307467"><ele>123.75</ele><time>2026-04-07T16:13:16.391Z</time></trkpt><trkpt lat="46.0862967" lon="13.1308983"><ele>124.0</ele><time>2026-04-07T16:13:17.388Z</time></trkpt><trkpt lat="46.08632" lon="13.1310867"><ele>124.0</ele><time>2026-04-07T16:13:19.39Z</time></trkpt><trkpt lat="46.08635" lon="13.1312483"><ele>124.0</ele><time>2026-04-07T16:13:20.389Z</time></trkpt><trkpt lat="46.086375" lon="13.1314083"><ele>124.0</ele><time>2026-04-07T16:13:21.389Z</time></trkpt><trkpt lat="46.0863967" lon="13.1315817"><ele>124.0</ele><time>2026-04-07T16:13:22.388Z</time></trkpt><trkpt lat="46.086415" lon="13.1317717"><ele>124.0</ele><time>2026-04-07T16:13:23.389Z</time></trkpt><trkpt lat="46.0864267" lon="13.1319667"><ele>124.0</ele><time>2026-04-07T16:13:24.391Z</time></trkpt><trkpt lat="46.0864417" lon="13.13217"><ele>124.0</ele><time>2026-04-07T16:13:25.391Z</time></trkpt><trkpt lat="46.0864617" lon="13.1323767"><ele>124.0</ele><time>2026-04-07T16:13:26.39Z</time></trkpt><trkpt lat="46.0864883" lon="13.1325683"><ele>124.0</ele><time>2026-04-07T16:13:27.39Z</time></trkpt><trkpt lat="46.0865083" lon="13.1327383"><ele>124.0</ele><time>2026-04-07T16:13:28.388Z</time></trkpt><trkpt lat="46.0865217" lon="13.1328833"><ele>124.0</ele><time>2026-04-07T16:13:29.389Z</time></trkpt><trkpt lat="46.0865283" lon="13.1330017"><ele>124.0</ele><time>2026-04-07T16:13:30.393Z</time></trkpt><trkpt lat="46.0865517" lon="13.1331183"><ele>124.0</ele><time>2026-04-07T16:13:32.392Z</time></trkpt><trkpt lat="46.0865517" lon="13.1332233"><ele>124.80000000000001</ele><time>2026-04-07T16:13:42.394Z</time></trkpt><trkpt lat="46.08656" lon="13.1333267"><ele>125.60000000000001</ele><time>2026-04-07T16:13:44.392Z</time></trkpt><trkpt lat="46.0865467" lon="13.1334517"><ele>126.4</ele><time>2026-04-07T16:13:46.393Z</time></trkpt><trkpt lat="46.0864667" lon="13.1336133"><ele>127.2</ele><time>2026-04-07T16:13:48.393Z</time></trkpt><trkpt lat="46.08645" lon="13.1337767"><ele>128.0</ele><time>2026-04-07T16:13:50.391Z</time></trkpt><trkpt lat="46.0865133" lon="13.1338917"><ele>127.99999999999999</ele><time>2026-04-07T16:13:52.392Z</time></trkpt><trkpt lat="46.0865833" lon="13.1339067"><ele>128.0</ele><time>2026-04-07T16:13:53.393Z</time></trkpt><trkpt lat="46.086655" lon="13.1339117"><ele>128.0</ele><time>2026-04-07T16:13:54.39Z</time></trkpt><trkpt lat="46.086725" lon="13.1339533"><ele>128.0</ele><time>2026-04-07T16:13:55.392Z</time></trkpt><trkpt lat="46.08679" lon="13.1340117"><ele>127.99999999999999</ele><time>2026-04-07T16:13:56.392Z</time></trkpt><trkpt lat="46.0868367" lon="13.1340917"><ele>128.0</ele><time>2026-04-07T16:13:57.392Z</time></trkpt><trkpt lat="46.08684" lon="13.1342567"><ele>127.75</ele><time>2026-04-07T16:13:58.391Z</time></trkpt><trkpt lat="46.086855" lon="13.1344017"><ele>127.5</ele><time>2026-04-07T16:13:59.392Z</time></trkpt><trkpt lat="46.08688" lon="13.13456"><ele>127.25</ele><time>2026-04-07T16:14:00.39Z</time></trkpt><trkpt lat="46.0869067" lon="13.13474"><ele>127.0</ele><time>2026-04-07T16:14:01.392Z</time></trkpt><trkpt lat="46.0869483" lon="13.13493"><ele>126.0</ele><time>2026-04-07T16:14:02.391Z</time></trkpt><trkpt lat="46.0869933" lon="13.135125"><ele>125.0</ele><time>2026-04-07T16:14:03.391Z</time></trkpt><trkpt lat="46.0870267" lon="13.13535"><ele>124.0</ele><time>2026-04-07T16:14:04.392Z</time></trkpt><trkpt lat="46.0870533" lon="13.1355817"><ele>124.0</ele><time>2026-04-07T16:14:05.392Z</time></trkpt><trkpt lat="46.0870733" lon="13.1358233"><ele>124.0</ele><time>2026-04-07T16:14:06.392Z</time></trkpt><trkpt lat="46.087105" lon="13.1360617"><ele>124.0</ele><time>2026-04-07T16:14:07.393Z</time></trkpt><trkpt lat="46.0871417" lon="13.1363067"><ele>124.66666666666667</ele><time>2026-04-07T16:14:08.392Z</time></trkpt><trkpt lat="46.08718" lon="13.1365567"><ele>125.33333333333334</ele><time>2026-04-07T16:14:09.393Z</time></trkpt><trkpt lat="46.0872283" lon="13.13681"><ele>126.0</ele><time>2026-04-07T16:14:10.391Z</time></trkpt><trkpt lat="46.0872717" lon="13.1370617"><ele>126.0</ele><time>2026-04-07T16:14:11.391Z</time></trkpt><trkpt lat="46.0873133" lon="13.1373117"><ele>126.0</ele><time>2026-04-07T16:14:12.392Z</time></trkpt><trkpt lat="46.0873517" lon="13.1375633"><ele>126.0</ele><time>2026-04-07T16:14:13.392Z</time></trkpt><trkpt lat="46.0873933" lon="13.1378133"><ele>125.66666666666666</ele><time>2026-04-07T16:14:14.392Z</time></trkpt><trkpt lat="46.087435" lon="13.13806"><ele>125.33333333333333</ele><time>2026-04-07T16:14:15.391Z</time></trkpt><trkpt lat="46.0874883" lon="13.1383017"><ele>125.0</ele><time>2026-04-07T16:14:16.391Z</time></trkpt><trkpt lat="46.0875283" lon="13.1385433"><ele>125.0</ele><time>2026-04-07T16:14:17.392Z</time></trkpt><trkpt lat="46.0875617" lon="13.1387817"><ele>125.0</ele><time>2026-04-07T16:14:18.391Z</time></trkpt><trkpt lat="46.0875967" lon="13.13902"><ele>125.0</ele><time>2026-04-07T16:14:19.391Z</time></trkpt><trkpt lat="46.0876317" lon="13.1392567"><ele>125.0</ele><time>2026-04-07T16:14:20.391Z</time></trkpt><trkpt lat="46.08767" lon="13.13949"><ele>125.0</ele><time>2026-04-07T16:14:21.392Z</time></trkpt><trkpt lat="46.0877033" lon="13.1397267"><ele>125.0</ele><time>2026-04-07T16:14:22.392Z</time></trkpt><trkpt lat="46.0877267" lon="13.1399583"><ele>124.66666666666666</ele><time>2026-04-07T16:14:23.391Z</time></trkpt><trkpt lat="46.0877533" lon="13.1401933"><ele>124.33333333333334</ele><time>2026-04-07T16:14:24.391Z</time></trkpt><trkpt lat="46.087775" lon="13.1404267"><ele>124.0</ele><time>2026-04-07T16:14:25.392Z</time></trkpt><trkpt lat="46.087795" lon="13.1406567"><ele>124.0</ele><time>2026-04-07T16:14:26.391Z</time></trkpt><trkpt lat="46.087805" lon="13.1408933"><ele>124.0</ele><time>2026-04-07T16:14:27.393Z</time></trkpt><trkpt lat="46.087815" lon="13.1411283"><ele>124.0</ele><time>2026-04-07T16:14:28.393Z</time></trkpt><trkpt lat="46.087825" lon="13.141365"><ele>124.0</ele><time>2026-04-07T16:14:29.391Z</time></trkpt><trkpt lat="46.087835" lon="13.1415983"><ele>124.0</ele><time>2026-04-07T16:14:30.392Z</time></trkpt><trkpt lat="46.0878233" lon="13.141835"><ele>124.0</ele><time>2026-04-07T16:14:31.393Z</time></trkpt><trkpt lat="46.0878267" lon="13.1420683"><ele>124.0</ele><time>2026-04-07T16:14:32.391Z</time></trkpt><trkpt lat="46.0878217" lon="13.1422867"><ele>124.0</ele><time>2026-04-07T16:14:33.391Z</time></trkpt><trkpt lat="46.0878133" lon="13.1424833"><ele>124.0</ele><time>2026-04-07T16:14:34.392Z</time></trkpt><trkpt lat="46.0878017" lon="13.1426617"><ele>124.0</ele><time>2026-04-07T16:14:35.391Z</time></trkpt><trkpt lat="46.087805" lon="13.1428233"><ele>124.16666666666667</ele><time>2026-04-07T16:14:36.392Z</time></trkpt><trkpt lat="46.0878167" lon="13.1429667"><ele>124.33333333333334</ele><time>2026-04-07T16:14:37.392Z</time></trkpt><trkpt lat="46.087815" lon="13.1430833"><ele>124.5</ele><time>2026-04-07T16:14:38.393Z</time></trkpt><trkpt lat="46.0878017" lon="13.14318"><ele>124.66666666666666</ele><time>2026-04-07T16:14:39.393Z</time></trkpt><trkpt lat="46.0877117" lon="13.1432967"><ele>124.83333333333333</ele><time>2026-04-07T16:14:41.391Z</time></trkpt><trkpt lat="46.08764" lon="13.143315"><ele>125.0</ele><time>2026-04-07T16:14:42.391Z</time></trkpt><trkpt lat="46.0875483" lon="13.143285"><ele>125.0</ele><time>2026-04-07T16:14:43.393Z</time></trkpt><trkpt lat="46.0874367" lon="13.143265"><ele>125.0</ele><time>2026-04-07T16:14:44.391Z</time></trkpt><trkpt lat="46.08731" lon="13.1432433"><ele>125.0</ele><time>2026-04-07T16:14:45.392Z</time></trkpt><trkpt lat="46.0871583" lon="13.14326"><ele>125.0</ele><time>2026-04-07T16:14:46.391Z</time></trkpt><trkpt lat="46.087015" lon="13.143255"><ele>125.0</ele><time>2026-04-07T16:14:47.391Z</time></trkpt><trkpt lat="46.0868633" lon="13.14326"><ele>125.0</ele><time>2026-04-07T16:14:48.391Z</time></trkpt><trkpt lat="46.0867133" lon="13.143255"><ele>125.0</ele><time>2026-04-07T16:14:49.392Z</time></trkpt><trkpt lat="46.0865733" lon="13.143235"><ele>125.0</ele><time>2026-04-07T16:14:50.392Z</time></trkpt><trkpt lat="46.08644" lon="13.1432767"><ele>124.5</ele><time>2026-04-07T16:14:51.391Z</time></trkpt><trkpt lat="46.0863067" lon="13.143335"><ele>124.0</ele><time>2026-04-07T16:14:52.392Z</time></trkpt><trkpt lat="46.08617" lon="13.1433967"><ele>123.5</ele><time>2026-04-07T16:14:53.392Z</time></trkpt><trkpt lat="46.086025" lon="13.143455"><ele>123.0</ele><time>2026-04-07T16:14:54.391Z</time></trkpt><trkpt lat="46.085875" lon="13.1435033"><ele>122.66666666666666</ele><time>2026-04-07T16:14:55.392Z</time></trkpt><trkpt lat="46.0857283" lon="13.1435567"><ele>122.33333333333333</ele><time>2026-04-07T16:14:56.389Z</time></trkpt><trkpt lat="46.0855827" lon="13.1436132"><ele>122.0</ele><time>2026-04-07T16:14:57.392Z</time></trkpt><trkpt lat="46.0854372" lon="13.1436797"><ele>122.0</ele><time>2026-04-07T16:14:58.392Z</time></trkpt><trkpt lat="46.0852901" lon="13.1437459"><ele>122.0</ele><time>2026-04-07T16:14:59.392Z</time></trkpt><trkpt lat="46.0851413" lon="13.1438071"><ele>122.0</ele><time>2026-04-07T16:15:00.391Z</time></trkpt><trkpt lat="46.0849886" lon="13.1438721"><ele>122.0</ele><time>2026-04-07T16:15:01.392Z</time></trkpt><trkpt lat="46.084831" lon="13.1439202"><ele>122.0</ele><time>2026-04-07T16:15:02.392Z</time></trkpt><trkpt lat="46.0846692" lon="13.1439655"><ele>122.0</ele><time>2026-04-07T16:15:03.393Z</time></trkpt><trkpt lat="46.0845079" lon="13.1440015"><ele>122.0</ele><time>2026-04-07T16:15:04.388Z</time></trkpt><trkpt lat="46.0843503" lon="13.1440512"><ele>122.0</ele><time>2026-04-07T16:15:05.39Z</time></trkpt><trkpt lat="46.084197" lon="13.1441175"><ele>122.0</ele><time>2026-04-07T16:15:06.392Z</time></trkpt><trkpt lat="46.084039" lon="13.1442072"><ele>121.8</ele><time>2026-04-07T16:15:07.392Z</time></trkpt><trkpt lat="46.0839251" lon="13.1442627"><ele>121.6</ele><time>2026-04-07T16:15:08.393Z</time></trkpt><trkpt lat="46.0838277" lon="13.1442909"><ele>121.39999999999999</ele><time>2026-04-07T16:15:09.393Z</time></trkpt><trkpt lat="46.08374" lon="13.1443046"><ele>121.19999999999999</ele><time>2026-04-07T16:15:10.392Z</time></trkpt><trkpt lat="46.0836427" lon="13.144387"><ele>121.0</ele><time>2026-04-07T16:15:11.393Z</time></trkpt><trkpt lat="46.0835505" lon="13.1444248"><ele>121.0</ele><time>2026-04-07T16:15:12.392Z</time></trkpt><trkpt lat="46.0834464" lon="13.1444326"><ele>121.0</ele><time>2026-04-07T16:15:13.392Z</time></trkpt><trkpt lat="46.0833458" lon="13.1444793"><ele>121.0</ele><time>2026-04-07T16:15:14.391Z</time></trkpt><trkpt lat="46.0832416" lon="13.1445783"><ele>121.0</ele><time>2026-04-07T16:15:15.393Z</time></trkpt><trkpt lat="46.0831274" lon="13.1446758"><ele>120.5</ele><time>2026-04-07T16:15:16.393Z</time></trkpt><trkpt lat="46.0830017" lon="13.1447512"><ele>120.0</ele><time>2026-04-07T16:15:17.393Z</time></trkpt><trkpt lat="46.0828816" lon="13.1448369"><ele>119.5</ele><time>2026-04-07T16:15:18.392Z</time></trkpt><trkpt lat="46.0827504" lon="13.1449282"><ele>119.0</ele><time>2026-04-07T16:15:19.392Z</time></trkpt><trkpt lat="46.0826116" lon="13.1450168"><ele>119.0</ele><time>2026-04-07T16:15:20.392Z</time></trkpt><trkpt lat="46.0824754" lon="13.1451202"><ele>119.0</ele><time>2026-04-07T16:15:21.39Z</time></trkpt><trkpt lat="46.0823395" lon="13.1452176"><ele>119.0</ele><time>2026-04-07T16:15:22.393Z</time></trkpt><trkpt lat="46.0822063" lon="13.1453115"><ele>119.33333333333333</ele><time>2026-04-07T16:15:23.393Z</time></trkpt><trkpt lat="46.0820692" lon="13.1454051"><ele>119.66666666666666</ele><time>2026-04-07T16:15:24.389Z</time></trkpt><trkpt lat="46.0819334" lon="13.1455017"><ele>120.0</ele><time>2026-04-07T16:15:25.39Z</time></trkpt><trkpt lat="46.0817932" lon="13.1455959"><ele>120.0</ele><time>2026-04-07T16:15:26.389Z</time></trkpt><trkpt lat="46.0816524" lon="13.145691"><ele>120.0</ele><time>2026-04-07T16:15:27.39Z</time></trkpt><trkpt lat="46.0815129" lon="13.1457889"><ele>120.0</ele><time>2026-04-07T16:15:28.389Z</time></trkpt><trkpt lat="46.0813733" lon="13.14589"><ele>119.75</ele><time>2026-04-07T16:15:29.389Z</time></trkpt><trkpt lat="46.081235" lon="13.1459833"><ele>119.5</ele><time>2026-04-07T16:15:30.389Z</time></trkpt><trkpt lat="46.0811017" lon="13.1460817"><ele>119.25</ele><time>2026-04-07T16:15:31.392Z</time></trkpt><trkpt lat="46.0809767" lon="13.1461683"><ele>119.0</ele><time>2026-04-07T16:15:32.39Z</time></trkpt><trkpt lat="46.0808583" lon="13.14625"><ele>118.75</ele><time>2026-04-07T16:15:33.393Z</time></trkpt><trkpt lat="46.0807417" lon="13.1463167"><ele>118.5</ele><time>2026-04-07T16:15:34.391Z</time></trkpt><trkpt lat="46.0806367" lon="13.14639"><ele>118.25</ele><time>2026-04-07T16:15:35.39Z</time></trkpt><trkpt lat="46.0805467" lon="13.1464883"><ele>118.0</ele><time>2026-04-07T16:15:36.391Z</time></trkpt><trkpt lat="46.08048" lon="13.1466233"><ele>118.0</ele><time>2026-04-07T16:15:37.39Z</time></trkpt><trkpt lat="46.0804317" lon="13.1467583"><ele>118.00000000000001</ele><time>2026-04-07T16:15:38.392Z</time></trkpt><trkpt lat="46.0803567" lon="13.1468417"><ele>118.00000000000001</ele><time>2026-04-07T16:15:39.392Z</time></trkpt><trkpt lat="46.0803083" lon="13.1469217"><ele>118.0</ele><time>2026-04-07T16:15:40.391Z</time></trkpt><trkpt lat="46.0802733" lon="13.1470717"><ele>118.0</ele><time>2026-04-07T16:15:42.392Z</time></trkpt><trkpt lat="46.08029" lon="13.147175"><ele>118.0</ele><time>2026-04-07T16:15:44.392Z</time></trkpt><trkpt lat="46.08023" lon="13.147275"><ele>118.0</ele><time>2026-04-07T16:15:46.393Z</time></trkpt><trkpt lat="46.0801533" lon="13.14734"><ele>118.0</ele><time>2026-04-07T16:15:47.392Z</time></trkpt><trkpt lat="46.0800517" lon="13.147425"><ele>118.0</ele><time>2026-04-07T16:15:48.392Z</time></trkpt><trkpt lat="46.079915" lon="13.1475233"><ele>118.0</ele><time>2026-04-07T16:15:49.394Z</time></trkpt><trkpt lat="46.0797783" lon="13.1476467"><ele>118.0</ele><time>2026-04-07T16:15:50.393Z</time></trkpt><trkpt lat="46.079625" lon="13.1477783"><ele>118.0</ele><time>2026-04-07T16:15:51.392Z</time></trkpt><trkpt lat="46.07945" lon="13.1479117"><ele>118.0</ele><time>2026-04-07T16:15:52.391Z</time></trkpt><trkpt lat="46.0792683" lon="13.148045"><ele>118.0</ele><time>2026-04-07T16:15:53.391Z</time></trkpt><trkpt lat="46.0790767" lon="13.1481867"><ele>118.0</ele><time>2026-04-07T16:15:54.391Z</time></trkpt><trkpt lat="46.0788783" lon="13.1483417"><ele>118.0</ele><time>2026-04-07T16:15:55.391Z</time></trkpt><trkpt lat="46.0786767" lon="13.1485017"><ele>118.0</ele><time>2026-04-07T16:15:56.392Z</time></trkpt><trkpt lat="46.07848" lon="13.14866"><ele>118.0</ele><time>2026-04-07T16:15:57.393Z</time></trkpt><trkpt lat="46.0782883" lon="13.1488233"><ele>118.0</ele><time>2026-04-07T16:15:58.393Z</time></trkpt><trkpt lat="46.0781033" lon="13.1489883"><ele>118.0</ele><time>2026-04-07T16:15:59.392Z</time></trkpt><trkpt lat="46.077925" lon="13.1491567"><ele>117.0</ele><time>2026-04-07T16:16:00.391Z</time></trkpt><trkpt lat="46.0777567" lon="13.149325"><ele>116.0</ele><time>2026-04-07T16:16:01.393Z</time></trkpt><trkpt lat="46.077585" lon="13.149485"><ele>115.0</ele><time>2026-04-07T16:16:02.392Z</time></trkpt><trkpt lat="46.07742" lon="13.1496467"><ele>115.0</ele><time>2026-04-07T16:16:03.391Z</time></trkpt><trkpt lat="46.0772617" lon="13.1498167"><ele>115.0</ele><time>2026-04-07T16:16:04.392Z</time></trkpt><trkpt lat="46.0771133" lon="13.1499833"><ele>115.0</ele><time>2026-04-07T16:16:05.392Z</time></trkpt><trkpt lat="46.0769783" lon="13.150135"><ele>115.25</ele><time>2026-04-07T16:16:06.393Z</time></trkpt><trkpt lat="46.076855" lon="13.1502717"><ele>115.5</ele><time>2026-04-07T16:16:07.391Z</time></trkpt><trkpt lat="46.0767417" lon="13.15039"><ele>115.75</ele><time>2026-04-07T16:16:08.389Z</time></trkpt><trkpt lat="46.076635" lon="13.1504767"><ele>116.0</ele><time>2026-04-07T16:16:09.392Z</time></trkpt><trkpt lat="46.0765333" lon="13.1505117"><ele>116.0</ele><time>2026-04-07T16:16:10.393Z</time></trkpt><trkpt lat="46.0764567" lon="13.1505133"><ele>116.0</ele><time>2026-04-07T16:16:11.392Z</time></trkpt><trkpt lat="46.0763617" lon="13.15055"><ele>116.0</ele><time>2026-04-07T16:16:13.392Z</time></trkpt><trkpt lat="46.0763033" lon="13.1506883"><ele>116.0</ele><time>2026-04-07T16:16:15.392Z</time></trkpt><trkpt lat="46.076295" lon="13.150825"><ele>116.0</ele><time>2026-04-07T16:16:16.391Z</time></trkpt><trkpt lat="46.0762867" lon="13.1509867"><ele>116.0</ele><time>2026-04-07T16:16:17.395Z</time></trkpt><trkpt lat="46.0762833" lon="13.15117"><ele>116.0</ele><time>2026-04-07T16:16:18.393Z</time></trkpt><trkpt lat="46.0762683" lon="13.1513667"><ele>116.0</ele><time>2026-04-07T16:16:19.393Z</time></trkpt><trkpt lat="46.0762467" lon="13.151575"><ele>116.0</ele><time>2026-04-07T16:16:20.393Z</time></trkpt><trkpt lat="46.076215" lon="13.15179"><ele>115.66666666666666</ele><time>2026-04-07T16:16:21.392Z</time></trkpt><trkpt lat="46.0761933" lon="13.15203"><ele>115.33333333333334</ele><time>2026-04-07T16:16:22.392Z</time></trkpt><trkpt lat="46.0761533" lon="13.1522733"><ele>115.0</ele><time>2026-04-07T16:16:23.392Z</time></trkpt><trkpt lat="46.0761167" lon="13.1525317"><ele>115.33333333333334</ele><time>2026-04-07T16:16:24.392Z</time></trkpt><trkpt lat="46.07608" lon="13.1528067"><ele>115.66666666666666</ele><time>2026-04-07T16:16:25.392Z</time></trkpt><trkpt lat="46.0760267" lon="13.1530817"><ele>116.0</ele><time>2026-04-07T16:16:26.392Z</time></trkpt><trkpt lat="46.0759983" lon="13.1533767"><ele>116.0</ele><time>2026-04-07T16:16:27.391Z</time></trkpt><trkpt lat="46.075955" lon="13.1536683"><ele>116.0</ele><time>2026-04-07T16:16:28.393Z</time></trkpt><trkpt lat="46.0759217" lon="13.1539633"><ele>116.0</ele><time>2026-04-07T16:16:29.389Z</time></trkpt><trkpt lat="46.0758733" lon="13.154255"><ele>116.0</ele><time>2026-04-07T16:16:30.391Z</time></trkpt><trkpt lat="46.0758283" lon="13.15455"><ele>116.0</ele><time>2026-04-07T16:16:31.39Z</time></trkpt><trkpt lat="46.0757817" lon="13.1548467"><ele>116.0</ele><time>2026-04-07T16:16:32.39Z</time></trkpt><trkpt lat="46.0757367" lon="13.15514"><ele>115.66666666666666</ele><time>2026-04-07T16:16:33.392Z</time></trkpt><trkpt lat="46.0756917" lon="13.1554333"><ele>115.33333333333334</ele><time>2026-04-07T16:16:34.389Z</time></trkpt><trkpt lat="46.0756467" lon="13.1557283"><ele>115.0</ele><time>2026-04-07T16:16:35.392Z</time></trkpt><trkpt lat="46.0756017" lon="13.1560233"><ele>115.0</ele><time>2026-04-07T16:16:36.393Z</time></trkpt><trkpt lat="46.0755517" lon="13.1563183"><ele>115.0</ele><time>2026-04-07T16:16:37.392Z</time></trkpt><trkpt lat="46.0755067" lon="13.156615"><ele>115.0</ele><time>2026-04-07T16:16:38.395Z</time></trkpt><trkpt lat="46.07547" lon="13.1569167"><ele>115.0</ele><time>2026-04-07T16:16:39.395Z</time></trkpt><trkpt lat="46.0754267" lon="13.1572183"><ele>115.0</ele><time>2026-04-07T16:16:40.391Z</time></trkpt><trkpt lat="46.075385" lon="13.1575217"><ele>115.0</ele><time>2026-04-07T16:16:41.392Z</time></trkpt><trkpt lat="46.0753367" lon="13.157825"><ele>114.66666666666667</ele><time>2026-04-07T16:16:42.392Z</time></trkpt><trkpt lat="46.0752867" lon="13.1581267"><ele>114.33333333333334</ele><time>2026-04-07T16:16:43.392Z</time></trkpt><trkpt lat="46.07524" lon="13.15843"><ele>114.0</ele><time>2026-04-07T16:16:44.393Z</time></trkpt><trkpt lat="46.0751883" lon="13.1587317"><ele>114.33333333333334</ele><time>2026-04-07T16:16:45.392Z</time></trkpt><trkpt lat="46.0751433" lon="13.1590367"><ele>114.66666666666667</ele><time>2026-04-07T16:16:46.394Z</time></trkpt><trkpt lat="46.0750983" lon="13.159345"><ele>115.0</ele><time>2026-04-07T16:16:47.389Z</time></trkpt><trkpt lat="46.0750517" lon="13.159655"><ele>115.0</ele><time>2026-04-07T16:16:48.39Z</time></trkpt><trkpt lat="46.07501" lon="13.1599683"><ele>115.0</ele><time>2026-04-07T16:16:49.39Z</time></trkpt><trkpt lat="46.0749683" lon="13.160285"><ele>115.0</ele><time>2026-04-07T16:16:50.39Z</time></trkpt><trkpt lat="46.0749217" lon="13.1605933"><ele>114.66666666666667</ele><time>2026-04-07T16:16:51.391Z</time></trkpt><trkpt lat="46.074875" lon="13.1609033"><ele>114.33333333333334</ele><time>2026-04-07T16:16:52.39Z</time></trkpt><trkpt lat="46.0748283" lon="13.1612017"><ele>114.0</ele><time>2026-04-07T16:16:53.391Z</time></trkpt><trkpt lat="46.0747833" lon="13.1614917"><ele>114.0</ele><time>2026-04-07T16:16:54.393Z</time></trkpt><trkpt lat="46.0747417" lon="13.161775"><ele>114.0</ele><time>2026-04-07T16:16:55.393Z</time></trkpt><trkpt lat="46.0747083" lon="13.16206"><ele>114.0</ele><time>2026-04-07T16:16:56.391Z</time></trkpt><trkpt lat="46.0746817" lon="13.1623533"><ele>113.33333333333334</ele><time>2026-04-07T16:16:57.392Z</time></trkpt><trkpt lat="46.0746667" lon="13.162655"><ele>112.66666666666667</ele><time>2026-04-07T16:16:58.393Z</time></trkpt><trkpt lat="46.0746633" lon="13.1629633"><ele>112.0</ele><time>2026-04-07T16:16:59.393Z</time></trkpt><trkpt lat="46.07466" lon="13.1632767"><ele>113.0</ele><time>2026-04-07T16:17:00.392Z</time></trkpt><trkpt lat="46.074655" lon="13.16359"><ele>114.0</ele><time>2026-04-07T16:17:01.392Z</time></trkpt><trkpt lat="46.0746467" lon="13.1639033"><ele>115.0</ele><time>2026-04-07T16:17:02.392Z</time></trkpt><trkpt lat="46.0746417" lon="13.164215"><ele>115.0</ele><time>2026-04-07T16:17:03.393Z</time></trkpt><trkpt lat="46.07464" lon="13.1645267"><ele>115.0</ele><time>2026-04-07T16:17:04.393Z</time></trkpt><trkpt lat="46.074635" lon="13.1648383"><ele>115.0</ele><time>2026-04-07T16:17:05.39Z</time></trkpt><trkpt lat="46.0746317" lon="13.1651467"><ele>115.0</ele><time>2026-04-07T16:17:06.39Z</time></trkpt><trkpt lat="46.0746233" lon="13.1654567"><ele>115.0</ele><time>2026-04-07T16:17:07.392Z</time></trkpt><trkpt lat="46.0746183" lon="13.1657617"><ele>115.0</ele><time>2026-04-07T16:17:08.392Z</time></trkpt><trkpt lat="46.0746117" lon="13.1660683"><ele>115.0</ele><time>2026-04-07T16:17:09.39Z</time></trkpt><trkpt lat="46.0745983" lon="13.1663767"><ele>115.0</ele><time>2026-04-07T16:17:10.391Z</time></trkpt><trkpt lat="46.0745983" lon="13.1666817"><ele>115.0</ele><time>2026-04-07T16:17:11.39Z</time></trkpt><trkpt lat="46.0745917" lon="13.1669833"><ele>115.0</ele><time>2026-04-07T16:17:12.392Z</time></trkpt><trkpt lat="46.0745867" lon="13.1672867"><ele>115.0</ele><time>2026-04-07T16:17:13.392Z</time></trkpt><trkpt lat="46.074575" lon="13.1675917"><ele>115.0</ele><time>2026-04-07T16:17:14.392Z</time></trkpt><trkpt lat="46.0745633" lon="13.16789"><ele>116.0</ele><time>2026-04-07T16:17:15.391Z</time></trkpt><trkpt lat="46.0745433" lon="13.1681967"><ele>117.0</ele><time>2026-04-07T16:17:16.392Z</time></trkpt><trkpt lat="46.074535" lon="13.1685"><ele>118.0</ele><time>2026-04-07T16:17:17.39Z</time></trkpt><trkpt lat="46.0745333" lon="13.1688067"><ele>117.0</ele><time>2026-04-07T16:17:18.389Z</time></trkpt><trkpt lat="46.07453" lon="13.16911"><ele>116.0</ele><time>2026-04-07T16:17:19.389Z</time></trkpt><trkpt lat="46.0745217" lon="13.169415"><ele>115.0</ele><time>2026-04-07T16:17:20.391Z</time></trkpt><trkpt lat="46.0745083" lon="13.16972"><ele>114.33333333333334</ele><time>2026-04-07T16:17:21.391Z</time></trkpt><trkpt lat="46.0744867" lon="13.1700267"><ele>113.66666666666666</ele><time>2026-04-07T16:17:22.388Z</time></trkpt><trkpt lat="46.0744567" lon="13.1703317"><ele>113.0</ele><time>2026-04-07T16:17:23.39Z</time></trkpt><trkpt lat="46.07443" lon="13.1706367"><ele>113.66666666666666</ele><time>2026-04-07T16:17:24.393Z</time></trkpt><trkpt lat="46.074405" lon="13.17094"><ele>114.33333333333334</ele><time>2026-04-07T16:17:25.393Z</time></trkpt><trkpt lat="46.074385" lon="13.1712417"><ele>115.0</ele><time>2026-04-07T16:17:26.392Z</time></trkpt><trkpt lat="46.0743667" lon="13.17154"><ele>115.33333333333334</ele><time>2026-04-07T16:17:27.392Z</time></trkpt><trkpt lat="46.074345" lon="13.1718367"><ele>115.66666666666666</ele><time>2026-04-07T16:17:28.393Z</time></trkpt><trkpt lat="46.074325" lon="13.1721333"><ele>116.0</ele><time>2026-04-07T16:17:29.392Z</time></trkpt><trkpt lat="46.0743" lon="13.1724267"><ele>116.0</ele><time>2026-04-07T16:17:30.393Z</time></trkpt><trkpt lat="46.0742783" lon="13.1727217"><ele>116.0</ele><time>2026-04-07T16:17:31.392Z</time></trkpt><trkpt lat="46.0742517" lon="13.1730167"><ele>116.0</ele><time>2026-04-07T16:17:32.392Z</time></trkpt><trkpt lat="46.0742217" lon="13.1733133"><ele>117.0</ele><time>2026-04-07T16:17:33.392Z</time></trkpt><trkpt lat="46.0741967" lon="13.1736083"><ele>118.0</ele><time>2026-04-07T16:17:34.393Z</time></trkpt><trkpt lat="46.074175" lon="13.1739067"><ele>119.0</ele><time>2026-04-07T16:17:35.393Z</time></trkpt><trkpt lat="46.07415" lon="13.1742017"><ele>119.33333333333333</ele><time>2026-04-07T16:17:36.391Z</time></trkpt><trkpt lat="46.0741317" lon="13.1744933"><ele>119.66666666666666</ele><time>2026-04-07T16:17:37.393Z</time></trkpt><trkpt lat="46.074115" lon="13.174785"><ele>120.0</ele><time>2026-04-07T16:17:38.393Z</time></trkpt><trkpt lat="46.0740983" lon="13.1750817"><ele>118.33333333333334</ele><time>2026-04-07T16:17:39.393Z</time></trkpt><trkpt lat="46.0740767" lon="13.1753767"><ele>116.66666666666667</ele><time>2026-04-07T16:17:40.392Z</time></trkpt><trkpt lat="46.07405" lon="13.1756717"><ele>115.0</ele><time>2026-04-07T16:17:41.391Z</time></trkpt><trkpt lat="46.074025" lon="13.17597"><ele>115.0</ele><time>2026-04-07T16:17:42.391Z</time></trkpt><trkpt lat="46.074005" lon="13.1762667"><ele>115.0</ele><time>2026-04-07T16:17:43.392Z</time></trkpt><trkpt lat="46.0739867" lon="13.1765567"><ele>115.0</ele><time>2026-04-07T16:17:44.392Z</time></trkpt><trkpt lat="46.0739683" lon="13.1768433"><ele>115.0</ele><time>2026-04-07T16:17:45.391Z</time></trkpt><trkpt lat="46.07395" lon="13.1771317"><ele>115.0</ele><time>2026-04-07T16:17:46.391Z</time></trkpt><trkpt lat="46.0739317" lon="13.177415"><ele>115.0</ele><time>2026-04-07T16:17:47.388Z</time></trkpt><trkpt lat="46.07391" lon="13.1777"><ele>114.66666666666667</ele><time>2026-04-07T16:17:48.389Z</time></trkpt><trkpt lat="46.073885" lon="13.17798"><ele>114.33333333333334</ele><time>2026-04-07T16:17:49.389Z</time></trkpt><trkpt lat="46.07386" lon="13.17826"><ele>114.0</ele><time>2026-04-07T16:17:50.389Z</time></trkpt><trkpt lat="46.073835" lon="13.1785383"><ele>113.66666666666666</ele><time>2026-04-07T16:17:51.39Z</time></trkpt><trkpt lat="46.073805" lon="13.178815"><ele>113.33333333333333</ele><time>2026-04-07T16:17:52.388Z</time></trkpt><trkpt lat="46.07376" lon="13.1790917"><ele>113.0</ele><time>2026-04-07T16:17:53.389Z</time></trkpt><trkpt lat="46.073705" lon="13.1793683"><ele>113.33333333333333</ele><time>2026-04-07T16:17:54.391Z</time></trkpt><trkpt lat="46.0736483" lon="13.179645"><ele>113.66666666666666</ele><time>2026-04-07T16:17:55.394Z</time></trkpt><trkpt lat="46.0735967" lon="13.1799233"><ele>114.0</ele><time>2026-04-07T16:17:56.391Z</time></trkpt><trkpt lat="46.0735483" lon="13.1802"><ele>114.0</ele><time>2026-04-07T16:17:57.393Z</time></trkpt><trkpt lat="46.0734967" lon="13.180485"><ele>114.0</ele><time>2026-04-07T16:17:58.393Z</time></trkpt><trkpt lat="46.0734417" lon="13.18077"><ele>114.0</ele><time>2026-04-07T16:17:59.392Z</time></trkpt><trkpt lat="46.0733867" lon="13.18105"><ele>114.0</ele><time>2026-04-07T16:18:00.388Z</time></trkpt><trkpt lat="46.073335" lon="13.1813233"><ele>114.0</ele><time>2026-04-07T16:18:01.388Z</time></trkpt><trkpt lat="46.0732833" lon="13.181595"><ele>114.0</ele><time>2026-04-07T16:18:02.39Z</time></trkpt><trkpt lat="46.07324" lon="13.1818683"><ele>114.0</ele><time>2026-04-07T16:18:03.389Z</time></trkpt><trkpt lat="46.0731967" lon="13.1821467"><ele>114.0</ele><time>2026-04-07T16:18:04.391Z</time></trkpt><trkpt lat="46.0731667" lon="13.182425"><ele>114.0</ele><time>2026-04-07T16:18:05.391Z</time></trkpt><trkpt lat="46.073135" lon="13.18269"><ele>114.0</ele><time>2026-04-07T16:18:06.393Z</time></trkpt><trkpt lat="46.0731033" lon="13.1829383"><ele>114.0</ele><time>2026-04-07T16:18:07.391Z</time></trkpt><trkpt lat="46.0730783" lon="13.1831733"><ele>114.0</ele><time>2026-04-07T16:18:08.392Z</time></trkpt><trkpt lat="46.07303" lon="13.183415"><ele>114.0</ele><time>2026-04-07T16:18:09.393Z</time></trkpt><trkpt lat="46.0730267" lon="13.183635"><ele>114.0</ele><time>2026-04-07T16:18:10.392Z</time></trkpt><trkpt lat="46.0729733" lon="13.1838067"><ele>114.0</ele><time>2026-04-07T16:18:11.391Z</time></trkpt><trkpt lat="46.0729383" lon="13.183995"><ele>114.0</ele><time>2026-04-07T16:18:12.392Z</time></trkpt><trkpt lat="46.072895" lon="13.1841783"><ele>114.25</ele><time>2026-04-07T16:18:13.391Z</time></trkpt><trkpt lat="46.072865" lon="13.18436"><ele>114.5</ele><time>2026-04-07T16:18:14.391Z</time></trkpt><trkpt lat="46.0728317" lon="13.1845417"><ele>114.75</ele><time>2026-04-07T16:18:15.388Z</time></trkpt><trkpt lat="46.0728" lon="13.1847233"><ele>115.0</ele><time>2026-04-07T16:18:16.392Z</time></trkpt><trkpt lat="46.0727667" lon="13.184895"><ele>114.6</ele><time>2026-04-07T16:18:17.393Z</time></trkpt><trkpt lat="46.0727283" lon="13.1850467"><ele>114.2</ele><time>2026-04-07T16:18:18.388Z</time></trkpt><trkpt lat="46.0726983" lon="13.185195"><ele>113.80000000000001</ele><time>2026-04-07T16:18:19.391Z</time></trkpt><trkpt lat="46.0726467" lon="13.1853183"><ele>113.4</ele><time>2026-04-07T16:18:20.389Z</time></trkpt><trkpt lat="46.072625" lon="13.1854417"><ele>113.0</ele><time>2026-04-07T16:18:21.391Z</time></trkpt><trkpt lat="46.07261" lon="13.1855417"><ele>113.25</ele><time>2026-04-07T16:18:22.392Z</time></trkpt><trkpt lat="46.0725683" lon="13.185685"><ele>113.5</ele><time>2026-04-07T16:18:24.39Z</time></trkpt><trkpt lat="46.072435" lon="13.1857467"><ele>113.75</ele><time>2026-04-07T16:18:26.392Z</time></trkpt><trkpt lat="46.0723317" lon="13.18574"><ele>114.0</ele><time>2026-04-07T16:18:27.391Z</time></trkpt><trkpt lat="46.0722283" lon="13.1857567"><ele>114.0</ele><time>2026-04-07T16:18:28.392Z</time></trkpt><trkpt lat="46.0721083" lon="13.1857917"><ele>114.0</ele><time>2026-04-07T16:18:29.391Z</time></trkpt><trkpt lat="46.071975" lon="13.1858183"><ele>114.0</ele><time>2026-04-07T16:18:30.388Z</time></trkpt><trkpt lat="46.07184" lon="13.1858417"><ele>114.0</ele><time>2026-04-07T16:18:31.392Z</time></trkpt><trkpt lat="46.0717067" lon="13.185875"><ele>114.0</ele><time>2026-04-07T16:18:32.391Z</time></trkpt><trkpt lat="46.071575" lon="13.1859"><ele>114.0</ele><time>2026-04-07T16:18:33.392Z</time></trkpt><trkpt lat="46.071435" lon="13.18593"><ele>114.0</ele><time>2026-04-07T16:18:34.392Z</time></trkpt><trkpt lat="46.0712983" lon="13.1859567"><ele>114.0</ele><time>2026-04-07T16:18:35.391Z</time></trkpt><trkpt lat="46.07116" lon="13.1859867"><ele>114.0</ele><time>2026-04-07T16:18:36.391Z</time></trkpt><trkpt lat="46.0710217" lon="13.1860167"><ele>114.0</ele><time>2026-04-07T16:18:37.392Z</time></trkpt><trkpt lat="46.0708833" lon="13.1860433"><ele>114.0</ele><time>2026-04-07T16:18:38.392Z</time></trkpt><trkpt lat="46.07075" lon="13.1860717"><ele>114.0</ele><time>2026-04-07T16:18:39.392Z</time></trkpt><trkpt lat="46.0706183" lon="13.1860967"><ele>113.5</ele><time>2026-04-07T16:18:40.391Z</time></trkpt><trkpt lat="46.0704917" lon="13.186115"><ele>113.0</ele><time>2026-04-07T16:18:41.392Z</time></trkpt><trkpt lat="46.070365" lon="13.1861367"><ele>112.5</ele><time>2026-04-07T16:18:42.391Z</time></trkpt><trkpt lat="46.07024" lon="13.18616"><ele>112.0</ele><time>2026-04-07T16:18:43.391Z</time></trkpt><trkpt lat="46.0701217" lon="13.18618"><ele>112.0</ele><time>2026-04-07T16:18:44.392Z</time></trkpt><trkpt lat="46.070005" lon="13.186225"><ele>112.0</ele><time>2026-04-07T16:18:45.392Z</time></trkpt><trkpt lat="46.0698983" lon="13.1863033"><ele>112.0</ele><time>2026-04-07T16:18:46.392Z</time></trkpt><trkpt lat="46.0698117" lon="13.1864217"><ele>112.0</ele><time>2026-04-07T16:18:47.391Z</time></trkpt><trkpt lat="46.06974" lon="13.1865633"><ele>112.00000000000001</ele><time>2026-04-07T16:18:48.389Z</time></trkpt><trkpt lat="46.069665" lon="13.1866867"><ele>112.0</ele><time>2026-04-07T16:18:49.388Z</time></trkpt><trkpt lat="46.0696017" lon="13.186795"><ele>112.0</ele><time>2026-04-07T16:18:50.388Z</time></trkpt><trkpt lat="46.0695567" lon="13.1868967"><ele>112.0</ele><time>2026-04-07T16:18:51.388Z</time></trkpt><trkpt lat="46.069515" lon="13.18697"><ele>112.00000000000001</ele><time>2026-04-07T16:18:52.39Z</time></trkpt><trkpt lat="46.0694517" lon="13.18705"><ele>112.0</ele><time>2026-04-07T16:18:54.391Z</time></trkpt><trkpt lat="46.069345" lon="13.1870283"><ele>112.0</ele><time>2026-04-07T16:18:56.388Z</time></trkpt><trkpt lat="46.0692733" lon="13.18703"><ele>111.99999999999999</ele><time>2026-04-07T16:18:57.389Z</time></trkpt><trkpt lat="46.0691767" lon="13.1870317"><ele>111.99999999999999</ele><time>2026-04-07T16:18:58.389Z</time></trkpt><trkpt lat="46.069065" lon="13.1870483"><ele>112.0</ele><time>2026-04-07T16:18:59.388Z</time></trkpt><trkpt lat="46.0689433" lon="13.1870667"><ele>112.0</ele><time>2026-04-07T16:19:00.39Z</time></trkpt><trkpt lat="46.0688117" lon="13.1871017"><ele>111.75</ele><time>2026-04-07T16:19:01.389Z</time></trkpt><trkpt lat="46.0686817" lon="13.187155"><ele>111.5</ele><time>2026-04-07T16:19:02.39Z</time></trkpt><trkpt lat="46.06855" lon="13.187195"><ele>111.25</ele><time>2026-04-07T16:19:03.389Z</time></trkpt><trkpt lat="46.068415" lon="13.1872033"><ele>111.0</ele><time>2026-04-07T16:19:04.392Z</time></trkpt><trkpt lat="46.068285" lon="13.187235"><ele>111.0</ele><time>2026-04-07T16:19:05.391Z</time></trkpt><trkpt lat="46.0681583" lon="13.18728"><ele>111.0</ele><time>2026-04-07T16:19:06.39Z</time></trkpt><trkpt lat="46.06803" lon="13.1873417"><ele>111.0</ele><time>2026-04-07T16:19:07.389Z</time></trkpt><trkpt lat="46.067905" lon="13.187415"><ele>111.0</ele><time>2026-04-07T16:19:08.389Z</time></trkpt><trkpt lat="46.067795" lon="13.1875017"><ele>111.0</ele><time>2026-04-07T16:19:09.39Z</time></trkpt><trkpt lat="46.0676817" lon="13.1875833"><ele>111.0</ele><time>2026-04-07T16:19:10.39Z</time></trkpt><trkpt lat="46.067575" lon="13.1876383"><ele>111.0</ele><time>2026-04-07T16:19:11.39Z</time></trkpt><trkpt lat="46.0674733" lon="13.1876917"><ele>111.0</ele><time>2026-04-07T16:19:12.392Z</time></trkpt><trkpt lat="46.067385" lon="13.1877417"><ele>111.0</ele><time>2026-04-07T16:19:13.389Z</time></trkpt><trkpt lat="46.0673083" lon="13.1877833"><ele>111.0</ele><time>2026-04-07T16:19:14.39Z</time></trkpt><trkpt lat="46.0672467" lon="13.1878067"><ele>111.0</ele><time>2026-04-07T16:19:15.389Z</time></trkpt></trkseg></trk></gpx>